ECMWFNIL_500_spd_000.txt.gz
Wind_Speed
42 42 43 43 43 44 45 47 48 50 50 51 52 53 53 53 53 54 56 58 58 59 61 65 67 67 66 64 64 64 62 60 58 57 56 54 55 58 59 57 60 63
43 43 43 43 44 44 45 47 49 51 51 51 52 52 53 54 53 53 55 56 57 58 59 61 64 66 67 66 66 65 64 63 60 59 57 56 56 58 60 60 59 61
44 44 44 44 44 44 45 47 49 51 52 53 53 53 54 55 54 54 55 56 56 57 58 59 60 63 65 67 68 67 66 65 63 60 58 58 58 58 61 63 61 59
43 44 44 44 44 44 45 46 48 51 52 53 53 54 55 55 56 55 56 56 57 57 57 58 59 59 62 65 68 68 67 66 64 62 59 58 58 58 60 63 62 59
43 43 44 44 45 45 45 45 47 49 51 52 53 55 55 56 57 57 57 58 58 58 58 58 58 59 59 61 65 68 68 67 65 64 61 58 56 56 56 59 61 61
43 44 45 45 45 44 44 44 45 47 49 51 53 55 56 57 58 59 59 60 60 60 60 59 59 59 59 59 61 65 68 68 66 65 63 60 58 56 55 57 60 60
45 45 46 45 44 44 43 43 44 45 47 49 51 54 56 57 59 60 61 62 62 62 62 62 61 60 60 59 59 61 65 68 68 66 65 62 60 58 58 59 60 60
46 46 46 46 45 43 42 42 43 44 45 47 48 51 54 56 58 60 63 64 65 65 65 64 63 62 62 61 60 59 61 66 69 68 66 65 63 60 59 59 59 60
46 47 46 46 45 43 42 42 42 42 43 44 46 47 51 54 56 58 61 64 65 66 67 67 66 64 64 63 62 61 60 62 66 69 68 66 65 63 60 58 57 59
47 47 46 45 44 43 42 41 41 41 42 42 43 45 48 51 53 54 56 58 60 63 67 68 68 67 66 65 64 63 62 60 62 67 70 68 66 64 61 57 54 56
47 47 46 45 43 42 41 41 41 41 42 42 43 44 47 50 50 50 50 50 52 55 61 66 69 69 68 67 66 65 64 62 61 64 69 70 67 65 62 58 55 57
47 46 45 44 43 42 41 42 41 41 42 43 44 45 47 49 49 47 47 46 45 47 52 58 64 68 68 68 68 67 66 64 62 61 66 70 69 66 63 60 58 60
46 46 45 44 43 42 42 42 43 43 44 45 45 46 48 50 49 47 46 45 43 44 47 51 56 61 66 67 68 69 67 66 64 62 63 69 70 67 65 62 59 58
45 45 44 44 43 43 43 44 45 45 46 47 47 47 49 51 50 49 48 46 45 45 46 48 50 54 60 63 65 68 69 67 66 64 62 67 70 69 66 63 59 55
44 44 44 44 44 44 45 46 47 48 48 49 49 49 50 51 51 50 50 48 48 48 47 49 49 50 53 56 59 65 69 68 67 66 64 65 69 70 66 64 60 55
42 43 44 44 45 45 47 48 50 51 51 50 49 50 52 52 51 51 51 51 51 51 50 50 50 49 49 50 53 60 67 70 68 67 66 65 68 71 68 64 61 56
42 43 44 45 45 46 48 50 51 52 52 50 49 51 53 52 51 50 50 51 52 53 52 52 51 50 49 48 48 54 64 70 70 69 68 66 67 70 68 64 61 57
42 43 44 45 46 47 48 50 51 51 49 48 49 51 53 52 50 50 50 50 51 53 53 53 52 51 50 48 47 50 59 68 70 70 69 66 67 69 68 64 62 61
42 42 43 44 45 47 48 47 46 45 44 44 46 49 51 51 50 50 50 50 51 53 53 53 54 53 50 49 48 48 55 65 70 71 69 66 66 68 68 65 64 64
42 41 41 42 43 43 42 40 38 37 37 40 43 46 48 50 50 51 52 52 52 53 53 54 55 55 51 50 49 48 51 60 69 70 69 68 67 68 69 67 67 66
41 39 38 37 37 36 34 33 32 33 36 39 43 46 48 50 51 52 53 54 53 53 54 54 56 55 52 51 51 49 49 57 66 70 69 69 68 69 70 70 68 64
40 37 34 31 30 29 29 30 32 35 38 41 44 47 49 50 52 53 54 55 54 54 54 54 54 53 52 51 51 49 49 54 64 69 70 70 70 70 71 71 68 63
36 32 28 27 26 27 28 31 34 37 40 42 44 47 49 50 52 52 53 52 50 49 50 51 50 50 50 51 50 50 51 54 62 69 70 71 72 71 70 71 67 59
30 26 25 25 26 28 29 32 36 39 42 44 46 47 49 50 49 48 47 45 43 44 45 46 47 48 49 49 49 51 52 54 62 69 71 72 72 69 69 69 64 53
23 22 23 24 26 28 30 33 37 41 43 44 46 46 45 45 45 45 44 41 40 42 43 42 44 48 48 47 49 51 52 54 62 69 71 71 72 70 67 64 60 55
19 19 22 24 25 27 29 32 35 38 39 41 41 40 40 40 41 43 43 40 39 42 43 42 44 47 47 46 49 51 52 55 62 68 70 70 71 70 66 61 59 60

ECMWFNIL_500_spd_003.txt.gz
Wind_Speed
41 43 44 45 45 46 47 48 48 48 48 48 48 48 48 49 50 51 53 54 54 53 53 53 55 57 60 64 66 67 66 66 64 63 62 60 59 60 57 53 53 55
39 41 42 43 44 45 46 47 48 48 49 49 49 48 48 49 50 51 52 53 54 54 55 55 55 55 57 60 64 68 69 69 68 66 65 63 61 60 60 57 54 53
39 39 40 42 43 44 45 47 48 48 48 49 49 48 48 48 49 51 52 53 54 54 55 56 55 55 56 57 60 64 69 71 71 69 67 65 64 62 62 60 56 53
40 39 40 41 42 44 45 46 47 48 48 48 49 49 48 48 49 50 52 52 53 54 55 56 56 55 55 56 56 59 64 68 71 72 71 69 66 65 64 62 59 56
42 41 41 41 42 44 46 47 47 48 49 49 50 50 50 50 50 51 52 53 54 54 55 56 56 56 55 55 56 56 58 63 68 71 72 72 70 67 65 64 61 60
42 43 42 42 42 44 46 48 48 49 50 50 51 52 53 52 52 53 53 54 54 55 55 56 56 57 57 56 56 56 56 58 62 67 70 72 72 70 67 65 63 61
42 43 43 43 43 43 45 47 49 50 51 51 52 54 55 54 54 55 56 55 56 56 56 57 57 57 57 57 56 56 56 56 58 61 65 69 72 72 70 68 66 64
42 43 43 43 44 44 46 47 49 50 51 52 53 54 55 55 55 56 56 57 57 57 58 58 57 58 58 58 57 57 57 57 57 57 60 64 69 71 71 69 67 66
42 43 44 44 45 46 47 49 50 51 52 52 52 54 55 55 56 56 56 57 57 58 59 59 59 59 59 59 59 58 59 59 58 57 57 59 63 67 70 71 69 67
43 43 44 46 47 48 49 50 52 53 53 53 53 54 55 56 57 57 57 56 56 57 58 59 60 60 60 61 60 60 60 60 60 59 58 58 59 62 66 70 71 70
43 43 45 46 47 48 50 51 53 53 54 54 55 56 56 57 57 57 57 56 55 56 57 58 60 61 61 61 61 61 61 61 62 62 61 59 58 58 61 66 71 71
44 44 46 47 48 48 49 51 53 54 54 54 55 57 58 58 58 57 57 56 55 55 55 55 57 59 61 62 63 63 62 62 63 63 63 62 60 59 58 61 68 71
45 46 47 48 49 49 49 50 52 53 54 55 56 57 58 59 58 58 57 56 55 54 53 53 53 55 58 60 62 64 64 64 64 64 64 64 63 62 59 59 63 69
45 46 47 48 48 49 50 50 51 52 53 55 56 57 58 59 58 58 57 56 55 53 52 51 50 51 53 55 57 61 64 66 66 66 66 66 65 65 63 60 60 66
45 46 46 47 47 48 49 50 51 52 53 55 56 57 58 58 58 58 57 56 55 54 53 51 50 49 50 51 52 55 60 64 66 67 68 68 67 67 66 63 61 64
45 45 45 45 46 47 48 49 51 53 54 56 56 57 58 58 58 58 57 56 55 54 53 52 51 49 50 50 50 51 54 58 62 65 67 68 69 69 68 67 64 63
44 44 44 44 46 47 48 50 51 53 55 56 57 57 58 59 59 58 58 57 56 55 55 54 52 51 51 51 49 48 51 53 55 58 62 66 69 69 69 69 67 64
43 43 44 45 47 49 50 50 52 53 55 56 57 58 58 58 59 59 59 58 57 56 56 56 54 52 52 53 50 48 49 51 51 52 55 60 65 68 69 70 69 67
42 44 45 47 49 50 50 51 52 53 54 56 57 57 57 58 58 59 59 59 58 57 57 57 55 53 53 54 52 50 50 50 49 49 49 53 58 64 69 70 71 70
44 45 47 49 50 50 51 52 52 53 54 55 55 55 56 56 57 58 58 58 59 58 58 57 56 54 55 55 54 51 51 50 49 47 46 48 52 59 66 70 71 70
46 47 49 50 50 50 51 51 52 52 52 53 52 53 53 54 55 56 57 57 58 58 58 57 56 55 56 57 55 52 51 49 48 47 45 46 49 54 62 69 71 71
47 48 49 49 48 49 49 48 48 48 49 49 49 49 50 51 52 53 54 54 53 53 53 53 54 55 57 57 55 52 50 49 48 47 45 45 47 51 57 66 71 72
47 48 47 47 46 45 44 43 43 43 44 45 46 45 45 45 46 47 47 46 45 44 44 46 50 54 56 56 53 50 49 49 48 47 45 45 47 49 54 62 70 72
46 46 45 43 42 40 39 38 38 39 40 41 40 39 37 38 40 41 40 40 39 38 38 40 46 52 55 54 51 50 50 50 49 48 46 45 47 48 51 59 68 73
44 42 40 38 36 35 35 35 36 38 39 37 35 34 34 37 39 39 38 39 39 39 39 39 42 49 54 53 51 51 52 52 50 49 47 46 46 48 50 56 66 72
39 37 35 34 33 32 33 34 36 37 37 34 34 34 35 38 39 39 39 40 41 41 42 42 43 47 51 52 51 51 52 52 51 50 48 46 47 48 49 53 63 71

ECMWFNIL_500_spd_006.txt.gz
Wind_Speed
43 43 44 44 44 44 45 46 46 46 47 47 48 48 48 48 48 48 49 49 49 49 50 51 51 52 53 54 55 57 59 62 64 64 64 61 59 58 55 51 48 48
43 43 43 44 44 44 44 45 46 46 47 48 48 48 48 49 49 49 49 49 50 50 50 50 51 52 53 54 54 55 57 59 62 65 66 64 63 61 58 56 54 53
43 43 43 44 44 44 44 44 44 45 46 47 48 49 49 49 49 49 49 50 50 50 51 51 51 51 52 53 54 55 55 56 59 63 65 66 66 64 61 60 59 58
43 42 43 43 44 44 43 42 43 44 45 46 46 47 48 48 49 49 49 50 50 50 51 51 52 52 52 53 54 55 55 55 56 60 63 65 67 67 65 63 62 62
43 43 43 43 43 43 43 42 42 42 43 44 44 45 46 47 48 48 49 50 50 50 51 51 52 52 53 53 54 55 55 55 55 56 60 63 66 67 67 66 65 64
43 44 44 44 44 44 43 43 43 42 42 43 44 45 46 46 47 48 49 49 50 50 50 50 51 52 53 54 54 54 54 55 56 55 57 60 63 65 67 69 69 67
44 44 44 45 45 45 44 44 43 43 43 43 44 45 46 47 47 48 49 50 50 50 50 50 50 51 52 53 54 54 54 54 55 56 57 58 60 63 65 68 69 70
43 44 44 45 45 45 45 45 44 44 44 43 44 44 46 48 49 50 50 51 51 50 51 51 51 51 51 52 53 54 54 54 54 56 57 58 58 60 63 66 67 69
44 44 45 46 46 46 46 45 45 45 45 45 45 45 46 48 50 51 52 53 53 53 52 52 52 52 52 52 53 54 54 54 54 55 57 58 59 59 60 63 65 67
46 46 47 47 47 47 47 47 47 47 47 46 46 47 47 48 50 52 53 54 55 55 55 54 54 54 54 54 54 54 54 55 55 55 55 57 59 59 59 60 62 65
48 48 49 49 49 48 48 48 48 48 48 48 48 48 48 49 50 51 53 54 55 56 56 56 56 56 57 57 56 55 55 55 55 55 55 57 59 60 61 60 60 62
48 49 49 49 49 49 48 48 49 49 50 50 50 50 50 50 50 51 52 54 56 57 58 58 57 58 58 58 58 57 56 56 56 57 56 57 58 60 61 61 61 61
47 48 48 48 48 48 48 48 49 50 51 51 51 52 51 51 51 52 52 53 55 57 59 60 59 59 59 59 59 58 58 57 57 57 58 58 58 60 61 62 62 62
46 47 48 48 48 48 48 48 49 50 51 51 52 52 52 52 52 53 53 53 54 56 58 60 61 60 60 60 59 59 59 58 57 58 58 59 59 59 61 62 63 64
47 47 48 48 49 49 49 49 50 50 51 51 52 52 52 52 53 53 53 54 54 56 58 60 62 61 61 61 60 59 59 58 58 58 58 59 59 59 60 62 63 64
48 48 48 49 49 50 49 50 50 51 51 51 52 53 53 53 53 53 53 54 54 55 56 59 61 61 61 61 61 60 60 59 59 59 58 58 59 59 60 61 63 64
49 49 50 50 50 50 50 50 50 51 51 51 51 52 53 53 53 53 54 54 54 55 55 57 59 60 61 61 61 61 60 60 60 59 58 57 58 59 59 61 63 64
49 50 50 51 51 51 51 51 50 50 50 50 51 51 52 53 53 53 53 54 54 55 55 56 57 59 60 60 61 61 61 61 61 60 58 56 56 57 58 60 63 65
49 49 49 50 51 51 51 51 51 51 51 51 51 52 52 53 53 53 53 54 54 55 55 56 56 58 59 59 60 61 61 61 61 60 58 56 54 54 55 57 61 64
48 48 48 48 49 49 50 50 50 51 51 52 52 52 53 53 53 53 54 54 54 55 56 56 57 57 58 59 60 61 61 61 61 60 58 55 53 53 53 54 57 61
46 46 46 47 47 47 47 47 48 49 50 51 53 53 53 53 53 53 53 53 54 55 56 56 56 57 58 59 59 60 61 61 61 60 59 56 53 52 52 52 55 58
45 45 45 46 46 46 46 46 47 49 51 52 53 53 54 54 54 53 53 53 54 55 55 54 54 55 57 58 59 60 61 61 61 60 59 57 54 53 53 53 54 55
44 44 44 45 45 45 46 47 49 50 51 52 53 53 54 54 53 53 51 51 51 52 53 52 52 53 56 57 58 60 60 60 60 60 59 58 56 54 53 53 53 53
43 43 43 43 43 45 46 48 49 49 50 51 51 51 51 50 49 48 46 45 46 47 48 49 49 51 53 55 57 59 60 59 59 59 59 58 57 55 53 53 52 51
41 41 41 41 43 44 46 46 47 47 47 47 47 47 46 46 45 44 41 40 41 42 43 44 46 47 49 52 54 57 57 57 58 58 57 57 56 54 53 53 52 50
38 38 39 41 43 43 43 43 43 43 43 43 44 45 45 45 45 44 41 40 41 41 40 40 42 43 45 48 51 53 54 55 55 56 55 55 54 53 52 52 51 49

ECMWFNIL_500_spd_009.txt.gz
Wind_Speed
37 38 39 40 40 41 41 42 43 44 44 45 44 43 43 42 43 43 44 45 45 46 46 47 48 48 49 50 51 52 53 54 54 56 57 59 61 61 61 61 60 60
38 39 40 41 42 42 43 44 44 45 45 46 46 45 45 44 44 44 45 45 46 46 47 47 48 49 49 50 51 52 53 54 54 55 56 57 59 61 62 63 63 62
40 41 42 42 43 43 44 44 45 45 45 45 46 46 46 46 45 45 45 46 46 47 47 48 48 49 50 51 52 53 53 53 54 55 56 56 58 60 62 63 64 64
42 43 43 44 45 45 45 45 45 45 45 45 45 46 46 46 46 46 46 46 46 47 47 48 48 49 49 50 52 53 54 54 54 54 55 56 57 58 60 62 63 64
44 44 44 45 45 46 46 46 46 45 45 44 44 45 46 46 47 47 46 46 46 47 47 48 48 49 49 50 51 52 54 54 54 55 55 56 57 57 58 60 62 63
45 45 45 45 45 46 46 46 46 45 45 44 44 45 46 47 47 47 47 46 46 47 47 47 48 49 49 50 50 51 52 53 54 55 55 56 56 57 57 58 60 62
46 46 46 46 46 46 47 46 46 45 45 45 45 45 46 47 48 48 48 47 47 47 47 47 48 48 49 50 50 50 51 51 52 53 55 56 56 57 57 57 59 61
46 45 45 45 46 46 47 46 46 46 45 45 45 46 46 47 48 49 49 49 48 47 47 48 48 48 49 49 50 50 50 50 51 52 53 54 55 56 56 57 58 59
44 45 45 45 46 46 46 47 47 47 46 46 47 46 47 47 48 49 50 50 49 49 48 48 49 49 49 49 50 50 50 50 51 51 51 52 54 55 55 56 57 58
44 44 45 46 46 47 47 47 48 48 48 49 48 48 48 48 49 50 50 51 51 50 50 50 49 50 50 50 50 50 51 51 51 51 52 52 52 53 54 55 56 56
43 44 45 45 46 47 47 48 48 49 50 50 50 50 50 50 50 51 51 52 52 52 52 51 51 51 51 51 52 52 51 52 52 52 53 52 52 53 53 54 55 56
43 43 44 45 45 46 47 48 49 49 50 50 51 51 51 52 52 52 53 53 54 54 53 53 53 53 53 53 53 54 53 53 53 53 53 54 53 53 53 54 55 56
42 43 44 44 45 46 47 47 48 48 49 50 50 51 52 52 53 53 54 54 54 54 55 55 55 55 54 55 55 55 55 55 55 55 54 54 55 55 55 55 55 56
42 43 44 45 45 46 46 47 47 48 48 49 50 50 51 52 53 53 54 54 54 54 55 56 56 56 56 56 55 56 56 56 56 56 56 56 56 56 56 56 56 57
43 44 45 45 46 46 47 48 48 48 49 49 50 50 51 52 52 52 53 54 54 54 55 55 56 56 56 56 56 56 57 57 57 57 57 57 57 57 57 57 58 58
44 44 45 45 46 47 47 48 49 49 49 50 50 51 51 52 52 52 52 53 53 54 55 55 56 56 56 56 57 57 58 58 59 59 58 59 59 59 59 59 59 59
43 43 44 45 46 47 47 48 49 49 50 50 51 51 51 52 52 52 52 53 53 54 54 55 55 55 55 56 56 57 58 59 59 60 60 60 60 60 60 60 60 61
42 43 44 46 46 47 48 49 49 49 49 50 50 50 51 51 52 52 52 53 54 54 54 54 55 55 55 56 56 57 58 60 60 61 61 61 61 61 61 61 61 62
42 44 45 46 47 48 49 49 50 50 50 50 50 50 51 51 51 52 53 53 54 55 55 55 55 55 55 56 57 58 59 60 61 61 62 62 62 63 63 62 62 63
42 44 45 46 47 48 48 49 50 50 50 50 50 51 51 51 52 52 52 53 54 55 55 55 56 56 57 57 57 58 59 61 62 62 63 62 62 63 63 63 63 63
43 45 46 47 48 48 49 49 50 50 50 50 50 51 51 51 52 52 52 53 53 54 55 55 56 57 58 58 59 59 60 62 63 63 63 63 63 62 62 63 63 63
45 47 48 48 48 49 49 49 49 49 49 49 50 50 50 50 51 52 52 53 53 54 54 54 55 57 58 59 59 60 61 62 63 64 65 64 63 62 61 62 62 62
46 47 47 48 48 49 48 48 48 47 46 47 47 48 48 49 50 51 52 53 53 54 54 55 55 56 58 59 60 61 62 63 64 65 65 64 63 61 60 61 61 61
45 45 45 46 46 46 45 45 44 43 43 44 45 46 47 48 50 51 51 52 53 54 55 56 56 56 58 59 60 61 62 63 64 65 65 64 63 61 59 59 60 60
44 43 44 44 44 42 41 40 40 41 42 44 46 47 48 49 50 51 51 52 53 53 54 54 54 54 54 55 57 59 60 61 63 64 63 62 61 60 58 58 58 59
43 43 43 42 40 39 38 38 40 42 44 45 46 46 47 48 48 49 50 50 50 50 51 52 52 50 50 51 52 54 55 58 61 61 60 59 59 58 56 55 57 58

ECMWFNIL_500_spd_012.txt.gz
Wind_Speed
30 30 30 31 31 32 32 33 34 34 35 36 36 37 36 36 36 36 36 36 36 37 37 39 40 41 42 43 44 45 45 46 48 50 51 52 53 54 54 55 56 57
31 32 32 33 33 33 34 34 35 36 37 37 38 38 39 39 39 39 39 39 39 39 39 39 40 41 43 44 45 46 47 47 48 50 51 52 53 54 55 56 57 58
33 33 34 34 35 35 36 37 37 38 38 39 39 39 40 40 41 41 42 42 41 41 41 41 41 41 42 44 45 47 48 49 49 50 51 52 53 54 55 56 57 58
35 35 36 37 38 38 38 39 39 40 40 40 40 40 41 41 42 43 43 44 44 43 43 43 43 42 42 43 45 46 48 49 50 51 52 52 54 55 55 55 56 58
37 38 38 39 40 40 40 40 41 41 41 42 42 42 43 43 43 44 45 45 46 45 45 45 45 44 44 44 44 46 47 49 50 52 52 53 54 56 56 56 56 57
39 39 39 40 41 41 42 42 42 43 43 44 44 44 45 45 45 45 46 46 47 46 46 46 46 46 46 45 45 45 47 48 49 51 52 53 54 56 57 57 57 57
40 40 40 41 42 42 44 44 45 45 45 46 46 46 46 46 46 46 46 47 47 47 47 46 46 46 47 47 46 46 46 47 49 50 51 52 53 55 56 58 58 58
40 41 41 42 43 44 45 46 47 47 47 47 47 47 47 47 47 46 46 46 47 48 48 48 47 47 48 48 48 48 47 47 48 49 50 51 52 53 55 57 58 59
41 42 42 43 44 45 46 46 47 48 48 48 47 47 47 48 47 47 47 47 47 48 49 49 49 48 48 49 49 49 49 48 49 49 50 51 51 52 53 55 57 59
41 42 42 43 43 44 45 46 46 47 47 47 47 47 47 47 48 48 48 48 48 49 49 50 50 50 50 49 50 50 50 50 50 50 50 50 51 52 52 53 55 56
41 41 42 42 42 42 43 44 45 45 46 46 46 47 47 48 48 49 49 50 49 49 50 51 51 52 52 51 51 51 51 51 51 51 51 51 51 51 52 53 53 54
40 40 40 40 40 40 41 43 44 44 46 46 47 48 48 49 49 50 50 50 50 50 51 51 52 53 53 53 53 53 53 53 53 52 52 53 52 52 52 52 53 53
37 37 37 37 37 38 39 41 42 44 45 46 48 48 49 49 50 50 51 51 51 51 52 52 52 53 54 54 54 54 54 54 54 54 54 54 54 53 53 53 52 53
34 34 35 36 38 39 40 42 43 44 46 47 49 49 50 50 51 51 51 51 51 52 52 52 53 53 54 54 54 55 55 55 56 56 56 55 55 55 55 54 54 53
34 35 36 37 39 40 41 43 44 45 46 47 48 49 50 51 51 52 52 52 52 52 53 53 53 53 53 54 54 55 56 57 56 57 57 57 57 57 56 56 56 55
36 36 36 37 38 39 41 42 43 44 45 45 46 46 47 48 49 50 50 51 52 52 53 53 53 53 53 53 54 55 56 57 57 57 58 58 58 58 58 58 58 57
37 37 37 37 38 39 40 41 42 43 44 44 44 45 45 46 47 48 49 50 51 51 51 52 52 52 52 53 54 55 56 57 57 58 58 58 59 59 59 59 59 59
37 37 38 38 39 40 41 42 43 44 44 44 44 45 45 45 46 47 48 49 50 51 51 51 51 51 51 52 53 54 55 57 57 58 58 58 59 59 60 60 60 60
38 38 39 39 40 42 43 43 44 44 45 45 45 45 45 45 47 48 48 49 50 51 51 51 51 51 51 52 53 54 55 56 57 57 58 58 58 59 60 60 60 60
38 39 39 41 42 43 44 45 45 45 45 45 46 47 46 47 49 49 49 50 50 51 51 52 52 52 52 53 53 54 55 56 56 57 57 58 58 59 60 60 61 61
39 40 41 42 43 44 45 45 46 46 46 46 47 48 47 48 50 50 50 50 50 51 51 51 52 53 53 54 54 54 55 56 56 57 57 58 59 59 60 60 60 61
41 41 42 43 44 45 45 45 46 46 47 47 47 48 48 49 50 50 49 49 49 49 50 50 51 52 53 54 55 55 56 56 57 57 58 58 59 59 60 60 60 60
42 43 43 44 44 45 45 46 46 47 48 48 48 48 48 48 48 47 46 46 46 47 48 49 50 51 52 54 55 56 57 58 58 59 59 59 59 60 60 61 61 61
43 43 44 44 44 44 46 46 47 48 48 49 49 48 47 46 45 44 44 45 46 48 49 50 50 51 52 53 54 56 57 59 60 61 61 61 61 60 61 61 61 61
43 43 43 43 44 45 46 47 47 49 49 49 48 46 45 44 44 45 46 48 49 50 51 51 51 51 52 53 54 56 57 59 61 62 62 62 62 62 62 62 62 62
43 43 42 43 44 46 47 47 48 49 49 47 46 45 45 45 46 48 49 49 49 49 49 50 50 50 51 51 52 54 56 58 60 61 62 62 63 64 63 63 64 64

ECMWFNIL_500_spd_015.txt.gz
Wind_Speed
26 27 27 27 28 28 28 29 29 29 29 30 31 31 31 31 31 31 31 31 32 32 33 33 34 35 35 36 36 36 37 38 39 40 41 41 42 43 43 44 45 46
27 28 28 28 29 29 29 29 30 31 31 31 32 32 33 33 33 33 34 34 34 34 34 34 34 35 36 37 38 38 38 39 40 40 41 42 43 44 44 45 47 47
29 30 30 30 31 31 30 31 32 32 32 33 33 33 34 34 34 34 35 35 36 36 36 36 36 36 37 37 38 39 40 40 41 41 42 43 44 44 45 46 47 49
31 31 31 31 32 32 32 32 33 34 34 34 35 35 35 35 36 36 36 37 37 37 37 37 38 38 38 38 39 39 40 41 42 43 43 44 45 45 46 46 48 49
33 33 33 33 33 34 34 34 35 36 36 37 37 37 37 37 37 38 38 38 38 39 39 39 40 40 40 40 41 41 41 42 42 43 44 46 47 48 47 48 48 49
33 33 34 34 35 35 36 36 37 37 38 38 39 39 39 39 39 39 40 40 41 41 42 42 42 42 43 43 43 43 43 43 44 44 45 46 47 49 50 50 50 50
33 33 33 34 35 36 37 37 38 39 39 40 40 41 41 41 41 41 42 42 43 43 44 45 45 45 46 45 45 45 45 46 45 46 46 47 48 49 50 51 52 52
33 33 33 34 35 36 37 38 39 40 41 41 42 42 43 43 43 44 44 44 45 45 46 46 47 47 48 48 48 47 47 47 47 47 48 48 48 49 50 51 52 53
32 33 33 34 35 37 38 40 41 42 43 43 43 44 44 44 45 45 46 46 46 46 46 47 47 48 49 49 50 49 49 48 48 49 49 49 49 50 50 51 52 53
33 33 35 36 37 39 40 41 42 43 44 44 45 45 45 45 46 46 46 47 47 47 47 47 47 48 49 49 50 51 51 50 49 50 50 51 51 51 51 52 52 53
34 35 36 37 39 40 41 42 42 43 43 44 44 45 45 45 46 46 46 46 46 46 46 46 47 48 48 49 50 51 52 51 50 50 51 51 52 52 52 53 53 54
36 36 37 38 39 40 41 41 42 42 42 43 43 43 43 44 44 45 45 45 45 45 46 46 47 48 49 49 50 51 52 52 52 52 52 52 52 53 53 54 54 55
37 37 38 39 40 40 41 41 41 41 41 41 41 42 42 43 43 44 44 45 45 46 47 48 49 50 50 51 50 51 52 53 53 53 53 53 53 53 54 54 55 56
36 37 38 40 40 40 40 40 40 40 40 40 40 40 40 40 41 42 43 44 45 45 47 48 50 51 52 52 52 52 53 54 55 55 55 54 54 54 54 55 56 56
36 37 38 39 39 39 39 39 39 39 39 39 38 37 37 38 39 40 41 42 43 44 45 47 49 50 51 51 52 53 54 55 56 57 57 56 56 55 55 55 56 57
37 37 38 38 38 38 39 38 38 38 38 38 38 36 37 37 39 40 41 42 43 44 46 47 48 49 50 51 51 52 53 55 56 57 58 58 58 58 57 57 57 57
38 38 38 38 38 38 39 39 39 39 39 39 38 37 37 38 39 41 42 44 45 46 47 48 49 50 50 51 51 52 53 54 55 56 58 59 59 60 59 58 58 58
39 38 38 38 38 39 39 39 39 39 40 39 38 38 39 40 42 43 44 45 46 47 48 49 49 49 50 51 52 53 54 54 55 55 56 57 59 59 60 59 59 59
39 39 39 39 40 40 39 39 39 39 40 39 38 38 40 42 44 45 45 46 47 49 49 49 49 49 50 51 52 54 55 55 56 56 56 57 58 58 59 59 60 60
39 40 41 41 41 41 40 39 39 40 40 39 39 39 41 43 44 45 46 47 48 49 49 49 49 49 50 52 52 54 55 56 56 56 57 57 57 58 59 59 60 60
40 41 42 43 42 42 41 40 40 41 41 40 40 41 42 43 44 45 47 49 49 50 49 49 50 51 51 52 52 52 53 54 56 56 57 57 57 58 59 60 60 60
40 42 43 43 43 42 42 42 42 42 42 41 41 43 44 44 46 47 48 49 50 50 50 50 51 51 51 50 50 50 51 52 54 55 56 57 57 58 59 60 61 61
41 43 43 43 43 43 43 43 43 43 42 42 43 45 46 47 48 49 49 49 49 50 51 51 50 49 48 48 48 49 50 51 53 54 55 56 57 58 59 60 61 62
42 43 43 43 43 43 44 44 44 44 43 43 45 47 48 49 50 50 50 49 50 50 51 50 49 47 47 48 49 51 52 53 54 54 55 55 56 57 58 59 61 62
43 43 43 43 44 45 45 45 44 44 44 45 47 49 50 51 52 51 50 50 50 51 51 49 48 48 49 51 52 53 54 54 55 55 54 55 56 56 57 59 60 61
41 42 43 44 45 46 45 45 44 44 45 46 49 51 52 52 52 50 50 50 51 51 50 49 49 50 51 53 54 54 54 53 53 53 53 53 54 55 56 57 59 60

ECMWFNIL_500_spd_018.txt.gz
Wind_Speed
25 25 25 24 24 24 25 26 27 27 28 28 28 28 28 28 28 28 28 29 29 30 30 30 31 31 31 32 32 33 33 33 34 34 35 36 36 36 37 37 38 38
25 26 25 25 24 24 25 26 27 27 28 28 29 29 29 29 29 29 30 30 30 31 31 31 32 32 33 33 34 34 34 35 35 35 36 37 37 38 38 39 39 39
26 26 26 26 25 25 26 27 28 28 29 29 30 31 31 31 31 31 31 32 32 33 34 34 34 34 35 35 35 36 36 37 37 37 38 38 39 39 40 40 40 41
27 28 27 27 27 27 27 28 29 30 30 30 31 32 32 33 33 33 33 34 34 35 36 36 37 37 37 37 37 38 38 39 40 40 40 40 40 41 41 42 42 42
29 29 29 29 29 29 29 30 31 31 31 31 31 32 33 34 34 34 35 36 36 37 37 38 38 39 39 39 39 39 40 41 41 42 42 42 42 42 43 43 44 44
29 29 29 30 30 31 31 31 32 33 33 33 33 33 34 34 35 36 36 37 37 38 39 39 40 40 40 41 41 41 41 42 42 43 43 44 44 44 44 45 45 46
27 28 29 30 31 32 32 33 33 33 34 34 34 34 34 34 35 36 36 37 38 39 40 40 41 42 42 43 43 43 44 44 44 44 44 45 46 46 46 47 47 47
25 26 27 29 30 31 31 32 32 33 33 33 33 33 33 34 35 36 37 38 39 40 41 41 42 43 44 45 45 46 46 46 46 47 46 46 47 47 48 49 49 49
28 28 29 29 30 30 31 31 32 33 33 33 33 33 34 35 36 37 38 39 40 41 41 42 43 44 45 46 47 48 48 48 49 49 49 48 48 49 49 50 51 51
32 32 33 32 32 33 33 33 33 34 34 35 35 35 36 37 38 39 39 40 40 41 41 42 43 45 46 47 48 49 49 50 50 51 51 51 51 50 51 51 52 53
35 36 36 36 35 35 35 35 35 36 36 37 37 37 38 40 40 40 40 40 40 40 41 42 43 45 46 48 49 50 50 51 51 52 53 54 53 53 53 53 54 54
39 40 40 40 38 38 37 37 38 38 38 38 38 38 40 40 40 39 39 39 39 39 39 40 42 43 45 47 48 50 50 51 52 53 54 55 56 56 55 55 55 55
42 42 43 43 42 41 40 40 40 40 40 39 39 39 40 39 39 38 38 38 38 37 36 37 39 42 44 45 47 48 49 50 51 52 53 55 57 57 58 57 57 57
41 42 43 45 45 44 43 42 42 41 40 40 40 40 40 39 38 38 37 37 36 35 34 36 38 40 42 43 44 46 47 48 49 50 52 54 56 57 59 59 60 60
44 45 44 44 46 46 46 44 43 42 42 41 41 40 40 40 39 38 37 36 36 35 35 37 38 40 41 42 43 45 46 47 48 49 51 52 54 55 57 59 60 61
48 49 47 46 47 49 49 47 45 44 43 42 41 41 41 40 39 39 38 37 36 36 37 39 40 42 43 44 45 46 47 48 49 50 51 52 53 54 56 57 59 60
49 51 50 50 50 51 52 50 47 45 44 42 41 41 41 41 40 40 38 38 38 38 39 40 42 44 45 47 48 49 50 50 51 52 53 53 54 54 55 56 58 59
51 53 52 52 53 54 54 52 48 46 44 43 42 42 42 41 41 40 39 39 40 40 41 42 43 45 46 47 48 50 51 53 54 55 55 55 56 56 56 57 58 58
52 54 53 53 55 55 52 51 49 46 44 43 42 42 42 42 42 42 41 41 41 42 42 43 44 45 46 47 48 50 52 54 56 57 58 58 58 58 58 58 59 59
53 54 55 55 56 55 52 50 48 46 44 43 43 42 43 43 43 43 43 43 43 43 44 44 46 47 49 50 51 53 54 56 58 59 60 61 60 60 60 60 60 60
52 53 55 56 57 56 53 49 46 45 44 44 43 44 44 45 45 45 45 44 45 45 46 46 48 50 51 53 55 56 58 60 61 62 63 63 62 62 62 62 61 61
53 53 55 57 56 56 53 47 44 44 44 44 44 45 46 47 47 46 46 46 47 47 48 49 50 52 54 56 58 60 62 64 65 65 64 63 62 62 62 61 61 61
53 53 56 58 59 58 53 45 41 42 44 44 46 47 47 47 47 47 47 48 48 49 50 50 52 54 56 59 61 63 65 66 66 65 63 61 60 59 59 58 57 58
53 55 57 57 58 58 51 42 39 42 43 45 46 47 47 47 47 48 48 48 49 50 51 52 53 56 59 62 64 65 66 66 64 62 60 58 56 55 54 53 54 55
54 56 57 56 57 54 46 39 39 42 43 44 45 46 46 47 48 48 48 49 50 50 51 53 56 59 62 64 65 66 65 63 61 59 56 54 53 52 52 53 54 55
55 56 56 55 54 48 41 37 40 41 42 44 44 45 47 48 48 49 48 49 50 51 53 56 58 61 63 64 64 63 61 60 58 56 54 52 51 52 53 54 55 56

ECMWFNIL_500_spd_021.txt.gz
Wind_Speed
23 23 24 24 24 24 25 26 26 27 27 26 26 25 25 24 25 25 25 25 25 25 26 26 26 27 27 28 29 29 29 30 30 30 30 30 31 31 32 32 33 33
24 24 25 25 25 25 25 26 26 26 26 26 26 25 25 24 24 24 24 25 25 25 25 25 26 26 27 28 29 30 30 31 31 32 32 32 32 32 33 33 34 34
27 26 25 25 25 25 26 26 26 26 26 26 26 26 25 25 25 25 25 25 26 26 26 26 26 27 28 29 29 30 31 32 33 33 34 34 34 34 34 35 35 36
29 28 27 27 27 26 26 27 26 26 26 26 26 26 27 27 27 27 27 28 28 28 29 29 29 29 30 30 31 32 32 33 34 35 36 36 37 37 37 37 37 38
29 30 30 30 29 28 28 28 28 28 27 27 27 28 28 29 29 30 30 30 30 31 31 31 31 32 32 33 34 34 35 35 35 36 37 38 39 39 40 40 40 41
27 29 30 31 31 30 30 30 30 30 30 29 29 29 30 30 31 31 32 32 32 33 33 33 34 34 34 35 36 37 37 37 38 38 38 39 40 40 41 42 42 43
25 27 28 29 30 29 29 30 30 30 30 30 30 31 32 32 32 33 33 33 34 35 35 36 36 36 37 37 38 38 39 39 40 40 40 41 41 42 43 43 44 44
26 26 27 27 27 26 26 27 27 28 28 29 30 30 31 32 33 33 34 34 35 35 36 36 37 38 38 39 40 40 41 41 41 42 42 42 43 44 44 45 45 46
29 30 29 28 27 27 27 27 28 28 29 29 30 30 31 31 31 32 32 33 34 34 35 36 37 38 39 40 40 41 42 42 43 43 43 43 44 45 46 47 47 48
32 33 32 32 32 31 30 30 29 30 31 31 32 32 32 32 32 32 32 33 34 35 36 37 38 39 40 41 41 42 42 43 43 43 44 44 45 46 47 48 49 49
32 33 33 34 34 34 33 33 33 33 33 34 34 34 34 34 34 34 34 35 37 38 39 39 40 40 40 40 40 41 41 41 42 42 43 43 44 45 46 48 49 49
33 34 35 36 37 37 38 38 39 39 38 37 36 36 36 36 36 36 37 38 39 40 40 40 40 40 39 39 38 38 38 38 38 38 39 40 41 42 43 45 47 48
38 39 40 41 42 43 44 45 45 44 42 40 38 38 38 38 38 38 39 40 41 42 42 42 41 40 39 38 37 37 36 35 35 36 36 37 38 39 40 42 43 45
42 43 44 45 46 47 47 48 48 48 45 42 40 39 39 40 40 41 42 42 43 44 45 44 42 40 40 39 38 36 36 36 36 36 36 37 38 39 40 41 42 44
45 46 48 50 51 51 51 50 50 50 48 46 45 43 43 43 43 44 44 45 45 47 47 45 43 42 41 40 39 38 37 37 37 38 38 38 39 40 41 42 43 44
48 49 52 54 56 55 55 54 53 52 51 49 48 47 46 46 47 47 47 46 46 48 48 46 44 43 42 41 40 40 39 39 39 39 40 40 40 41 41 42 42 43
48 48 51 55 58 58 57 56 55 53 52 50 49 48 47 47 48 49 49 48 47 48 49 47 45 44 43 42 42 41 41 41 41 41 42 43 43 43 43 43 44 46
48 47 48 52 57 57 55 55 55 53 52 51 49 48 47 47 48 49 50 50 49 49 49 48 47 45 44 43 43 43 43 43 43 44 45 45 45 46 46 47 48 49
51 49 48 50 54 53 49 47 49 50 50 51 50 49 49 49 50 50 51 51 50 49 50 49 48 47 46 45 45 45 46 46 46 47 47 47 48 49 50 51 51 52
54 53 52 52 53 52 48 45 47 49 49 50 50 50 50 51 51 52 52 50 49 50 50 50 49 48 48 47 47 47 48 48 49 49 50 50 51 52 53 54 54 55
58 58 57 55 55 54 52 51 50 49 48 49 49 50 51 51 52 52 51 50 49 50 51 51 50 50 50 49 49 50 51 51 52 52 53 54 55 56 57 57 58 59
60 60 60 59 59 60 61 60 57 54 52 52 51 51 51 51 51 51 50 49 49 50 51 52 51 51 51 51 52 52 53 54 54 55 56 57 57 58 59 60 61 61
59 60 60 60 59 60 63 64 63 62 60 56 53 51 50 51 52 52 50 50 50 50 51 51 51 52 52 53 54 55 56 56 56 56 57 58 59 60 61 62 62 62
59 59 60 60 59 59 59 59 58 59 60 58 56 54 52 51 52 53 52 51 51 51 51 51 52 53 55 56 56 57 57 57 57 58 59 59 60 61 62 62 63 64
58 58 58 58 57 57 56 53 52 53 54 56 58 57 54 52 52 53 53 52 50 50 51 52 53 55 56 56 56 57 58 59 59 59 59 60 61 62 63 64 65 67
53 53 54 53 52 54 54 52 51 52 52 53 57 58 56 53 50 48 46 46 47 48 50 51 52 53 54 55 56 57 59 59 59 59 60 61 62 64 64 65 67 69

ECMWFNIL_500_spd_024.txt.gz
Wind_Speed
24 24 24 24 24 23 23 23 23 23 23 24 25 25 25 25 25 25 25 25 25 24 24 24 24 25 25 25 25 25 25 25 25 25 25 25 26 27 27 28 28 28
25 25 25 26 25 24 24 24 23 23 23 24 24 25 25 25 24 24 23 24 24 24 24 24 25 25 25 25 26 26 26 26 26 26 26 25 25 26 27 28 28 29
24 25 25 26 26 26 25 25 25 24 23 23 24 25 25 25 25 24 23 22 22 23 23 24 24 25 25 26 26 26 26 27 27 27 27 27 27 27 27 28 29 29
23 24 25 25 25 25 25 25 25 25 24 24 24 24 25 26 26 25 24 23 22 23 23 24 25 25 26 27 27 27 28 28 28 29 29 29 29 30 30 30 30 31
22 23 24 24 25 25 25 25 26 26 25 25 24 24 25 26 26 26 26 25 24 24 25 26 26 27 28 28 29 29 30 30 30 31 32 32 32 32 33 33 33 34
22 23 23 23 24 24 24 25 26 26 26 26 25 25 25 26 26 26 26 26 26 27 27 28 29 29 30 30 31 31 32 32 33 33 34 34 35 35 35 36 36 37
26 25 24 24 23 23 23 23 24 25 26 26 26 25 25 25 25 25 26 26 27 28 29 30 31 31 32 32 33 33 34 34 35 36 36 36 37 37 38 38 39 39
28 27 26 25 23 22 23 23 23 23 23 23 22 23 22 22 22 23 23 25 26 28 29 30 31 32 33 33 33 34 35 35 35 36 37 38 39 39 40 40 41 41
29 28 27 25 24 23 24 25 26 26 25 24 23 24 24 24 24 24 24 25 26 27 28 29 30 31 31 32 33 34 34 35 35 36 37 38 39 40 41 42 42 43
29 29 29 28 28 28 28 27 27 28 28 29 29 29 29 28 27 26 26 27 28 28 28 29 30 30 30 31 32 33 34 35 36 37 38 39 40 41 42 43 43 44
32 31 31 32 32 32 30 29 29 29 30 31 31 32 32 31 30 28 28 29 30 30 31 31 31 30 31 31 32 33 34 35 35 36 37 39 40 41 41 42 43 43
35 34 34 34 35 35 33 33 32 32 32 33 34 34 35 35 34 34 34 33 33 33 33 33 32 32 32 32 33 33 34 35 36 36 37 38 39 40 40 40 40 39
37 37 36 36 36 37 37 36 36 37 39 39 39 39 40 40 40 39 39 38 37 35 35 35 36 36 36 36 36 36 37 37 38 38 38 39 39 40 40 39 38 37
39 39 39 38 39 40 40 40 41 44 46 47 48 47 46 45 43 43 43 42 40 39 38 38 38 38 39 39 40 40 39 40 40 40 40 40 40 41 40 39 38 37
42 41 41 42 43 43 43 43 42 44 47 49 50 50 50 49 47 46 45 44 43 42 41 41 41 41 41 42 42 42 42 42 42 42 42 42 42 42 42 42 41 40
45 44 44 45 45 45 45 45 45 45 46 48 50 51 51 50 50 49 49 48 47 44 43 44 44 44 44 44 44 44 44 44 44 44 44 44 44 44 44 44 43 42
48 47 47 47 48 47 47 47 48 48 48 49 52 53 53 51 49 46 46 49 51 47 43 43 45 45 46 46 46 46 46 45 45 44 45 45 45 46 46 46 45 44
50 50 50 50 51 50 49 48 50 51 51 51 52 54 55 55 52 47 44 46 48 47 43 42 43 45 47 48 48 49 48 47 47 46 45 46 46 47 48 47 46 46
52 51 51 52 53 53 51 50 50 52 53 53 52 52 54 54 52 51 48 43 39 40 41 41 43 45 47 48 49 50 50 49 48 47 46 46 47 48 49 48 47 47
53 53 52 53 53 53 53 52 52 53 55 55 53 52 53 52 51 54 53 45 39 39 40 41 42 45 47 49 50 50 50 49 49 48 47 47 47 48 49 49 49 48
54 54 54 54 54 54 55 54 54 55 55 55 54 53 53 52 51 53 54 50 44 41 40 42 46 48 50 51 51 50 49 49 49 48 48 48 48 48 48 49 49 50
55 55 55 55 56 56 56 57 57 57 57 57 56 55 54 52 50 52 53 51 47 46 49 53 55 55 54 53 52 52 51 50 50 50 49 48 47 48 48 49 51 52
56 56 56 56 57 58 58 58 58 58 58 58 57 55 55 54 54 55 57 58 57 58 60 61 59 57 56 55 55 54 53 52 52 51 49 48 47 48 49 51 52 53
55 55 56 57 57 58 58 59 59 59 59 58 56 55 54 54 54 56 58 60 61 61 60 58 57 57 58 58 57 56 55 54 52 50 48 48 49 49 50 51 52 53
54 54 55 56 56 57 58 58 58 56 55 54 53 51 50 50 50 51 53 55 55 55 54 53 53 55 56 57 57 56 55 53 50 49 48 49 50 50 50 51 53 56
55 55 55 56 56 57 57 56 55 51 49 49 50 49 49 48 47 47 48 49 49 50 50 52 53 53 54 55 55 53 51 47 45 44 46 48 50 51 53 56 59 61

ECMWFNIL_500_spd_030.txt.gz
Wind_Speed
19 19 20 20 20 20 20 20 20 19 19 19 19 18 18 18 18 18 18 18 18 18 17 17 17 18 18 18 18 18 18 18 18 18 18 19 19 20 20 20 21 21
21 21 20 20 20 20 20 20 20 20 20 20 20 19 19 18 18 18 18 18 18 17 17 17 17 17 17 17 17 17 17 18 18 18 18 18 18 19 19 20 20 20
23 22 22 21 20 19 19 19 19 19 19 19 20 20 20 19 19 18 18 18 18 18 17 17 17 17 17 16 17 17 17 17 18 18 18 17 18 18 18 19 19 19
26 24 23 22 21 19 18 19 19 19 19 19 19 20 20 20 19 19 19 18 18 18 18 18 17 17 17 16 17 17 17 18 18 18 18 18 18 18 18 19 19 19
26 25 23 22 21 20 19 19 20 20 19 19 19 19 20 20 20 20 19 19 19 19 19 18 18 18 18 18 18 18 18 18 19 19 19 19 20 20 20 20 20 20
26 25 24 23 22 21 20 20 21 21 20 20 19 19 19 19 19 19 20 20 20 20 20 20 20 20 20 20 20 20 20 20 20 20 21 21 21 22 22 22 22 22
26 25 25 25 24 23 22 22 22 22 22 21 20 20 20 20 20 20 19 20 20 21 22 22 22 22 22 22 22 22 23 23 23 23 23 23 23 23 24 24 25 25
28 28 27 27 26 25 24 24 25 24 24 23 23 22 22 22 21 20 20 20 20 21 21 22 22 22 22 22 23 24 24 25 25 26 26 26 26 26 26 27 27 27
29 30 30 29 28 27 27 27 27 27 26 26 26 25 24 24 23 21 20 20 20 21 21 21 21 21 21 22 22 23 24 25 26 26 27 28 28 29 29 30 30 30
30 31 32 32 31 30 29 29 29 29 28 28 28 27 27 26 25 23 22 21 22 23 23 23 23 23 22 22 22 23 23 23 24 25 26 28 30 31 31 31 32 32
32 33 33 32 32 31 31 31 31 31 30 30 29 28 28 28 28 27 26 25 24 25 26 26 26 26 25 24 24 25 25 25 25 25 26 28 30 31 32 33 33 33
34 34 34 33 33 32 32 32 33 33 32 32 31 30 29 29 29 29 30 30 29 28 28 28 27 28 28 28 28 29 30 30 30 29 29 29 30 32 33 34 35 35
38 38 38 37 35 34 34 35 36 36 36 36 35 34 33 32 32 32 33 34 33 32 33 31 30 30 31 31 32 33 34 34 35 35 35 34 33 33 33 34 35 36
40 39 39 39 38 37 38 39 39 40 40 38 37 37 37 36 36 36 36 37 37 37 37 35 34 34 34 34 34 35 35 36 36 37 38 38 38 38 37 37 37 37
43 41 40 41 41 41 41 43 43 42 41 40 40 40 39 39 39 40 40 40 40 40 40 40 40 39 39 38 37 37 37 37 38 38 38 39 40 41 42 42 42 41
48 46 45 44 45 45 44 44 44 44 43 42 42 42 41 41 42 42 43 43 42 43 44 44 44 44 44 43 42 42 42 42 41 41 41 41 41 42 43 45 45 45
50 50 49 49 49 49 48 47 46 46 46 45 44 43 43 44 44 44 44 44 45 46 45 45 46 46 46 45 45 45 45 45 45 44 44 43 44 44 44 45 45 44
51 51 51 51 51 51 51 50 50 49 49 48 47 46 45 45 47 47 46 46 48 49 48 47 48 49 48 48 49 49 48 48 47 47 47 46 45 45 45 45 45 45
51 52 52 52 52 52 52 52 52 52 52 51 50 50 49 49 50 51 51 51 52 52 52 53 54 54 54 54 54 53 52 51 50 49 48 47 47 46 46 46 47 48
54 54 54 54 54 54 54 54 54 54 55 54 54 54 54 54 54 54 55 55 55 55 55 56 57 57 58 57 57 56 55 54 52 51 50 48 48 47 47 47 49 50
55 55 55 55 55 54 54 55 56 56 56 56 56 56 56 56 56 56 56 57 57 57 57 57 57 58 58 58 58 57 56 55 54 53 51 50 49 49 49 49 50 52
54 54 53 53 53 53 53 54 54 55 55 55 55 55 55 55 55 55 55 56 56 56 56 56 56 57 57 57 57 56 56 55 54 53 52 51 50 51 51 50 51 53
52 52 52 52 51 52 52 52 52 53 54 54 54 54 54 54 54 54 54 54 54 55 55 55 55 55 56 56 55 55 55 54 53 52 51 50 50 51 51 51 52 54
50 50 50 50 51 51 51 51 52 52 53 53 53 53 54 54 54 54 54 54 54 54 54 54 54 54 54 55 54 53 52 52 51 51 50 49 48 49 51 53 54 56
48 49 49 49 49 50 51 51 51 51 52 53 53 53 54 54 54 55 55 55 54 54 53 53 53 53 53 52 52 51 50 50 50 50 49 47 47 47 48 50 53 54
48 48 49 49 49 49 50 50 50 51 51 52 52 52 53 53 53 54 54 54 54 53 52 52 52 51 50 49 49 48 48 47 47 47 46 46 46 46 47 49 51 53

ECMWFNIL_500_spd_033.txt.gz
Wind_Speed
20 20 19 18 18 19 18 18 19 19 19 19 19 18 18 18 18 18 18 18 18 17 17 18 19 20 20 21 21 22 22 22 22 22 22 21 20 20 20 20 20 19
22 21 20 20 19 19 19 20 20 20 20 20 20 19 19 18 18 18 17 17 17 17 17 17 17 18 19 20 21 22 22 22 22 22 22 21 20 19 19 19 19 19
24 23 23 22 21 21 21 21 22 22 21 21 21 20 19 19 18 18 18 18 18 17 17 17 17 17 18 19 20 21 21 22 22 22 22 22 21 20 19 19 19 19
24 24 24 23 23 22 22 23 23 23 22 22 21 21 20 19 19 18 18 18 18 18 18 18 17 17 17 18 19 19 20 20 21 21 22 22 21 20 19 18 18 19
24 23 23 23 23 22 22 23 23 23 23 22 22 21 20 19 18 18 18 18 18 18 19 19 18 18 18 18 18 18 19 19 20 21 21 21 21 20 19 19 18 18
24 23 23 23 23 22 22 23 23 23 23 23 22 21 20 19 17 17 17 17 18 18 18 19 19 19 19 19 19 19 19 20 20 20 21 21 21 21 21 21 20 20
26 25 25 24 23 23 23 23 23 24 24 24 23 23 21 19 17 16 16 17 17 18 18 18 19 19 20 20 20 20 21 21 21 21 21 22 22 23 23 23 22 22
28 29 28 26 24 24 24 24 24 23 24 25 25 24 23 21 20 19 19 19 19 19 19 18 18 19 20 21 21 21 22 22 22 22 23 23 24 24 25 25 25 24
32 33 31 27 26 25 25 26 25 24 25 25 26 26 25 24 23 22 22 22 21 20 20 20 20 20 20 20 21 22 23 23 23 23 23 24 25 25 26 26 26 26
35 36 34 29 26 27 27 27 26 26 27 27 27 28 28 27 27 26 24 24 24 23 22 22 22 23 23 23 23 23 24 24 23 23 24 24 25 26 26 26 27 27
36 37 37 33 29 28 30 29 27 26 27 28 29 31 31 30 30 28 27 26 26 27 27 26 25 24 25 25 26 26 26 26 26 26 26 26 26 26 26 26 26 27
35 35 36 36 33 32 32 33 31 30 29 29 29 31 32 33 32 31 30 29 29 29 30 30 29 28 27 27 27 28 29 29 29 29 29 29 29 29 28 28 28 28
38 37 37 38 37 35 35 35 35 35 33 31 31 31 32 33 33 33 32 32 32 31 31 32 32 31 30 29 29 29 30 31 32 32 32 32 32 32 32 32 32 32
44 44 43 41 39 38 38 38 39 39 38 36 35 35 34 34 33 33 34 34 34 34 34 34 34 34 34 33 32 32 32 33 34 33 33 33 34 35 35 35 35 35
47 47 47 44 42 41 41 41 41 41 40 39 39 39 38 37 36 36 38 37 37 38 39 38 37 38 37 35 35 37 38 37 37 37 36 36 35 36 37 37 37 38
50 50 50 48 46 46 46 45 44 43 42 41 41 41 41 40 40 40 41 42 41 40 42 41 40 40 39 36 37 40 42 40 40 40 40 40 40 39 39 40 40 41
52 52 52 52 51 51 50 49 49 48 47 45 45 45 46 45 45 45 44 44 44 42 42 43 42 41 40 40 40 41 42 41 41 41 41 40 40 41 41 42 43 44
53 53 53 53 53 53 53 52 52 51 51 50 50 50 50 49 49 49 49 49 47 45 45 44 44 44 45 45 45 44 44 44 44 43 42 42 43 43 44 45 46 47
53 53 53 53 53 53 53 53 53 52 52 52 51 51 51 50 49 50 52 52 51 51 50 47 46 49 50 49 49 49 48 48 48 47 47 48 48 49 49 49 50 50
51 52 52 52 51 51 52 52 52 53 53 52 52 52 52 51 50 50 52 53 53 54 53 49 49 51 52 52 53 52 52 53 52 51 51 52 52 52 52 52 52 52
50 50 50 50 50 51 52 52 53 53 54 54 54 54 54 54 53 53 54 55 56 55 53 52 53 54 54 54 55 55 55 55 55 54 54 54 54 53 53 52 52 53
53 53 54 55 56 56 57 57 57 56 56 57 58 58 58 57 57 56 57 57 58 56 55 55 56 56 56 55 55 55 55 55 55 54 54 54 53 53 53 53 53 53
57 57 58 58 58 58 58 59 59 58 58 58 59 59 58 57 57 57 57 57 57 56 55 56 56 55 55 54 53 53 53 53 53 53 54 53 53 53 53 54 55 55
55 55 56 56 56 55 55 55 56 56 56 56 56 56 55 55 55 55 56 55 54 54 54 54 53 53 52 52 51 51 52 52 52 53 53 53 53 53 53 54 55 56
53 53 53 53 53 53 52 52 53 53 53 53 53 53 53 53 52 52 53 53 52 53 53 52 52 51 51 51 51 51 52 52 52 52 52 52 53 53 53 53 54 54
51 51 51 51 51 51 51 51 51 51 51 51 51 51 52 52 51 51 51 51 51 51 52 52 52 51 51 52 52 52 52 52 52 52 52 52 52 52 52 52 52 52

ECMWFNIL_500_spd_036.txt.gz
Wind_Speed
22 21 20 18 17 18 18 17 18 19 18 18 18 18 17 17 16 16 16 16 16 16 17 17 17 18 18 18 18 18 18 19 19 20 20 20 20 20 19 19 18 18
22 21 20 19 18 19 19 18 19 19 19 18 19 19 18 18 17 17 17 17 16 16 16 16 17 17 17 18 18 18 18 18 18 19 19 19 19 19 19 18 18 18
22 20 20 19 19 20 21 21 20 20 20 20 19 19 19 19 18 18 17 17 17 17 17 17 17 17 17 17 17 18 18 18 18 18 18 19 19 19 19 18 18 17
22 21 20 20 20 20 21 22 22 22 22 21 21 20 20 19 18 18 17 17 16 16 16 17 17 17 17 17 17 17 18 18 18 18 18 18 18 19 19 18 18 17
23 22 22 21 20 20 21 22 22 22 22 22 21 21 20 19 19 18 18 17 16 16 16 16 17 17 18 18 18 18 18 18 18 18 18 18 18 19 18 18 18 17
25 24 22 21 21 20 20 21 22 22 22 22 22 22 21 20 20 19 18 18 17 16 16 16 17 18 19 19 20 20 20 20 20 19 19 19 19 19 19 19 19 19
26 25 23 23 23 22 21 22 22 22 22 22 22 22 22 22 21 20 20 19 18 17 17 17 18 19 19 20 20 21 22 22 22 21 21 21 20 20 20 20 20 20
28 27 27 26 25 24 24 24 24 24 24 23 22 22 22 23 23 22 21 20 19 18 18 19 19 20 20 20 21 22 22 22 23 23 23 23 23 22 22 22 22 22
31 31 31 29 26 26 27 27 27 27 27 26 24 23 22 23 23 23 23 22 21 20 20 21 22 22 22 22 22 22 22 22 22 23 23 24 24 24 24 24 24 23
34 35 35 32 30 30 30 30 30 30 31 28 25 23 23 24 24 24 24 24 23 23 23 23 23 24 24 24 24 23 23 23 22 22 23 23 23 24 24 24 24 24
34 36 36 34 34 34 34 33 32 32 32 29 26 24 24 24 24 24 25 26 27 27 27 26 26 26 26 26 27 26 25 24 24 24 23 23 24 24 25 25 25 25
34 34 34 33 34 35 35 33 31 31 31 30 28 27 26 25 24 23 23 26 29 30 29 28 28 28 28 28 28 28 28 26 25 26 26 27 26 26 27 27 28 28
37 37 36 35 34 35 35 33 31 30 29 29 29 29 30 30 29 27 26 26 28 27 26 27 28 29 30 31 31 30 29 28 27 28 29 29 29 29 30 31 31 31
42 41 41 40 39 39 39 37 35 35 33 32 30 29 29 31 31 32 32 31 29 27 26 27 28 30 31 31 31 31 30 29 30 32 33 32 31 31 32 32 33 34
46 45 45 45 44 43 43 42 41 41 42 42 39 36 35 35 36 36 35 36 35 34 32 30 31 32 32 32 32 32 31 31 32 34 35 35 34 34 34 34 34 35
50 49 49 49 49 48 47 46 45 45 46 46 45 43 42 41 41 40 38 37 38 38 37 35 35 35 36 36 36 36 35 35 36 37 37 37 37 37 36 36 36 36
53 53 52 52 52 52 51 51 50 49 48 48 48 47 46 45 45 45 44 43 42 41 41 41 41 40 40 41 41 40 40 40 40 40 39 39 39 39 38 37 37 37
54 54 55 55 54 54 54 53 53 52 51 51 50 49 49 48 48 48 48 48 48 48 47 47 47 46 45 45 45 44 44 45 45 44 43 43 43 42 42 42 42 42
53 54 54 55 55 55 55 54 54 54 54 53 52 52 51 51 51 52 51 50 51 51 51 50 49 48 46 46 48 48 47 48 48 48 48 47 47 47 47 47 48 47
51 51 52 53 54 54 54 54 53 53 53 54 54 54 54 53 53 53 53 52 53 54 53 51 50 48 46 47 49 50 49 49 48 48 49 49 49 50 51 51 51 51
50 50 51 52 53 53 53 53 52 52 53 54 54 55 55 55 54 54 53 53 54 54 51 50 49 48 48 49 50 51 51 50 49 49 49 49 50 51 52 52 53 53
50 50 50 51 52 52 53 53 52 52 53 54 55 55 55 55 55 54 52 52 52 51 49 49 50 50 50 51 52 52 52 52 52 52 52 52 52 52 52 53 53 53
50 50 51 51 51 52 53 54 55 56 56 55 55 54 54 54 54 54 53 52 52 53 53 53 53 53 53 53 54 54 54 53 53 53 53 53 52 52 51 51 51 51
51 51 51 51 52 52 52 54 55 56 57 57 56 56 56 56 55 56 55 55 56 56 56 56 55 55 54 54 54 54 53 53 53 52 52 52 51 50 50 49 50 50
51 51 52 52 52 53 53 53 54 54 55 55 55 56 56 56 55 55 56 57 57 57 56 55 54 53 53 52 52 52 52 52 52 51 51 50 49 49 49 49 49 50
49 50 51 52 52 53 53 53 54 54 54 54 54 54 54 52 52 52 54 55 55 54 54 53 52 51 51 51 51 51 51 51 50 50 49 49 48 48 48 49 50 50

ECMWFNIL_500_spd_039.txt.gz
Wind_Speed
25 24 23 22 22 22 20 19 19 18 18 17 16 16 17 16 16 16 15 14 14 14 13 13 13 13 13 12 12 13 13 13 13 13 14 14 14 14 14 13 13 12
27 26 24 23 23 22 20 19 19 18 17 17 17 17 17 17 17 16 16 16 16 16 15 15 15 14 14 14 14 13 13 13 13 13 13 13 13 13 13 13 13 12
28 26 25 24 23 23 21 19 19 18 17 17 17 18 18 17 17 17 17 17 18 17 17 17 16 16 16 16 16 15 15 14 14 13 13 13 13 13 13 13 12 12
29 25 23 23 22 23 22 20 18 18 18 17 17 18 18 18 18 18 18 18 18 18 18 18 18 17 17 17 17 16 16 16 15 15 14 14 14 13 13 13 12 12
28 24 22 22 22 23 23 22 19 18 19 18 17 17 18 18 18 18 18 18 18 18 18 19 19 18 18 17 17 16 16 16 16 16 16 15 15 15 14 14 13 13
24 20 19 21 23 24 24 22 19 18 18 18 17 17 18 18 19 20 20 19 18 18 19 19 19 19 19 18 17 16 16 16 16 16 17 17 16 16 16 16 15 15
23 20 17 18 22 25 24 22 20 19 19 19 19 18 18 19 20 20 21 20 19 19 18 19 19 19 19 18 18 17 16 15 16 16 17 17 17 17 17 17 17 16
27 29 26 22 22 25 25 23 21 21 21 21 21 21 21 21 21 22 22 22 21 21 20 20 19 19 18 18 18 17 17 16 16 16 17 17 18 18 19 19 18 18
29 32 32 28 27 27 26 25 24 24 23 23 23 24 25 25 25 24 24 24 24 24 23 22 21 19 19 19 19 19 19 18 18 17 17 17 18 19 20 20 20 19
30 31 32 33 32 30 29 28 28 27 26 26 25 26 28 28 27 26 26 26 26 25 24 24 23 21 21 22 22 22 21 20 20 19 19 19 19 20 20 20 21 20
34 35 35 34 32 31 32 33 31 29 28 29 28 28 29 30 30 28 26 26 26 26 26 26 25 25 25 24 24 24 24 23 22 22 22 22 22 22 21 21 22 22
37 37 37 35 32 32 34 33 30 28 28 29 30 29 28 29 30 30 28 25 25 26 27 26 26 26 27 26 26 26 26 25 24 24 25 25 25 24 23 22 23 24
40 39 38 36 34 32 33 32 30 29 28 29 29 29 29 28 28 28 28 26 25 26 27 27 26 26 26 26 26 27 26 26 26 26 26 27 27 26 25 25 26 27
42 42 41 40 38 36 35 35 34 33 32 32 32 32 31 30 28 27 27 27 26 27 29 30 29 27 27 26 26 25 23 24 24 24 24 25 26 27 27 28 29 30
44 44 44 44 43 42 41 40 39 39 38 37 37 37 36 35 34 34 34 34 33 32 32 32 31 29 30 30 30 29 28 27 26 24 23 25 26 27 28 29 30 32
46 47 48 48 47 47 46 45 44 43 42 41 41 41 41 40 40 40 41 40 39 37 36 36 36 36 36 35 35 34 33 33 32 30 29 29 29 29 30 32 34 35
49 50 50 51 51 51 51 50 49 48 48 47 46 46 45 45 45 45 45 44 42 41 40 40 42 43 41 39 39 38 38 38 38 38 37 36 36 35 35 36 38 40
51 52 52 53 54 54 54 54 54 53 53 52 52 51 51 50 49 49 48 48 46 45 43 43 44 45 43 42 42 43 43 42 43 44 44 44 43 42 42 41 41 42
49 50 51 52 53 54 55 56 56 56 56 56 55 55 55 54 54 53 51 51 50 49 47 45 44 44 44 44 44 45 46 46 46 46 47 46 46 45 44 43 43 44
47 48 49 49 50 51 52 53 54 54 54 55 55 56 56 56 56 56 54 54 53 52 49 45 43 43 43 44 45 46 46 47 47 47 47 47 47 46 45 45 45 45
47 47 47 48 49 49 50 50 51 51 51 52 52 53 54 55 56 56 55 55 53 51 48 46 45 44 44 44 45 45 44 44 45 45 45 45 46 46 45 45 45 45
48 48 49 50 50 50 50 50 50 50 50 50 50 50 51 52 53 54 53 53 51 50 49 48 48 47 47 46 45 44 43 43 43 43 43 44 44 45 45 46 46 47
50 50 51 51 50 50 50 50 50 50 50 50 50 50 50 50 51 51 51 51 50 51 51 51 50 49 48 47 46 45 45 45 45 46 46 47 47 48 48 48 48 49
50 49 49 49 49 48 48 49 49 50 51 51 51 51 51 51 50 50 50 51 51 51 51 51 51 50 49 48 48 48 48 48 48 48 48 49 49 49 49 49 49 49
49 49 49 48 48 48 48 48 49 50 50 51 51 51 51 51 51 51 51 51 51 51 51 51 51 51 49 49 49 49 49 49 48 48 48 48 48 48 48 48 47 47
49 49 48 48 48 47 47 48 48 49 49 50 49 49 49 49 50 50 51 52 52 52 52 52 52 50 49 48 48 47 47 47 47 46 46 46 46 46 47 47 46 46

ECMWFNIL_500_spd_042.txt.gz
Wind_Speed
24 23 22 21 22 22 22 21 20 19 19 19 18 18 17 15 14 13 13 13 13 13 13 13 13 13 13 13 13 13 13 13 13 13 14 14 14 14 13 13 13 12
23 23 22 22 22 23 23 21 20 19 19 19 18 17 17 16 16 15 14 14 14 14 14 14 14 14 14 14 14 14 13 12 12 12 12 12 12 13 13 12 12 12
23 22 22 21 21 23 22 20 18 18 19 19 18 17 16 16 17 16 16 16 15 15 15 15 15 15 15 15 15 15 15 14 13 12 12 11 11 11 11 12 11 11
22 21 20 20 20 21 21 19 18 17 18 20 19 17 16 16 16 17 17 17 17 16 16 16 15 15 15 15 15 15 15 15 14 13 12 11 11 11 11 11 11 11
18 19 20 21 21 20 18 17 18 17 17 18 20 20 18 17 16 17 17 17 17 17 17 17 16 15 15 14 14 14 15 15 15 14 14 13 12 11 11 11 11 11
17 19 21 22 21 20 18 18 19 18 18 18 19 21 21 19 18 17 17 17 17 17 17 17 17 17 16 15 15 14 14 15 15 14 14 14 14 13 13 13 13 13
22 20 20 20 20 18 18 19 19 19 20 20 20 21 22 22 21 18 17 17 17 17 17 17 18 18 17 16 16 16 15 15 15 15 15 15 15 15 15 15 15 15
23 22 20 20 20 20 19 19 18 19 21 23 22 23 23 23 22 21 20 19 19 19 19 19 19 18 18 18 17 17 18 17 17 16 16 16 16 16 16 16 16 16
23 22 20 18 20 23 22 23 25 26 26 24 24 25 24 23 24 23 23 23 23 22 23 23 22 20 19 19 19 19 20 20 19 18 18 18 18 18 18 18 17 17
24 23 21 19 21 23 24 27 30 29 27 25 24 25 25 24 24 25 26 26 26 26 26 26 25 23 21 21 21 20 21 21 21 20 20 20 20 20 20 20 19 18
25 25 25 24 24 26 28 30 31 28 26 25 23 23 25 25 26 27 28 27 25 24 26 27 27 25 23 24 24 23 23 23 24 23 23 22 22 22 22 22 22 21
27 28 28 28 29 30 30 31 31 30 28 27 25 24 27 28 26 25 26 26 24 23 25 27 28 25 23 24 25 24 24 24 24 25 26 26 25 24 23 23 23 23
31 31 32 32 32 33 33 32 33 33 31 30 29 28 29 29 26 25 24 24 24 24 24 25 26 24 24 26 26 24 24 24 23 24 25 26 26 25 25 24 24 24
34 34 34 34 34 34 35 35 35 35 35 34 33 32 31 30 29 28 27 27 27 27 26 25 25 24 25 27 27 26 26 26 26 24 24 25 25 25 24 24 24 24
36 37 37 37 37 36 37 37 38 38 38 38 37 35 34 34 33 32 33 32 32 32 31 31 31 30 30 31 30 29 28 29 28 27 26 28 29 29 28 27 26 26
37 37 38 38 39 40 40 40 41 41 41 41 40 39 39 38 37 37 37 37 37 36 36 36 36 37 37 37 35 33 32 32 32 32 33 35 36 35 33 31 30 30
38 37 37 38 39 41 42 43 43 44 44 44 43 43 42 42 42 41 42 41 41 41 40 40 39 40 39 39 39 38 37 36 37 38 39 40 39 39 38 36 35 36
39 38 38 38 38 39 40 41 42 42 43 44 44 44 44 43 43 43 44 44 44 43 43 42 42 42 42 42 42 41 40 40 40 41 42 42 42 42 42 42 41 41
40 40 40 40 39 39 39 39 40 41 42 43 43 44 44 44 43 43 43 43 43 44 43 43 43 43 44 44 44 44 43 43 43 43 43 43 44 44 44 45 45 44
43 42 42 42 42 42 42 42 42 42 43 43 44 44 44 44 44 43 43 42 43 43 43 43 43 44 44 45 45 46 46 46 45 44 43 44 44 45 45 45 46 46
45 45 44 44 44 44 44 44 44 44 45 45 45 45 45 45 45 44 44 43 43 43 43 44 44 45 44 45 45 45 46 46 45 44 44 43 44 44 44 45 45 46
48 47 47 46 45 45 45 45 46 47 48 48 47 48 48 48 48 48 47 45 44 44 43 43 44 44 45 45 45 45 45 45 45 44 44 44 43 43 43 44 44 45
50 49 49 48 47 47 47 48 50 51 50 50 50 50 51 50 50 49 48 47 46 45 45 44 44 45 45 45 45 45 45 45 45 45 45 44 44 43 43 43 43 44
51 51 51 50 50 49 50 51 52 52 51 51 51 51 51 50 49 48 48 47 47 47 46 46 46 46 46 46 45 45 45 45 45 45 45 45 45 44 43 43 44 44
53 53 52 52 52 52 52 52 52 51 50 50 51 50 49 49 48 48 48 48 48 48 47 47 47 47 47 47 46 46 46 46 45 45 45 45 44 44 43 44 44 45
53 53 53 53 54 54 54 53 52 51 50 50 49 49 49 48 48 47 47 48 48 48 48 47 46 46 46 46 46 46 46 46 45 45 45 45 45 44 44 44 44 45

ECMWFNIL_500_spd_045.txt.gz
Wind_Speed
22 21 20 19 18 17 17 18 18 18 18 19 19 18 18 17 17 16 16 16 15 14 13 12 11 11 11 11 11 12 12 13 14 15 16 17 17 18 18 18 18 18
24 25 22 19 17 18 17 18 18 18 18 19 19 19 18 17 17 17 17 16 15 14 13 12 11 11 11 11 11 11 11 12 13 14 14 15 16 16 16 17 17 17
24 23 21 18 18 18 17 17 18 18 17 18 19 19 19 18 17 17 17 16 16 15 14 13 12 12 11 11 11 11 11 11 12 13 13 14 15 15 15 16 16 16
21 19 18 17 17 16 16 17 19 18 17 17 19 19 18 18 18 17 17 16 16 16 15 14 14 12 12 11 12 12 12 12 12 13 13 14 14 15 15 15 15 16
20 18 15 13 14 15 17 18 19 18 17 16 17 18 18 18 19 19 18 17 16 16 15 14 13 13 12 12 12 12 12 13 13 14 14 14 15 15 16 16 16 16
17 16 13 13 16 18 19 19 19 19 18 16 16 16 17 19 20 20 19 17 16 15 14 12 11 12 13 13 13 13 13 13 14 14 15 15 15 15 16 16 16 17
16 17 17 18 18 17 19 20 19 19 18 16 16 15 16 18 20 20 19 17 16 14 13 12 11 11 12 13 14 15 15 15 15 15 16 16 17 16 16 16 16 16
17 19 19 18 17 17 18 18 17 18 17 16 17 18 19 21 23 22 19 16 15 14 14 13 12 13 13 14 15 16 17 17 18 18 18 18 18 17 17 16 16 15
17 19 20 20 20 18 17 16 16 17 17 18 20 22 24 25 26 24 21 20 19 18 17 17 16 16 16 17 17 17 18 19 19 19 19 19 19 19 19 18 17 17
19 21 21 21 20 18 18 18 18 18 19 20 23 23 24 25 25 26 26 25 23 22 21 21 19 18 18 18 18 18 19 20 20 20 20 20 20 20 20 20 19 19
18 17 17 18 19 19 19 19 19 19 20 22 23 23 23 23 22 22 24 24 23 23 24 23 22 20 20 20 20 19 19 20 20 20 20 21 22 21 22 22 22 22
20 19 20 21 22 22 21 20 20 21 22 23 25 25 25 24 22 20 21 21 21 22 23 24 24 23 21 20 20 19 19 20 20 20 20 21 21 21 22 22 24 25
22 22 23 23 22 21 22 22 22 23 24 26 27 27 25 23 22 22 24 25 25 24 23 24 25 24 21 20 19 18 18 20 20 21 21 21 21 21 21 21 21 22
24 22 22 23 22 21 22 23 23 24 26 27 29 29 27 24 24 25 27 28 28 28 27 26 26 24 22 22 22 21 21 21 22 22 22 22 23 23 23 23 23 21
27 25 23 24 25 24 24 24 25 25 26 28 29 30 29 28 29 30 30 31 30 29 29 29 28 27 26 26 26 26 26 25 26 27 27 28 28 28 28 28 28 27
31 28 27 28 29 28 27 27 29 30 30 30 30 30 29 30 31 32 32 31 31 31 32 33 31 30 30 30 30 30 30 29 30 32 33 33 33 33 33 32 33 33
34 33 33 32 31 30 30 31 32 33 33 33 32 32 32 32 33 34 33 32 33 34 34 35 34 33 33 33 33 33 33 33 34 34 35 34 35 35 36 36 36 37
37 37 36 35 34 34 34 34 34 34 35 35 35 35 35 35 35 36 36 36 37 37 36 35 35 36 36 35 36 36 36 36 36 36 36 36 36 36 36 37 38 39
39 39 38 38 38 38 37 37 37 36 36 37 37 37 37 37 37 38 38 38 38 38 38 37 37 37 37 38 38 38 38 38 38 39 39 39 39 40 40 40 41 42
41 41 41 41 41 40 40 40 39 39 39 39 39 39 39 39 39 39 39 39 39 40 40 40 39 39 39 39 39 39 40 40 40 41 42 42 42 43 43 43 43 44
44 44 43 43 43 42 42 41 41 41 41 41 41 41 41 41 41 40 40 40 41 42 43 43 42 42 42 42 42 42 42 42 42 42 43 43 43 43 43 44 44 44
46 46 46 45 45 44 44 43 43 43 43 43 43 42 42 42 42 42 42 42 43 45 46 46 46 45 45 45 44 44 44 43 43 44 44 44 43 43 44 44 44 45
46 47 47 48 48 47 46 46 45 45 45 45 44 44 44 44 44 45 45 46 47 47 48 48 48 47 47 46 46 45 44 44 44 44 44 44 44 44 44 44 44 44
47 48 50 50 50 50 49 47 46 46 46 47 47 47 47 47 48 48 49 50 50 50 49 48 48 48 47 46 46 45 45 44 44 44 44 44 44 44 44 44 44 44
49 49 49 50 50 49 48 47 46 46 47 48 49 50 50 50 50 51 52 52 52 51 50 50 49 48 48 47 46 46 45 44 43 43 43 43 44 44 44 44 44 44
50 48 47 47 48 47 45 45 46 48 49 50 50 51 51 51 52 52 53 53 53 52 51 50 50 49 48 47 46 45 45 44 43 42 42 42 42 43 43 43 44 44

ECMWFNIL_500_spd_048.txt.gz
Wind_Speed
20 19 17 15 14 14 14 15 16 18 19 19 20 20 20 20 19 17 16 16 16 16 16 16 15 15 14 14 14 14 14 14 14 14 13 13 13 14 14 14 15 15
17 16 15 16 19 18 15 14 15 17 19 19 20 20 19 18 17 16 15 15 15 15 15 14 14 14 14 14 14 14 14 14 14 14 13 13 13 12 12 12 12 13
13 14 16 18 19 16 14 14 15 17 19 19 19 19 19 18 15 14 13 13 13 13 13 14 14 14 14 14 15 15 15 15 14 14 14 13 13 13 12 12 12 12
15 16 17 18 18 16 14 14 15 16 18 18 18 17 17 17 14 12 12 12 12 12 13 14 14 15 15 15 16 16 16 16 15 15 14 13 13 13 13 13 12 12
14 14 15 16 16 15 14 14 14 16 18 19 18 17 17 15 13 12 12 12 11 12 12 14 15 16 17 17 17 17 17 17 16 15 14 14 13 13 13 14 13 13
13 12 13 13 13 12 12 13 14 16 18 18 18 17 17 16 13 12 12 12 11 12 13 14 14 15 16 17 17 17 17 17 16 16 15 14 14 13 14 14 14 15
12 12 12 12 12 13 14 15 15 16 17 17 16 16 16 15 13 12 12 12 13 13 13 13 14 14 15 15 16 16 16 16 16 16 16 16 15 15 15 15 15 16
14 14 14 14 14 15 15 15 15 16 15 15 15 15 15 14 13 12 13 15 16 15 13 12 13 14 14 14 14 14 15 15 16 17 17 17 18 17 17 17 16 16
14 14 15 15 15 15 16 16 16 16 15 14 14 14 14 14 15 15 16 17 17 16 16 15 15 15 16 16 16 16 17 17 17 17 17 18 19 19 19 19 19 18
14 14 14 14 14 16 17 16 15 15 15 15 15 14 16 17 18 18 17 17 17 16 17 19 19 19 19 19 19 18 18 19 19 18 18 18 20 20 20 20 20 20
16 15 15 14 14 14 15 15 14 15 16 16 16 17 18 19 20 19 18 18 18 17 16 18 18 19 19 20 21 20 19 20 20 20 20 19 20 21 21 21 21 22
17 17 16 15 14 15 17 18 17 16 16 16 17 18 19 21 21 21 20 19 19 19 18 18 18 18 19 20 20 20 20 20 20 21 22 22 21 20 21 22 22 23
19 18 17 17 16 17 18 19 18 16 15 16 17 19 20 22 23 22 20 18 19 20 21 20 21 23 22 22 21 21 21 21 19 20 22 23 21 21 20 21 22 23
21 21 21 21 20 19 19 19 19 17 15 16 18 20 20 21 22 23 21 20 20 22 23 23 24 25 26 26 25 23 23 22 20 21 23 22 21 21 22 22 23 23
24 25 26 26 25 23 21 21 21 21 20 21 21 21 22 22 22 23 23 23 24 25 25 26 27 27 28 28 27 27 27 27 25 25 25 24 24 24 24 25 25 26
30 30 31 30 29 27 26 26 25 26 26 25 24 23 24 24 24 24 25 25 26 27 28 29 29 30 30 30 30 30 29 29 29 29 29 29 29 29 29 29 29 30
34 34 35 34 33 32 31 29 28 27 27 27 26 26 25 26 26 27 27 28 29 30 30 30 30 30 31 31 32 32 31 30 32 33 34 33 33 33 33 33 34 35
37 37 37 37 36 35 35 33 31 30 29 30 30 29 28 28 29 29 30 30 31 31 31 31 31 31 33 33 33 33 33 34 34 35 35 35 34 35 35 36 37 38
41 41 40 39 38 37 36 35 34 34 33 33 33 32 32 31 31 32 32 33 33 33 33 33 33 33 35 35 35 34 33 34 34 34 35 35 35 35 36 37 38 39
44 43 42 41 40 38 36 36 37 37 37 37 36 35 34 34 34 34 34 34 34 35 35 35 35 36 36 37 37 36 35 35 35 35 35 36 37 37 37 38 39 40
43 43 43 43 42 40 40 41 42 42 42 41 40 39 38 37 36 36 36 36 36 37 38 38 38 39 39 39 40 40 39 39 38 37 37 38 38 39 39 40 40 41
44 45 45 45 44 44 44 44 43 43 43 42 41 41 40 39 39 39 39 39 39 40 40 41 41 41 41 42 42 42 42 42 41 41 40 40 40 40 40 41 41 42
41 41 41 40 41 42 42 42 42 42 42 42 42 42 42 42 42 42 42 42 42 42 42 43 43 43 43 43 43 43 43 43 43 43 43 42 42 41 41 41 41 41
37 37 37 37 38 39 40 41 41 42 42 43 44 44 44 45 44 44 44 44 44 44 44 44 45 45 45 45 45 45 45 45 45 45 45 44 44 43 43 42 42 42
35 35 35 37 39 41 42 43 44 45 46 47 47 46 46 46 46 46 45 45 44 44 44 45 46 47 47 47 47 47 47 47 47 47 46 46 45 45 45 44 44 43
33 33 34 35 36 37 39 42 45 48 48 49 48 48 47 46 45 46 45 45 44 44 45 46 47 47 47 47 48 48 48 48 47 47 46 46 46 45 45 45 45 44

ECMWFNIL_500_spd_051.txt.gz
Wind_Speed
17 17 16 16 16 16 17 18 18 20 22 24 21 17 15 14 14 14 14 14 15 16 18 19 19 19 19 19 20 20 21 21 22 22 21 21 19 18 17 16 15 15
17 17 17 17 16 15 16 18 20 22 24 25 23 18 15 14 13 12 12 13 14 15 16 16 17 17 18 18 19 19 19 20 20 21 21 20 19 18 16 15 14 14
16 15 14 13 13 14 15 18 20 22 24 24 23 20 17 15 14 12 12 13 13 13 14 15 15 16 16 16 17 18 18 19 19 20 20 20 19 18 16 15 14 13
15 15 14 13 14 15 17 19 20 21 22 23 23 21 18 16 14 13 12 13 13 13 13 14 14 15 15 16 16 17 17 18 18 19 19 20 19 18 17 16 14 14
17 16 15 15 15 15 16 18 19 19 20 21 21 20 18 17 15 14 13 14 14 13 13 13 14 14 15 15 16 16 17 17 17 18 18 18 19 18 17 16 15 14
16 15 14 14 14 13 14 15 17 19 20 19 19 20 20 19 17 15 14 13 13 11 11 12 13 14 15 15 15 15 15 15 15 16 16 16 16 17 17 16 16 15
15 14 13 13 13 13 14 14 17 18 18 18 19 20 20 18 16 15 14 13 12 10 10 11 13 15 16 16 16 15 15 15 15 14 14 15 15 15 15 16 16 16
15 14 13 14 14 14 15 16 18 19 19 18 19 19 19 17 15 15 14 14 13 12 11 11 12 13 14 15 15 15 15 15 15 15 14 14 15 15 16 16 16 17
15 14 15 16 16 17 17 18 20 21 20 20 20 19 19 18 16 16 16 17 16 14 13 12 12 13 13 14 15 16 16 16 16 16 16 16 16 16 17 18 18 18
15 15 15 16 17 17 18 18 19 20 20 21 21 20 19 18 18 18 18 18 17 16 15 14 14 15 16 16 17 18 19 19 19 19 19 19 18 18 18 19 19 20
15 15 16 17 17 17 17 16 17 18 20 21 20 20 19 19 19 19 19 19 18 18 17 17 17 17 17 17 17 18 19 20 21 21 22 21 20 20 20 20 21 21
16 16 16 17 18 17 16 15 15 16 18 19 20 21 21 19 19 20 20 19 19 20 20 21 21 20 19 19 18 18 19 19 20 21 22 23 23 23 23 23 23 23
18 17 17 17 18 17 16 15 14 15 17 20 21 22 21 20 19 20 21 21 21 22 23 23 22 21 21 21 21 21 21 20 20 20 21 22 23 24 24 24 24 24
21 19 17 17 17 18 18 17 16 16 17 19 20 21 21 20 20 20 21 22 23 23 23 23 22 22 22 22 22 23 23 23 23 24 23 23 24 24 24 24 24 24
24 21 19 18 18 19 20 20 20 19 19 20 21 22 22 22 22 22 23 23 24 23 23 23 22 22 23 23 24 25 26 27 27 27 27 27 26 26 26 27 27 27
27 24 22 21 20 20 22 23 24 23 22 21 22 23 24 25 27 27 26 26 26 25 25 25 25 25 24 25 26 27 29 30 30 31 30 30 29 29 30 31 31 30
27 26 25 25 24 25 25 26 27 27 26 24 24 26 28 30 31 30 29 28 28 28 28 28 28 28 28 28 28 29 30 31 32 33 34 32 31 31 32 32 32 32
28 28 28 29 29 29 29 30 30 30 29 29 29 30 31 32 32 32 32 31 31 30 30 30 31 31 31 31 31 32 32 32 33 34 34 34 33 33 33 34 34 35
34 33 33 33 33 33 34 35 33 32 33 34 34 33 33 33 33 33 33 33 33 33 33 33 33 33 34 34 34 34 34 35 34 34 34 34 34 34 35 35 35 36
39 39 38 38 38 39 39 39 38 38 38 38 37 36 36 36 35 35 35 35 36 36 36 36 36 36 36 36 36 36 36 36 36 35 35 35 35 35 35 35 36 36
41 41 41 42 42 42 42 41 41 41 41 40 39 38 38 37 37 36 36 36 37 38 39 39 39 39 39 39 40 40 39 38 37 36 36 35 35 36 37 38 38 38
42 43 43 43 43 42 42 42 41 41 41 41 41 41 40 39 39 38 38 39 40 41 41 41 41 41 41 42 42 42 42 41 39 38 38 37 37 38 39 40 41 41
37 40 41 41 41 41 41 41 41 42 42 43 43 43 43 42 42 42 42 42 43 43 43 43 43 42 42 43 43 43 43 42 41 40 40 40 41 41 41 42 42 42
31 32 35 36 37 38 39 40 40 41 42 42 43 43 43 43 43 43 43 43 42 43 43 43 43 43 43 43 44 44 43 43 43 42 42 42 42 43 43 43 43 43
34 31 32 33 33 34 35 36 36 38 39 41 41 41 41 41 42 42 41 41 40 41 42 43 44 44 44 44 44 44 44 44 43 42 42 42 43 44 44 44 44 44
41 37 36 35 35 34 34 33 34 36 39 40 41 42 43 43 43 43 42 41 41 42 44 45 45 45 44 43 43 43 43 44 43 43 43 44 45 46 46 46 45 45

ECMWFNIL_500_spd_054.txt.gz
Wind_Speed
20 19 19 19 18 18 18 19 20 19 19 18 16 16 15 16 17 18 19 20 20 21 21 21 21 20 20 19 18 17 17 16 16 16 16 16 16 16 17 17 17 17
21 20 20 20 19 19 19 20 20 19 19 18 18 18 18 17 16 16 18 19 20 21 21 22 22 21 21 20 20 18 17 16 15 15 15 15 15 15 16 16 17 17
23 21 21 21 21 21 22 22 22 21 21 21 21 21 20 17 15 15 17 19 20 21 21 22 22 22 21 21 20 19 18 16 15 14 14 14 14 15 15 16 16 16
23 21 21 21 22 23 24 24 24 24 24 23 23 23 20 16 14 15 16 18 19 21 21 21 21 21 20 20 19 19 18 17 17 16 15 14 14 14 14 15 15 15
23 21 21 21 21 22 22 23 24 24 24 24 24 23 19 16 14 14 15 17 18 20 21 21 20 20 19 18 18 18 18 18 18 17 17 17 16 16 15 14 14 14
24 22 22 22 21 22 22 23 24 24 24 25 25 23 20 17 15 14 15 17 18 20 21 20 20 19 19 18 17 17 18 18 18 18 18 18 18 18 17 16 15 14
25 24 24 23 23 24 24 24 25 24 24 24 24 23 21 18 15 14 16 17 19 20 20 20 20 20 18 18 17 17 18 18 17 17 17 17 17 18 18 17 16 16
24 24 24 23 24 24 24 23 23 23 23 24 23 23 21 18 16 15 16 17 18 19 20 21 21 18 17 17 17 18 18 17 16 16 16 16 16 16 17 17 17 17
22 24 24 25 25 24 23 22 22 22 23 23 23 23 21 19 17 17 17 17 17 18 21 22 20 17 16 16 16 17 17 16 16 16 16 16 16 17 17 17 18 18
23 25 26 26 25 24 23 22 22 22 23 23 23 23 22 20 19 19 18 18 18 18 20 22 21 18 17 17 16 16 17 17 17 18 18 19 19 19 19 19 20 20
25 27 27 26 25 24 23 23 22 22 23 24 24 23 22 21 21 22 21 20 19 19 20 22 23 22 21 19 18 17 18 19 20 21 21 22 22 22 22 22 22 22
26 26 25 24 24 24 24 23 22 21 22 23 23 23 24 24 24 23 22 21 20 21 22 23 24 23 22 21 20 20 20 21 22 22 22 22 23 23 24 24 24 24
25 24 24 24 25 25 25 25 23 22 22 22 23 24 25 26 26 24 22 22 22 22 24 24 24 23 23 23 23 23 24 24 24 24 23 23 22 23 23 24 24 25
24 24 25 26 26 27 27 26 26 25 25 24 24 24 25 26 25 24 24 24 24 24 24 24 24 24 24 25 25 25 25 25 25 26 26 25 24 24 24 24 25 25
26 26 27 28 28 28 29 28 28 27 27 27 25 24 25 25 25 24 24 24 24 24 23 23 23 24 24 25 25 26 26 26 27 27 27 27 27 27 27 28 28 27
25 26 28 30 31 32 32 31 31 30 30 30 29 26 25 25 23 23 24 24 24 24 23 24 24 25 26 26 27 27 27 28 28 28 29 29 30 30 30 30 30 30
26 26 27 30 33 35 35 35 34 32 30 30 29 27 25 25 23 24 25 27 27 27 27 27 28 29 30 30 30 30 30 30 31 31 31 32 32 33 33 33 33 33
30 29 29 29 31 35 37 37 36 34 32 31 30 29 29 28 27 27 29 30 31 31 31 31 32 32 33 34 34 34 34 34 34 35 35 35 35 35 36 36 37 37
33 32 32 31 31 33 36 37 38 37 36 35 33 33 33 32 31 32 33 33 33 33 34 35 35 36 37 38 38 38 38 38 38 38 38 38 37 37 37 38 38 39
38 37 36 36 35 35 36 37 38 38 38 38 37 35 34 34 34 35 34 34 35 36 37 38 38 39 40 41 41 41 41 40 40 40 40 40 39 39 39 39 39 40
40 41 41 41 41 41 41 41 41 41 41 41 41 39 38 37 37 37 37 38 39 40 41 42 42 42 43 44 44 43 42 42 41 41 41 41 41 41 41 41 41 42
40 41 42 43 44 44 45 45 45 45 44 44 44 44 44 44 44 44 44 45 44 43 43 43 44 44 45 45 45 44 43 43 43 43 42 42 42 42 43 43 43 44
34 35 36 37 39 41 43 44 45 46 46 45 45 46 47 47 47 47 47 47 46 44 43 43 43 43 44 45 44 44 44 45 45 44 43 43 43 43 43 44 45 46
34 33 33 34 35 36 38 40 41 43 44 45 45 46 46 46 46 46 46 46 46 45 45 44 44 44 45 46 46 46 46 46 45 44 43 42 41 42 43 44 45 46
37 37 37 37 37 37 38 38 39 40 40 41 42 43 44 44 44 44 45 46 46 46 46 46 46 46 46 47 48 48 46 43 42 41 41 42 43 44 44 44 45 45
41 41 42 42 41 39 39 39 41 41 40 39 40 41 41 41 42 44 45 46 46 46 45 45 45 44 44 45 45 44 41 39 39 41 42 43 45 46 44 43 43 43

ECMWFNIL_500_spd_057.txt.gz
Wind_Speed
29 27 24 23 23 22 22 20 18 17 16 16 17 16 15 14 14 15 15 16 17 18 19 19 19 19 19 20 20 21 21 21 21 21 20 19 18 17 17 16 15 15
28 29 27 25 24 23 22 21 19 18 17 17 18 18 17 17 17 17 17 17 18 18 19 19 19 19 20 20 21 21 22 22 22 21 20 20 19 18 17 17 16 15
29 29 28 26 25 24 23 22 20 19 18 19 20 20 20 20 19 18 18 18 19 19 19 19 19 20 20 21 21 22 22 22 22 21 20 20 19 19 18 17 16 15
29 29 29 27 25 25 24 23 22 21 21 21 22 22 23 23 22 20 20 20 20 20 20 20 20 20 20 20 21 21 22 22 22 21 20 19 19 18 17 17 17 16
29 30 29 27 25 25 26 26 24 23 23 24 25 25 25 25 24 23 22 21 20 20 21 21 21 20 20 20 21 21 21 21 21 20 20 19 18 18 17 17 16 16
30 31 31 27 25 26 27 27 27 26 26 26 26 26 25 25 25 24 24 23 21 21 21 21 21 21 20 20 21 21 21 21 20 20 19 19 19 18 18 17 17 16
33 32 32 29 26 27 28 29 29 28 27 26 25 24 24 25 25 26 25 24 23 22 22 22 21 21 21 20 21 20 20 19 19 19 19 19 19 19 19 18 18 17
36 34 34 31 28 27 28 29 29 28 26 25 24 25 25 25 25 25 25 24 23 22 21 21 21 21 21 20 20 19 19 18 18 18 19 19 19 19 19 18 18 18
33 34 35 32 30 29 30 30 30 28 27 26 26 26 26 25 24 24 24 24 23 22 22 21 21 21 20 20 20 19 18 17 16 16 17 17 18 17 17 18 17 17
30 34 35 34 33 32 31 31 30 29 28 27 27 27 26 25 24 24 24 24 24 24 23 22 22 21 21 21 21 20 18 17 17 17 17 17 18 18 18 19 18 18
29 33 33 33 32 31 30 30 30 29 29 28 27 28 27 26 26 26 26 27 27 26 25 25 24 23 23 23 23 21 19 19 19 19 19 19 20 20 20 21 21 21
25 28 29 29 28 28 28 29 30 30 30 29 29 29 29 28 28 28 29 29 30 29 29 28 27 26 25 25 25 24 23 22 21 21 21 22 22 22 22 22 22 22
25 27 29 29 29 28 29 29 30 30 31 31 31 31 30 30 30 31 31 32 31 30 29 29 28 27 26 25 26 26 25 24 24 24 25 25 25 25 25 25 24 23
22 24 26 27 27 28 28 29 30 30 31 31 32 32 31 31 31 32 33 32 31 29 29 29 28 26 25 26 26 26 25 25 25 25 25 26 26 27 27 27 27 26
18 20 23 25 26 26 26 27 29 30 31 31 31 31 30 30 30 31 32 32 32 31 31 31 29 27 27 27 26 26 26 25 25 26 25 24 25 26 27 28 28 29
21 23 24 24 24 24 25 27 28 29 30 30 30 30 29 29 31 30 27 27 31 33 33 33 32 31 30 29 27 27 26 24 22 24 25 25 26 27 27 27 28 28
26 25 23 22 22 24 26 28 29 30 31 32 31 31 31 30 32 33 30 26 27 30 33 34 34 33 32 31 29 29 28 27 25 24 26 28 28 28 29 28 28 29
28 27 26 26 26 27 29 31 32 33 34 34 33 33 33 33 34 36 35 33 30 29 32 34 33 32 32 32 32 31 31 31 30 29 29 30 30 30 32 33 33 34
31 31 31 31 31 32 33 33 34 34 34 34 33 34 35 36 36 36 37 38 37 35 35 36 34 33 33 34 35 34 34 34 34 33 33 34 34 35 37 37 37 38
34 34 34 35 35 36 36 36 36 36 35 35 36 36 36 37 38 38 38 39 39 38 38 38 37 36 36 37 37 37 37 37 37 37 38 39 39 40 40 40 41 41
37 37 38 38 38 38 39 40 40 40 39 39 38 39 39 39 39 39 40 40 40 41 41 40 39 38 38 39 40 39 39 39 39 40 41 42 43 43 43 44 44 43
39 40 41 41 41 42 42 43 44 44 43 43 43 43 43 42 42 42 43 44 44 45 45 45 43 41 40 40 41 42 42 43 44 44 45 45 46 46 46 46 46 46
39 40 41 42 43 43 44 45 46 46 46 47 47 47 46 46 45 45 45 46 46 47 47 47 46 45 44 44 45 46 48 49 48 46 46 47 47 47 48 49 49 48
38 39 40 41 42 43 44 45 46 47 48 49 48 49 49 49 49 49 49 48 48 48 49 49 49 49 49 49 50 50 50 50 49 47 46 47 47 46 46 48 49 48
33 34 35 37 39 40 41 43 44 45 46 45 44 44 44 45 46 47 47 47 47 48 48 49 49 50 50 51 51 51 50 50 49 49 49 48 48 47 47 48 49 49
35 35 35 35 36 37 38 40 41 41 40 39 38 38 38 40 41 42 42 43 44 45 46 46 48 49 50 50 50 50 50 50 50 50 50 50 50 49 48 47 47 48

ECMWFNIL_500_spd_060.txt.gz
Wind_Speed
19 17 18 21 24 26 26 24 21 20 20 21 20 18 18 19 19 17 15 15 15 14 14 14 14 15 16 16 15 15 14 14 14 15 15 16 17 18 18 19 19 19
19 18 19 21 23 24 24 23 22 21 21 21 20 19 19 20 20 19 17 16 16 16 16 16 16 17 17 17 17 16 15 15 15 15 15 16 17 18 18 19 19 19
23 24 24 23 24 24 23 23 23 22 22 22 21 20 20 21 21 20 19 18 18 18 18 18 18 18 18 18 18 18 17 16 16 16 17 17 17 18 18 19 19 19
23 26 26 25 25 26 25 25 24 23 23 23 22 21 21 22 21 21 20 20 19 19 19 19 19 19 19 19 19 19 18 18 18 18 18 18 18 18 18 18 18 18
23 25 27 27 27 27 27 26 25 25 25 24 23 22 23 23 22 22 22 21 20 21 21 20 20 20 19 20 20 19 19 19 19 19 18 18 18 18 17 18 18 18
25 26 27 28 29 29 28 26 26 26 26 26 25 24 24 25 24 24 23 23 23 22 22 21 20 20 20 20 20 20 20 19 19 19 19 18 18 18 17 17 18 18
24 26 28 29 30 30 28 26 27 28 27 27 27 25 26 26 26 24 23 23 23 22 21 21 21 21 21 21 21 20 20 19 19 19 19 19 18 18 18 17 18 18
22 24 26 30 32 31 28 27 27 28 28 27 27 27 26 26 26 24 23 22 21 21 21 21 21 21 21 21 21 21 20 20 20 19 19 18 18 18 17 17 17 17
23 22 23 28 34 33 29 27 28 30 29 28 28 27 27 26 26 24 23 22 22 22 21 21 21 21 21 22 22 22 22 21 20 19 18 18 17 17 16 16 15 15
22 22 23 26 32 32 29 29 30 32 31 29 29 29 28 28 27 26 26 25 24 23 22 21 22 21 22 22 22 22 22 22 21 20 19 18 17 16 15 15 15 15
19 21 24 25 28 27 28 32 33 34 33 31 31 31 30 30 28 27 27 26 26 24 22 22 22 23 23 23 23 22 22 22 21 21 21 21 19 18 18 18 18 18
14 17 19 21 23 24 28 33 34 33 32 32 32 32 31 30 29 28 27 27 26 24 23 23 24 25 24 24 23 23 23 23 22 21 22 22 21 20 20 20 21 21
12 13 14 18 21 22 25 29 31 31 31 31 31 31 30 29 29 28 28 28 26 25 24 24 25 26 25 24 25 25 24 24 23 23 24 24 24 22 21 20 19 19
10 12 13 18 22 23 23 25 27 29 30 30 30 30 29 30 29 28 28 27 26 26 25 24 25 25 26 27 26 25 24 24 25 25 25 26 25 23 23 21 18 17
10 12 14 17 19 21 23 24 24 25 26 25 26 28 28 28 28 27 27 27 28 28 26 26 24 22 24 28 28 27 26 25 26 27 27 27 26 25 25 25 24 23
13 14 15 15 16 18 22 24 24 23 22 21 22 24 25 27 27 27 27 28 29 29 28 27 25 22 25 28 29 30 29 26 27 28 28 28 28 28 28 27 27 27
14 14 15 15 16 18 20 22 22 22 22 22 22 22 23 25 26 26 27 27 28 29 29 27 25 25 27 28 27 28 29 29 30 31 31 30 30 30 29 27 25 24
16 17 18 18 19 21 22 24 24 24 24 25 24 24 24 24 25 25 26 28 29 30 31 30 28 28 30 31 29 27 27 29 30 32 32 31 30 31 30 29 28 28
19 19 20 21 21 22 23 24 24 25 26 27 26 27 26 26 26 26 26 28 29 31 33 33 33 32 34 35 34 31 29 30 31 32 32 32 32 32 32 33 34 34
22 21 22 23 24 24 25 26 27 28 29 30 30 29 29 29 29 29 28 29 30 32 34 36 36 35 35 35 35 35 34 33 33 33 33 33 34 34 36 37 38 37
30 29 28 29 30 31 32 33 33 32 33 34 34 34 33 33 32 31 31 32 33 35 36 38 38 38 37 35 34 34 34 33 33 34 35 36 37 38 40 40 41 40
38 37 35 35 36 37 38 38 37 36 36 37 37 38 37 36 35 34 34 35 37 38 39 41 41 41 40 39 38 39 38 38 37 37 38 39 40 42 44 44 44 43
39 40 40 39 40 41 41 41 40 40 39 39 40 41 40 40 39 39 38 38 39 40 42 43 44 44 44 43 42 43 43 43 43 42 41 42 42 44 45 46 46 46
36 37 38 38 40 41 41 42 42 42 42 42 42 43 43 43 44 44 43 41 42 43 44 44 45 46 46 46 46 46 46 46 46 45 45 45 44 45 47 48 49 50
34 35 37 38 38 38 39 41 42 43 43 44 44 44 44 45 45 45 45 44 44 44 45 46 46 47 48 48 48 47 46 46 45 44 45 45 44 44 46 48 49 49
34 34 35 36 37 37 38 40 41 42 43 43 43 43 43 43 43 43 42 42 43 44 46 47 47 46 45 45 44 44 44 44 43 43 43 45 45 44 44 45 46 46

ECMWFNIL_500_spd_063.txt.gz
Wind_Speed
10 12 13 14 14 14 13 14 17 19 22 22 20 18 18 18 18 17 18 19 18 16 14 13 12 12 12 11 11 11 10 9 9 8 8 7 7 8 8 9 9 10
11 12 13 14 14 14 13 14 16 19 21 22 20 19 19 19 18 17 18 20 19 17 15 15 15 15 14 13 13 12 11 10 9 8 8 8 8 8 8 8 9 9
11 12 14 15 17 17 16 16 17 18 20 22 22 22 21 21 19 18 18 19 20 18 17 17 17 17 17 16 14 13 12 10 10 9 8 8 8 8 8 8 8 9
12 13 14 16 18 20 21 21 20 20 21 22 23 24 23 22 20 19 18 19 19 19 18 19 19 19 18 17 15 14 12 11 11 10 9 9 8 8 8 8 8 8
15 15 16 17 19 20 22 23 23 22 22 23 25 26 25 23 22 20 19 19 19 19 20 20 20 20 19 18 17 15 14 13 12 11 11 10 9 9 8 8 8 8
15 15 16 18 20 21 22 22 23 23 23 24 26 27 27 25 23 21 20 20 20 20 21 21 21 21 20 18 17 16 15 14 13 13 13 12 11 11 10 9 9 9
17 16 16 17 20 21 21 22 23 24 25 25 26 28 29 27 25 23 22 21 21 21 21 21 21 20 19 18 17 16 15 14 14 15 15 14 13 12 11 10 10 10
18 19 18 18 18 18 18 21 23 25 26 26 27 29 30 29 26 24 24 22 21 20 21 21 20 19 18 18 17 16 15 15 15 16 15 15 13 12 11 11 11 11
18 19 20 21 20 18 17 18 21 24 26 27 28 30 30 30 28 25 25 24 21 20 20 20 19 18 18 18 16 15 14 14 15 15 14 14 13 12 11 11 10 11
17 18 20 21 22 21 20 20 20 23 27 29 30 30 30 29 28 26 25 24 22 20 20 20 19 18 17 16 15 14 14 15 15 15 15 15 14 13 13 12 12 12
15 17 20 23 24 23 22 22 21 22 26 29 30 31 31 29 29 28 26 25 23 20 20 19 17 16 15 15 15 16 17 17 17 17 17 15 14 14 14 14 14 15
15 18 21 23 24 22 20 21 22 23 26 30 32 32 32 30 30 29 26 25 23 20 19 19 18 17 17 16 16 17 18 17 18 18 18 17 16 16 17 17 16 17
15 17 19 21 21 19 18 19 22 23 25 30 33 34 33 32 30 28 27 25 23 21 22 21 20 19 18 16 17 18 18 18 19 19 19 19 19 18 18 18 18 18
15 16 17 17 16 15 15 15 17 20 24 29 32 32 32 29 27 25 24 24 23 23 24 23 20 18 17 16 16 18 19 19 18 18 18 19 20 20 20 19 19 18
14 14 14 14 14 14 14 13 14 17 20 24 26 25 24 23 22 22 22 22 23 24 23 23 22 20 19 19 18 18 19 20 18 17 19 21 22 22 21 20 20 20
13 14 15 17 17 15 14 14 15 15 16 19 20 19 18 17 17 18 19 21 22 23 23 23 24 23 22 22 21 19 19 21 22 20 19 21 23 23 22 21 21 21
15 15 16 17 17 15 14 14 13 12 13 15 16 15 14 14 14 16 17 19 20 21 22 22 23 23 23 22 21 20 20 22 23 23 22 23 23 22 23 23 23 22
17 17 17 17 17 17 16 16 15 14 13 14 15 16 16 16 16 17 18 19 19 19 19 20 22 22 23 22 22 22 22 24 25 26 28 28 26 23 23 23 24 24
22 21 20 20 21 21 20 19 19 19 18 18 18 18 18 18 19 21 22 21 21 20 20 21 22 22 23 23 23 24 25 26 27 29 30 30 29 28 27 26 26 25
25 24 23 23 25 25 23 20 20 20 20 21 21 20 20 21 23 24 23 22 23 23 23 23 24 25 25 25 26 27 28 28 29 30 31 31 31 30 29 28 28 28
26 26 26 27 28 28 27 25 25 26 25 25 25 25 24 24 25 24 24 24 25 26 26 27 28 28 29 29 30 31 31 31 31 31 33 34 33 32 30 29 29 30
27 27 28 28 30 31 32 32 33 33 31 30 30 29 28 28 29 29 29 30 31 31 30 31 31 31 32 33 33 34 34 34 34 34 35 36 37 37 36 35 35 36
30 29 29 29 30 32 34 35 35 35 34 34 35 34 34 34 34 34 35 35 35 35 34 34 34 35 36 36 37 37 38 38 37 38 39 40 40 41 41 41 42 43
32 31 31 31 30 31 34 36 36 36 37 38 38 38 38 38 38 37 37 37 37 38 38 39 39 39 39 40 41 41 40 39 40 41 43 43 43 44 44 45 45 45
32 32 33 32 31 30 32 34 35 37 38 38 38 38 37 37 37 38 39 39 40 40 41 42 42 42 43 43 43 43 43 41 41 42 43 43 43 44 45 46 45 44
34 34 34 33 33 33 34 36 37 37 38 38 37 37 36 35 35 36 38 40 41 41 42 43 44 44 45 44 44 44 44 42 41 40 40 41 41 42 43 44 44 43

ECMWFNIL_500_spd_066.txt.gz
Wind_Speed
13 14 15 14 14 15 14 13 13 12 12 13 14 16 17 15 13 13 12 12 13 14 15 15 14 14 14 13 13 12 12 12 13 13 13 13 12 12 13 12 12 12
13 13 12 12 13 14 14 14 13 13 13 15 16 18 18 16 15 15 14 14 14 15 16 16 15 14 14 14 13 13 12 12 13 13 12 12 12 12 12 12 12 12
14 13 12 12 13 14 14 14 15 15 15 16 17 18 18 17 17 17 16 15 15 15 17 18 17 16 15 15 14 14 13 12 12 11 11 11 11 12 12 12 12 12
16 15 14 13 13 13 14 15 17 17 17 18 19 19 19 19 19 18 18 16 16 16 17 18 18 18 17 17 16 15 14 13 12 11 11 11 12 12 12 12 12 11
18 18 16 15 15 14 15 16 18 20 21 22 22 22 21 21 20 19 19 18 17 17 18 18 19 19 19 18 18 16 15 14 12 12 12 12 12 11 11 11 11 10
20 20 19 17 17 17 17 18 20 21 22 24 24 24 23 22 21 20 20 19 19 19 19 19 19 18 19 19 19 18 16 14 13 12 12 11 11 11 11 11 11 10
20 20 20 18 17 18 19 21 22 22 23 23 23 23 23 23 22 22 21 20 20 20 20 20 19 18 18 18 18 18 17 16 15 14 12 12 11 11 11 11 11 10
19 19 19 19 19 19 20 22 23 24 24 24 23 22 21 21 23 24 23 22 21 20 20 20 19 18 17 16 17 18 19 18 16 14 13 12 12 11 11 10 10 9
20 20 20 20 19 19 20 21 23 23 24 25 25 23 20 20 22 25 26 24 22 21 20 19 18 17 15 15 17 19 18 17 15 13 12 11 11 10 10 10 9 9
22 21 21 20 19 19 20 21 22 23 24 24 23 21 19 21 25 27 28 27 24 21 19 18 17 15 15 16 18 19 18 15 13 12 11 10 10 9 9 9 9 9
19 18 19 19 19 19 19 20 22 24 24 24 22 20 20 24 28 29 29 28 27 23 19 18 17 16 16 17 18 19 18 17 15 13 12 11 10 10 9 9 10 10
17 15 15 15 17 19 18 19 22 23 22 22 22 21 22 25 28 29 29 29 28 24 20 19 18 17 16 17 17 17 17 17 15 13 12 11 10 10 10 11 11 12
17 15 14 15 18 18 17 19 21 21 20 21 22 23 23 24 26 28 29 29 29 25 21 20 18 16 16 16 16 16 15 15 14 13 13 11 9 9 10 11 12 12
15 15 15 17 17 15 15 17 18 18 18 20 22 26 25 23 25 28 30 30 28 23 21 20 18 16 15 15 15 15 14 14 14 13 12 9 7 8 10 12 13 13
15 15 16 16 15 13 15 16 16 17 17 18 19 22 23 21 22 24 25 24 21 18 16 15 15 14 15 15 16 15 15 14 13 13 12 10 9 9 10 11 13 14
15 15 14 14 14 14 15 16 17 17 17 15 14 14 16 16 17 17 17 15 13 12 11 12 13 14 14 15 15 15 15 14 14 15 15 14 14 14 13 12 13 14
14 14 15 15 14 13 13 14 14 15 14 12 11 11 12 13 13 13 12 11 10 10 10 11 12 12 13 14 14 15 16 15 15 16 16 15 16 17 18 17 17 16
16 16 17 16 15 14 14 13 14 14 13 12 12 12 13 14 14 15 15 14 13 12 12 13 13 13 14 14 15 15 16 16 16 16 16 17 18 19 20 20 20 19
18 18 18 19 18 18 17 16 15 15 15 16 17 18 18 18 17 18 19 19 17 15 15 15 16 16 16 17 17 17 17 17 17 17 18 19 20 21 21 21 21 21
21 21 21 22 22 21 20 19 19 19 19 20 21 22 22 21 20 21 22 22 21 20 19 18 19 20 20 20 20 20 20 20 20 21 22 22 23 24 24 24 23 24
24 24 24 24 24 24 23 22 22 22 23 23 24 24 24 25 25 26 26 25 26 26 24 21 20 21 23 25 25 25 25 24 24 25 26 26 27 27 27 27 27 27
27 26 27 27 27 27 25 25 25 25 26 27 27 28 29 29 29 30 30 30 30 30 29 27 26 27 29 30 29 29 29 29 29 29 30 30 31 31 31 31 31 31
30 29 29 29 28 28 27 27 28 28 29 29 28 29 30 30 32 33 33 33 33 33 32 32 33 34 33 32 30 30 32 33 32 32 33 33 34 34 34 34 35 35
33 32 32 30 30 30 30 31 31 31 30 30 28 27 25 26 28 32 33 35 37 36 34 34 37 38 36 35 33 32 34 35 36 36 35 35 37 38 37 38 38 38
35 35 34 34 34 34 34 34 33 33 33 32 33 33 33 33 34 35 36 38 42 42 40 40 41 41 40 39 36 35 36 38 39 39 39 39 40 40 41 41 41 41
36 36 36 36 37 37 37 37 36 35 35 35 37 39 41 43 43 43 43 44 45 44 43 43 43 43 42 40 39 38 38 40 41 42 43 43 43 43 44 45 44 44

ECMWFNIL_500_spd_069.txt.gz
Wind_Speed
16 17 17 18 18 18 18 17 17 18 18 17 17 17 17 17 15 13 12 12 11 10 10 10 11 12 13 14 14 15 16 16 17 17 18 18 18 18 18 18 17 17
16 16 17 18 18 19 19 19 19 19 18 17 16 16 16 16 15 14 13 13 12 11 10 11 12 13 14 14 15 15 15 15 15 16 16 17 17 16 16 16 16 16
16 17 18 19 19 20 20 20 20 20 19 18 16 16 16 15 14 13 13 13 13 13 12 11 12 14 15 16 16 15 15 15 15 15 15 15 15 15 15 15 16 16
16 17 19 19 19 19 19 20 20 20 20 18 17 17 16 14 13 12 13 13 13 14 13 13 13 15 17 18 18 17 15 15 15 15 15 15 15 15 15 15 16 16
16 17 18 18 18 18 18 19 19 20 20 19 18 18 17 16 15 15 15 14 13 14 15 15 15 15 17 18 19 19 18 17 16 16 16 16 15 15 15 16 16 16
18 19 18 18 18 18 18 18 18 19 20 20 20 20 20 19 19 18 17 16 15 15 15 16 16 16 17 18 19 20 19 19 18 18 17 16 16 16 16 16 15 15
21 21 20 19 18 18 19 18 18 19 19 20 20 21 21 21 20 19 18 18 17 15 15 16 17 17 18 19 20 20 20 20 20 19 18 17 17 17 16 15 14 13
21 21 19 17 17 18 19 19 19 19 18 17 17 18 20 20 20 19 19 18 15 14 14 15 17 19 19 20 21 21 21 21 20 19 18 17 18 17 16 14 13 12
20 19 17 17 17 18 19 19 18 18 17 17 17 17 19 20 21 21 20 18 15 15 18 18 18 20 21 21 22 22 22 21 21 20 19 18 18 17 16 15 13 12
20 19 20 21 21 20 20 19 18 18 18 18 18 18 19 20 21 21 20 18 16 18 20 21 21 21 22 23 23 22 22 21 20 20 19 19 18 18 16 15 13 12
21 22 22 22 23 22 21 21 20 19 19 18 17 18 20 20 20 19 18 17 16 18 19 21 22 22 23 23 22 21 20 19 18 18 18 18 18 17 17 15 14 13
22 22 22 21 20 20 19 20 20 18 17 17 17 18 20 20 19 18 18 18 18 19 19 19 22 23 23 23 22 20 18 18 17 17 17 17 17 17 17 16 15 14
22 21 22 22 18 16 16 16 16 16 17 17 18 18 18 19 19 19 19 19 19 18 18 18 21 23 23 23 21 20 18 18 18 18 17 17 16 16 16 16 16 15
22 22 23 23 18 15 14 14 15 17 17 16 15 16 17 17 18 19 21 22 20 18 16 17 20 21 21 22 22 21 20 19 18 17 17 17 16 16 15 15 15 15
20 19 20 19 17 15 14 14 15 16 15 14 13 15 16 16 15 16 19 21 20 17 15 16 17 17 17 18 19 19 19 18 18 17 17 17 16 15 14 14 15 15
14 14 15 15 15 16 15 13 13 14 13 13 13 13 12 11 11 11 12 15 15 13 12 12 11 10 11 13 14 15 16 17 17 18 17 17 17 16 15 16 16 16
14 14 16 15 14 15 14 13 13 13 12 12 11 11 9 8 8 9 9 9 10 9 9 9 8 8 9 9 10 11 12 13 15 16 16 16 16 17 17 17 17 17
16 15 15 15 14 15 15 14 14 14 13 13 13 12 11 10 9 10 11 11 11 10 10 11 12 11 11 10 10 11 11 12 13 14 14 15 16 17 17 17 17 18
18 16 16 16 16 17 18 17 17 17 17 16 16 15 15 15 15 16 17 18 16 14 14 15 16 15 13 13 13 13 13 13 14 14 15 15 16 17 18 18 18 19
21 21 20 20 20 20 20 21 21 22 21 20 20 19 19 19 19 19 20 20 18 15 15 17 18 18 18 17 16 16 16 16 16 17 18 18 19 20 20 21 22 23
25 24 24 24 24 23 23 24 24 25 24 24 23 22 21 21 22 22 23 22 21 18 18 19 21 22 22 22 21 20 19 19 20 21 22 23 24 24 24 25 26 27
27 27 27 27 26 26 27 27 27 27 27 27 26 24 23 23 23 23 23 23 22 23 23 25 26 27 26 26 25 25 24 23 24 25 27 28 29 29 29 29 30 30
30 30 30 30 30 30 30 30 30 29 29 29 29 27 25 25 23 22 25 25 24 26 27 28 28 28 28 29 28 28 28 28 29 31 31 31 32 32 33 33 33 33
32 32 32 33 33 33 33 32 31 31 31 31 31 29 28 28 26 27 30 30 27 26 26 25 25 27 30 31 30 29 30 31 33 34 34 34 35 35 36 36 36 36
34 34 34 34 34 33 33 32 32 33 33 33 33 32 31 31 30 31 34 33 30 27 26 26 28 32 34 35 35 35 35 36 36 37 37 38 39 39 38 37 37 37
33 33 34 34 34 34 34 34 34 34 34 34 35 35 34 34 35 35 36 36 33 31 32 33 35 37 37 37 38 39 40 41 42 43 44 44 44 44 41 38 38 39

ECMWFNIL_500_spd_072.txt.gz
Wind_Speed
11 13 16 19 20 20 20 20 19 20 20 19 19 19 20 19 17 16 15 15 14 13 12 11 11 12 13 14 15 15 15 14 13 14 14 14 15 15 16 16 17 17
11 14 15 17 19 19 20 20 19 19 18 17 18 19 18 17 16 16 15 15 14 13 12 12 12 12 13 14 15 15 14 13 12 12 12 12 13 14 14 15 16 16
14 16 17 18 19 19 20 20 19 19 18 18 18 18 17 16 15 15 15 14 14 13 12 12 13 13 13 14 15 15 14 14 13 12 12 12 12 12 13 13 14 15
18 18 18 18 19 19 20 20 20 19 19 18 18 17 16 14 14 15 15 14 12 11 11 12 13 14 14 14 15 15 15 15 14 13 12 12 12 12 12 13 14 15
20 19 17 16 17 19 20 20 20 19 19 18 17 16 15 14 15 16 15 14 12 12 12 12 13 14 15 15 15 16 16 16 16 15 14 14 13 13 13 14 14 15
19 18 16 15 16 18 19 18 18 18 17 16 16 16 16 16 17 17 17 16 15 15 14 14 14 15 16 16 16 16 17 18 18 17 17 16 15 15 15 15 15 16
17 17 17 17 17 18 18 17 17 16 16 15 15 15 16 17 18 18 18 18 18 18 16 15 14 15 15 17 17 18 18 19 19 19 19 18 17 16 16 16 16 16
18 19 18 18 18 18 18 18 17 17 16 15 13 12 12 13 14 15 16 16 17 17 15 15 14 13 13 15 18 19 19 19 20 20 20 19 18 17 17 17 18 18
21 21 21 20 19 19 19 18 17 16 16 14 13 11 10 10 11 12 13 14 15 15 14 15 16 15 14 14 15 17 19 20 20 21 21 20 19 19 19 19 19 19
22 24 24 22 21 20 19 18 17 16 15 14 13 11 10 11 12 13 14 15 15 15 14 16 17 17 16 15 14 15 17 20 21 21 21 21 20 20 20 20 20 21
23 25 25 24 23 21 19 18 17 17 16 15 14 12 12 13 13 14 15 16 16 15 16 18 18 17 18 17 14 13 15 19 21 21 22 23 23 21 20 19 20 21
24 24 24 25 25 22 20 18 18 18 18 16 15 14 13 13 14 15 16 16 16 16 18 20 20 19 19 16 14 12 14 18 21 22 22 23 24 22 19 18 19 20
22 24 25 26 25 23 20 18 17 17 17 16 15 14 13 14 15 16 15 15 16 17 19 21 21 20 19 16 13 12 14 17 20 21 22 23 24 23 20 19 19 19
22 25 28 28 25 23 21 18 17 17 15 14 14 13 14 15 15 14 14 15 16 17 19 19 19 18 18 16 14 12 14 17 19 20 22 23 23 23 21 20 19 19
20 22 28 30 26 23 21 19 17 16 15 14 14 14 14 14 14 15 15 15 15 15 16 17 18 18 18 17 15 14 15 17 18 20 21 22 23 22 21 20 20 20
18 18 22 27 27 24 23 21 18 16 15 15 14 14 13 14 14 14 14 14 13 12 12 14 17 18 18 16 15 14 14 14 15 17 18 20 21 21 21 21 21 21
17 15 15 20 24 24 24 23 20 17 15 14 14 14 13 12 12 11 11 11 11 9 9 10 12 14 13 12 12 11 11 12 13 15 17 18 19 19 20 21 21 22
17 15 14 16 20 21 22 22 21 19 17 15 15 15 14 13 13 13 12 12 10 10 9 10 11 11 11 11 11 11 11 12 13 16 17 18 18 18 19 20 20 20
18 18 17 17 18 19 20 20 20 19 18 17 16 16 16 16 16 16 16 15 14 13 13 13 14 14 14 14 14 13 13 13 15 17 18 18 19 19 18 18 19 19
19 19 20 20 19 19 20 21 20 20 19 19 18 18 18 18 19 19 18 17 17 17 17 17 17 17 17 16 15 15 15 15 16 17 19 19 20 21 21 21 20 21
21 21 21 21 21 21 21 22 23 23 22 21 21 21 21 21 22 22 21 20 20 20 20 20 19 19 19 19 19 20 20 19 19 20 22 23 24 24 24 25 24 24
23 23 23 23 23 23 23 24 25 24 23 23 23 23 24 24 25 26 25 23 23 23 23 23 21 21 22 22 23 25 25 24 23 24 25 26 27 27 27 27 28 28
25 25 26 26 26 26 26 26 26 26 24 24 25 26 26 27 28 28 28 27 26 26 25 24 23 23 24 25 26 28 29 28 28 28 29 30 31 31 31 31 31 32
28 29 30 30 30 30 30 30 30 29 29 29 29 30 30 30 30 30 30 30 30 29 27 26 26 27 27 26 27 29 30 30 30 30 30 31 33 34 35 35 36 36
33 34 34 34 34 34 33 33 33 33 33 33 33 33 33 32 32 32 33 33 33 33 30 29 29 31 30 29 29 29 30 31 32 33 33 33 33 36 37 38 38 38
37 38 38 37 37 37 36 36 36 37 37 37 37 37 36 35 34 35 35 35 35 35 34 32 32 32 32 32 32 33 33 34 36 37 36 35 35 36 38 39 40 41

ECMWFNIL_500_spd_075.txt.gz
Wind_Speed
10 9 10 11 14 19 22 22 21 22 23 22 21 20 21 22 22 20 19 17 16 15 13 12 12 12 12 14 15 16 17 17 17 17 17 17 16 16 16 16 16 16
10 8 7 8 11 16 18 19 20 21 22 21 21 20 21 21 21 20 19 18 17 16 14 13 13 13 14 15 15 16 17 18 18 17 17 16 16 16 16 16 16 17
11 9 9 9 11 14 16 18 19 19 20 20 19 19 20 20 20 19 18 18 17 16 15 14 14 14 15 15 16 16 17 17 17 17 16 15 15 15 15 15 15 15
12 12 11 11 10 11 14 16 17 18 18 18 17 18 18 19 18 18 17 18 17 16 15 15 14 14 15 15 15 16 16 17 17 17 16 15 14 14 14 14 14 15
13 14 14 13 12 11 13 15 16 16 16 16 16 17 18 18 17 17 17 17 16 16 15 14 14 14 14 15 15 15 15 16 17 17 17 16 15 15 15 15 15 15
14 15 15 15 14 13 14 15 15 15 15 16 17 18 18 18 18 17 17 17 17 16 16 15 14 15 15 15 15 15 16 16 17 17 17 17 17 17 16 16 17 17
14 14 15 16 17 16 16 15 15 14 15 16 17 18 18 17 17 17 17 17 17 18 18 18 18 17 17 16 16 16 17 18 17 17 17 18 18 18 19 19 19 19
14 15 16 17 18 18 17 16 15 14 15 16 17 17 16 16 16 17 18 18 19 20 21 21 20 19 19 19 18 19 19 19 18 18 18 18 18 19 20 20 20 21
16 17 17 17 18 18 18 17 16 15 16 16 16 16 16 16 17 18 18 18 19 20 21 20 19 18 19 20 20 20 20 20 20 19 18 18 19 19 20 20 21 22
17 18 19 20 20 20 19 18 17 18 18 17 17 17 17 17 16 17 17 17 18 18 18 18 17 18 19 20 21 20 20 20 20 20 20 19 19 19 20 21 22 22
16 18 20 22 22 22 21 20 19 19 19 18 18 18 18 18 17 17 17 17 17 17 18 18 18 19 20 21 22 22 21 21 21 21 21 20 20 20 21 22 22 23
16 19 21 23 23 23 23 22 20 20 20 19 19 19 19 19 19 20 19 17 17 17 18 19 19 20 20 20 21 22 22 23 23 22 21 21 21 21 22 23 23 23
16 18 21 22 22 22 23 23 22 21 20 20 21 21 21 21 21 20 19 18 17 18 18 19 19 19 19 20 21 22 22 22 23 23 22 21 21 21 22 23 23 24
14 16 19 21 22 21 21 23 23 22 22 22 22 22 22 23 22 21 19 18 18 19 18 18 18 19 19 20 22 22 22 22 23 24 22 20 20 20 22 23 23 24
15 16 19 20 21 21 22 23 23 23 23 23 23 23 23 23 22 21 20 19 19 18 18 18 19 19 20 20 21 21 21 22 22 23 22 20 19 20 21 22 23 24
17 17 19 19 19 22 24 24 25 25 25 24 23 23 23 22 21 20 19 19 19 18 18 18 19 19 19 18 19 20 20 21 22 22 21 20 19 20 20 21 22 23
20 20 20 19 20 21 23 26 28 28 27 25 24 23 21 20 20 20 19 19 18 17 16 17 17 17 16 15 17 18 20 20 20 19 19 18 18 19 19 20 22 23
19 19 20 20 20 21 25 30 31 29 28 26 23 22 21 20 20 20 19 18 17 16 15 15 14 13 12 12 13 15 16 16 15 15 15 16 16 16 17 19 21 22
19 18 18 19 19 20 25 30 29 27 27 26 22 21 21 21 21 20 19 19 18 18 17 16 15 13 12 11 12 13 14 14 13 14 14 15 15 15 16 17 20 22
21 20 19 19 20 20 21 23 24 22 23 23 22 21 21 22 22 21 20 20 20 20 20 19 18 16 15 15 15 15 15 15 15 16 16 16 16 17 17 19 20 21
21 21 21 20 20 20 19 19 20 20 20 22 23 23 23 23 23 23 22 21 21 22 22 22 20 19 18 18 18 18 17 17 18 18 19 19 19 20 20 22 22 23
20 21 21 21 21 21 21 20 20 20 21 22 23 24 25 24 24 24 24 24 24 24 24 24 23 22 21 20 20 20 19 19 20 21 21 22 23 24 25 26 26 26
20 21 21 21 21 22 22 22 22 22 22 23 24 26 26 26 26 26 27 27 27 27 27 27 26 25 24 22 22 22 23 23 23 23 24 25 27 28 30 31 31 31
21 22 22 22 23 23 23 23 23 23 24 25 26 27 28 28 29 29 30 30 30 29 30 30 29 29 28 26 25 25 25 26 26 27 27 28 29 31 32 34 35 35
24 24 24 24 24 25 25 25 26 26 27 27 28 29 30 31 31 31 32 33 33 33 33 33 32 32 31 31 30 29 29 29 30 31 31 31 31 32 33 34 36 37
26 26 26 26 26 26 27 28 28 29 30 30 31 32 33 33 34 35 35 36 36 36 36 36 36 36 36 35 35 34 34 34 35 35 35 35 35 34 34 35 37 38

ECMWFNIL_500_spd_078.txt.gz
Wind_Speed
17 17 18 18 20 22 23 24 29 33 32 28 25 22 21 20 20 19 19 18 17 16 15 14 14 14 14 14 14 14 15 16 16 17 18 18 18 18 17 16 16 15
14 13 12 13 16 20 22 24 29 34 32 25 22 21 20 20 20 19 19 18 18 17 16 17 17 18 18 17 16 16 16 17 18 18 19 19 19 18 18 17 16 15
14 14 13 12 12 14 17 19 24 28 27 22 19 20 20 19 19 19 20 20 20 19 19 20 20 20 20 19 18 17 17 17 18 18 18 18 18 18 17 17 16 15
15 14 14 13 12 12 13 15 19 23 22 19 17 18 19 19 19 20 21 22 21 21 21 21 20 20 19 19 18 18 18 18 18 18 18 18 17 17 17 17 16 15
16 15 15 14 14 13 12 12 15 17 17 16 17 18 18 19 20 21 21 21 21 21 21 20 20 20 18 17 17 18 18 18 18 18 18 18 18 18 18 17 17 16
17 16 16 15 15 14 13 13 13 14 15 15 17 18 18 18 19 19 19 20 20 20 20 21 20 19 17 15 15 16 18 18 19 19 19 19 19 19 19 18 18 17
17 17 17 16 15 15 15 15 15 15 15 16 16 16 16 17 18 18 18 19 20 21 20 20 20 19 17 16 16 17 17 18 19 20 20 20 20 20 20 20 19 19
16 16 17 17 17 17 17 17 17 17 17 17 16 16 17 18 18 19 19 20 20 20 20 20 20 19 19 19 19 19 19 20 20 21 21 21 21 21 22 21 21 20
17 16 16 17 17 18 19 19 20 20 19 19 18 18 19 19 19 20 20 20 20 20 20 20 20 21 22 22 22 21 20 21 21 21 21 22 22 23 23 23 22 21
19 18 17 17 17 18 20 21 22 22 20 20 20 20 20 19 19 20 20 20 20 20 20 20 21 22 22 22 22 21 21 20 21 21 22 22 23 24 24 24 23 22
21 21 20 19 19 19 20 21 22 22 21 21 21 21 20 20 20 20 21 21 20 20 21 21 21 22 22 22 22 22 22 22 22 22 23 23 24 24 25 25 25 24
21 21 21 20 19 19 20 21 22 22 22 22 22 22 21 21 21 21 22 21 21 21 21 21 21 22 22 23 23 23 23 24 24 25 26 26 25 25 25 26 26 25
20 20 19 19 19 19 21 22 23 23 23 22 22 22 23 22 22 23 23 22 22 23 23 22 23 23 23 23 23 23 23 24 25 26 27 28 27 27 27 27 27 27
22 20 19 18 19 19 21 21 22 23 24 24 23 23 24 24 24 24 24 24 24 25 24 24 24 24 23 23 23 23 23 23 25 27 28 28 28 28 28 28 28 28
22 20 19 18 18 19 20 20 20 22 24 25 24 23 24 25 25 25 25 25 26 26 25 25 24 24 23 23 23 22 22 23 25 26 27 28 27 27 28 29 29 29
20 19 18 17 17 19 21 20 20 21 23 24 25 25 25 26 26 26 26 27 28 27 26 26 25 23 23 22 22 22 23 24 25 26 27 27 27 26 27 29 30 30
19 18 18 18 17 19 20 18 19 21 23 24 26 27 27 27 27 28 28 28 29 28 27 26 25 23 23 23 22 22 22 23 23 24 24 24 25 26 27 29 30 30
19 19 21 21 20 19 19 18 20 22 24 26 28 29 28 28 28 28 28 29 29 28 27 26 24 23 22 22 21 20 20 21 22 22 22 24 26 28 28 28 28 29
20 20 22 22 21 20 20 21 24 26 27 27 28 29 29 29 29 28 28 29 28 27 27 26 24 22 21 20 19 18 18 19 19 20 21 22 25 26 26 25 25 26
21 21 21 21 20 20 21 21 24 26 27 27 27 28 30 30 30 29 28 27 27 27 27 25 23 23 22 21 20 18 18 19 19 19 19 19 20 21 21 22 22 23
19 19 20 20 20 19 20 20 22 24 24 23 23 25 28 29 28 26 26 26 27 27 27 25 25 24 24 23 22 21 21 21 22 22 21 21 20 21 21 21 22 23
18 18 19 20 20 20 20 21 22 23 23 22 20 20 23 26 25 23 24 26 27 28 28 27 27 26 26 26 25 24 23 23 24 25 25 25 24 24 24 25 26 26
18 19 20 20 20 21 21 21 21 22 22 21 19 18 20 23 24 24 25 27 28 29 29 29 29 28 28 27 27 26 26 26 26 27 27 28 28 28 29 30 30 31
20 21 21 21 22 22 22 21 21 21 21 20 19 19 20 22 23 24 25 26 27 28 29 29 30 30 30 29 29 30 29 29 29 30 30 31 32 32 33 34 35 35
22 22 22 23 24 24 24 23 23 23 23 22 21 21 21 22 23 24 25 26 28 30 31 31 31 32 33 33 33 33 33 33 33 33 33 33 34 35 37 38 39 38
23 23 23 24 25 25 26 25 25 25 25 25 25 24 24 24 25 26 27 28 30 32 32 33 34 35 36 37 37 37 37 37 37 38 38 37 38 39 40 41 42 42

ECMWFNIL_500_spd_081.txt.gz
Wind_Speed
23 22 22 22 22 21 20 20 20 21 22 22 23 21 19 18 17 16 16 15 14 14 13 12 12 12 12 12 11 11 10 11 12 12 13 13 14 14 16 16 15 15
21 21 20 19 20 20 19 19 20 22 23 24 25 24 21 19 18 18 17 16 15 14 13 13 12 13 13 13 13 13 14 15 15 15 16 16 16 16 16 16 15 16
22 21 20 18 17 18 19 21 23 23 24 24 24 26 26 23 19 19 18 17 16 15 14 14 14 15 15 15 16 16 17 18 18 18 18 17 17 17 16 16 15 16
21 21 20 18 17 16 16 18 21 22 23 22 22 25 27 25 20 18 18 18 17 16 15 15 16 17 17 18 18 18 18 18 18 18 18 18 18 18 18 17 16 16
20 21 21 20 19 17 16 17 18 19 19 19 20 21 23 21 18 17 17 17 17 16 16 17 18 19 19 19 18 18 18 18 17 18 18 18 19 18 18 18 17 17
21 21 21 22 20 19 19 19 18 18 18 17 16 17 19 17 16 16 16 17 17 17 17 18 19 19 19 18 18 17 17 16 16 16 17 18 18 18 18 18 18 18
22 21 22 23 22 21 20 19 18 19 19 15 13 14 16 15 15 16 17 17 18 18 18 18 18 18 18 18 17 17 16 15 15 16 17 17 18 18 18 18 19 19
23 22 23 23 23 22 21 20 20 20 19 16 14 14 15 14 15 16 17 17 18 18 18 18 18 18 18 18 17 17 17 17 17 17 18 18 19 19 19 19 20 21
22 21 21 21 21 21 20 20 21 21 20 18 17 17 17 15 15 15 16 17 18 18 18 19 18 18 18 17 18 19 20 20 19 19 20 20 21 21 20 20 21 22
19 18 19 19 19 19 20 20 21 21 21 21 20 20 20 19 19 18 19 20 20 20 19 19 19 18 18 19 19 20 22 22 22 21 21 21 21 21 21 22 22 23
19 18 19 18 18 18 19 20 20 20 20 21 21 21 22 22 22 22 23 23 22 21 20 20 20 19 19 20 21 22 23 23 22 21 21 21 21 21 22 23 23 23
20 19 19 19 19 18 18 18 18 19 19 20 22 22 22 23 24 24 24 24 23 22 21 21 21 20 21 21 21 21 21 21 21 21 22 22 23 23 24 24 24 24
22 21 20 20 20 19 18 18 18 19 20 21 22 22 23 24 25 25 25 25 24 23 23 22 21 21 21 21 21 20 20 21 21 22 23 23 23 24 25 26 26 26
22 22 22 21 20 19 17 17 18 19 20 21 22 23 24 24 25 25 25 25 25 24 24 23 22 22 22 21 20 20 21 22 22 23 23 23 24 24 25 26 26 26
23 24 23 23 22 20 17 17 18 20 21 23 24 24 25 26 25 25 25 25 25 26 25 24 23 23 23 22 21 22 22 23 23 23 23 23 24 24 25 25 25 25
22 23 24 24 23 20 18 17 18 19 22 24 24 25 26 27 27 26 26 26 26 27 26 26 25 25 24 23 22 23 23 23 23 23 23 24 25 25 25 25 24 24
19 19 21 23 23 20 18 17 17 18 20 22 23 24 25 27 28 28 28 27 27 27 28 27 26 26 26 24 23 23 23 22 23 23 23 24 25 24 24 23 23 22
18 17 18 19 21 20 18 16 16 17 18 20 22 23 24 26 28 29 29 29 28 28 28 27 27 27 27 25 24 23 23 22 22 22 23 22 22 23 22 22 21 21
19 18 18 19 20 21 20 19 19 18 19 20 22 23 24 25 28 29 30 30 29 29 29 29 28 28 27 26 25 24 22 21 20 20 20 19 20 21 21 21 20 20
19 19 20 21 22 22 23 23 22 21 20 21 23 25 24 26 28 30 30 31 31 31 31 30 29 28 27 26 25 23 22 20 19 18 19 19 19 19 19 19 21 22
19 19 19 21 22 23 23 23 22 21 20 21 23 24 22 21 24 27 30 32 32 31 30 30 30 28 27 26 25 23 23 22 20 20 21 21 20 19 19 20 22 24
19 19 19 20 21 21 21 21 21 20 20 20 21 21 20 18 20 23 26 30 31 30 30 30 29 27 26 26 26 26 25 24 23 23 24 23 22 22 22 23 25 26
20 19 19 20 20 20 20 21 21 21 21 21 21 21 20 20 21 21 22 25 28 28 28 27 25 24 25 27 27 28 28 28 27 26 26 25 24 24 25 25 27 28
21 21 21 22 21 21 21 21 21 21 21 21 21 21 20 19 19 19 19 20 22 24 23 22 23 25 26 28 28 29 30 30 30 30 29 28 27 27 27 28 29 29
23 23 23 23 23 23 22 22 21 21 21 21 20 19 18 17 17 17 17 18 20 22 22 23 24 25 27 28 29 31 31 32 32 32 31 31 31 31 30 31 32 32
26 26 25 25 25 25 24 23 22 21 19 18 17 16 15 16 16 16 16 17 20 21 22 23 24 24 27 29 30 31 33 33 34 34 34 35 36 36 35 36 36 36

ECMWFNIL_500_spd_084.txt.gz
Wind_Speed
17 17 18 18 19 19 21 22 22 23 23 21 19 19 20 19 17 15 13 12 12 11 10 10 10 10 9 9 8 9 9 9 8 8 8 8 9 9 10 10 11 11
18 18 19 20 20 19 20 20 21 23 22 20 19 20 20 19 16 14 13 13 13 13 12 12 11 11 10 9 9 9 10 10 9 9 10 11 12 12 12 13 13 13
19 19 20 22 22 20 19 19 20 21 21 19 19 20 20 19 16 15 15 15 14 14 14 13 13 12 11 11 11 11 11 11 12 12 13 14 14 14 15 15 15 14
20 19 20 22 22 20 18 18 18 18 18 19 20 20 21 19 17 17 18 18 17 16 15 15 14 14 13 13 13 12 12 13 14 14 15 15 15 15 15 15 15 15
21 19 19 19 19 18 18 18 17 16 16 19 21 21 21 19 17 17 19 21 20 18 17 17 16 16 15 15 14 14 13 13 14 14 14 15 15 15 15 15 15 15
20 20 19 18 17 17 16 16 17 16 15 16 17 19 19 18 18 19 20 21 21 19 17 17 17 17 16 16 15 14 14 13 13 14 14 14 14 13 13 14 14 14
19 20 20 18 17 16 15 15 15 16 15 15 15 15 16 16 18 18 18 19 19 18 17 17 17 17 16 16 15 14 14 14 14 14 14 13 13 13 13 14 15 15
19 20 20 18 17 16 16 16 16 16 16 16 15 15 15 16 16 16 16 17 18 17 17 17 17 17 17 16 15 15 15 16 16 15 15 14 13 14 14 15 16 16
19 19 19 18 18 18 18 18 17 17 17 16 16 15 15 16 16 15 16 17 17 16 16 16 17 17 17 16 16 17 17 18 17 17 16 16 15 15 15 16 17 17
20 19 19 20 20 20 19 18 16 16 16 17 16 15 15 16 16 16 16 16 16 16 17 17 17 17 17 17 17 18 18 18 18 18 18 18 17 17 17 17 17 18
20 19 19 20 20 19 18 16 15 15 16 17 17 16 17 17 17 17 18 18 18 18 17 17 17 17 17 18 19 19 19 18 18 19 19 19 19 18 18 17 17 18
20 19 17 18 18 17 16 15 14 15 16 17 17 17 18 19 19 20 20 20 20 19 19 19 19 19 19 20 19 19 18 18 19 19 19 20 19 19 18 19 19 19
21 21 20 20 19 18 16 15 14 14 15 16 16 18 19 20 21 21 21 21 20 20 20 20 20 20 20 20 20 19 19 19 19 19 19 19 18 19 20 20 20 20
22 22 22 21 20 19 17 16 15 14 14 15 17 18 20 21 21 22 21 21 21 20 20 20 20 20 20 20 20 20 20 19 19 18 19 18 19 20 20 21 21 21
23 24 22 21 20 20 17 16 16 15 15 16 17 19 20 20 21 21 21 22 22 21 21 21 20 19 20 20 20 20 20 19 19 19 19 19 20 20 21 21 21 21
24 24 22 21 20 20 18 18 17 15 15 16 17 18 20 20 21 22 22 23 23 23 23 22 21 21 21 20 20 20 20 20 19 20 20 20 20 21 21 20 19 19
23 22 21 20 21 20 20 20 19 18 16 16 17 18 19 20 22 23 23 24 24 25 24 23 23 23 22 20 20 20 20 20 20 21 21 21 20 20 19 18 17 18
20 19 19 19 20 21 21 21 21 19 17 17 16 16 17 20 22 23 23 23 24 24 24 24 24 24 23 21 20 20 20 21 21 22 22 21 20 18 17 16 17 18
17 17 17 18 17 17 17 19 21 20 17 15 15 15 16 19 20 22 23 23 22 22 23 25 26 25 23 23 22 22 21 21 22 22 22 21 20 18 15 13 15 17
16 16 17 17 17 15 14 16 19 21 19 16 16 16 17 18 20 21 23 24 22 21 22 25 25 25 25 25 25 24 22 22 22 21 21 21 20 19 17 14 15 17
17 17 17 17 17 17 17 17 19 23 22 19 19 19 19 20 20 20 22 23 22 22 22 24 25 25 26 27 27 26 24 24 22 20 21 22 22 21 20 19 19 20
17 17 18 18 18 18 19 19 20 21 21 20 19 19 19 20 20 19 19 19 19 20 21 22 25 27 27 26 27 27 26 25 23 22 22 23 23 23 23 22 22 23
16 17 17 18 19 19 20 21 20 19 19 21 21 20 19 20 20 20 19 18 18 19 20 22 24 26 26 26 27 28 26 24 24 24 24 24 25 25 25 25 25 25
15 16 18 19 19 20 22 22 21 21 21 21 22 22 21 21 21 20 19 19 19 20 22 23 23 24 26 27 26 25 24 24 25 25 25 25 26 27 28 29 29 28
15 14 17 18 19 20 21 20 20 20 21 21 22 22 22 22 21 21 20 19 19 20 21 22 21 22 23 23 22 23 23 25 26 26 26 26 27 28 30 30 31 31
20 19 19 19 20 21 21 21 21 21 21 22 22 22 23 22 21 20 20 19 19 19 20 19 19 20 21 21 22 24 24 25 25 26 26 27 27 29 30 31 32 34

ECMWFNIL_500_spd_087.txt.gz
Wind_Speed
20 21 21 19 16 15 12 12 14 15 15 15 16 16 16 16 16 17 17 16 16 15 12 10 9 10 10 11 10 10 9 8 7 8 7 6 6 5 5 6 6 7
18 18 19 18 17 15 13 12 13 14 15 15 16 17 16 17 17 17 17 17 16 14 11 10 9 10 12 12 11 11 9 9 8 8 7 6 5 5 5 6 7 7
19 17 17 17 17 15 13 12 13 13 13 14 15 17 18 18 18 17 16 16 15 13 11 11 10 11 13 12 12 12 10 10 9 8 7 7 7 6 6 6 8 8
18 16 14 15 15 13 12 12 12 12 12 13 15 17 19 19 17 16 16 15 14 13 12 12 11 12 13 13 12 12 11 10 10 9 8 8 8 8 8 7 8 9
19 17 15 13 13 11 9 10 11 12 12 13 15 16 17 17 16 16 16 16 16 15 15 14 13 13 14 13 13 13 12 11 10 10 10 9 9 10 9 8 8 8
15 15 16 14 12 9 7 7 10 11 13 13 13 13 14 16 17 17 17 18 18 18 18 16 14 14 15 14 15 14 13 12 11 11 11 10 11 11 10 8 8 8
15 15 15 14 13 10 7 7 8 10 12 13 11 10 12 15 18 18 18 20 20 19 19 17 16 15 16 15 16 16 15 13 12 12 12 12 12 12 11 9 8 9
19 18 16 13 13 11 9 7 8 9 11 11 11 11 13 15 17 18 19 22 22 21 19 17 16 16 16 16 16 16 16 15 14 14 13 13 13 13 12 10 9 10
18 16 15 14 13 12 10 9 9 10 12 12 12 13 14 15 16 17 19 20 20 19 18 17 16 16 17 17 17 17 16 16 15 15 15 14 14 14 14 12 11 12
18 15 13 13 13 13 12 11 11 12 13 13 13 13 15 16 16 16 17 17 17 16 16 16 16 16 16 16 17 17 17 16 16 16 15 15 16 16 16 15 14 14
19 16 14 14 15 14 13 13 13 13 13 13 14 14 16 16 15 16 17 17 16 15 15 16 16 16 16 16 17 17 17 17 17 16 16 16 16 17 17 17 17 16
19 17 15 15 15 15 15 15 14 13 14 13 14 15 16 16 16 16 17 17 16 16 16 16 16 16 16 15 16 16 17 17 17 17 17 17 17 17 17 17 18 17
19 18 16 15 15 15 15 15 14 13 14 13 14 16 16 16 17 18 17 17 17 16 16 16 15 15 15 16 16 17 17 18 18 18 17 17 18 17 17 17 17 18
20 19 17 16 16 15 14 14 13 13 13 15 16 17 17 17 17 18 17 17 17 17 17 16 16 16 17 17 18 18 18 18 18 18 18 18 18 17 16 16 17 19
19 18 16 16 17 17 16 15 14 14 15 16 18 18 18 18 18 18 17 17 18 17 17 17 17 17 17 18 18 18 18 18 18 18 18 18 17 16 16 16 18 20
17 17 17 17 18 18 18 16 16 16 16 18 19 18 18 18 18 19 19 19 19 18 18 17 17 18 18 18 17 17 17 17 18 19 18 18 17 17 17 18 20 21
17 18 19 19 20 20 19 16 16 17 18 18 19 18 17 17 18 19 19 19 19 18 17 17 18 18 19 19 18 17 17 18 19 19 18 18 19 20 20 20 21 21
17 17 17 19 20 20 19 17 17 19 19 20 19 18 16 17 17 18 18 17 17 18 18 18 19 19 19 20 19 18 19 19 20 20 19 20 21 21 21 21 21 22
15 15 16 18 18 18 19 18 19 20 21 21 21 19 17 17 17 16 16 16 17 18 19 19 19 20 20 20 19 20 21 20 20 21 20 21 22 22 22 22 22 22
14 14 16 18 17 17 17 18 19 21 22 23 23 20 18 17 16 14 13 14 15 16 18 19 19 19 19 20 21 22 23 22 22 22 22 22 23 23 23 23 22 22
12 12 14 15 15 16 17 17 17 18 20 22 23 21 18 16 15 13 12 13 13 14 16 18 19 19 19 20 21 22 23 23 22 23 23 23 23 23 23 23 23 23
12 12 11 12 14 16 18 18 18 18 18 19 21 21 20 18 16 16 17 17 17 17 19 21 22 22 21 21 21 23 24 23 22 24 24 24 24 24 25 25 25 25
13 14 14 14 15 15 15 16 17 18 18 18 19 20 20 20 19 19 20 20 20 19 20 21 22 23 23 23 23 24 26 26 26 27 27 25 24 25 26 26 26 25
12 13 15 16 17 17 15 16 18 20 19 18 18 18 19 20 20 21 21 21 20 20 20 21 22 22 23 24 25 26 27 29 29 28 28 29 28 27 26 26 25 25
13 14 16 18 19 19 19 19 20 22 21 20 19 18 19 20 21 21 21 22 22 22 21 22 23 23 24 25 27 27 27 28 29 29 30 30 29 26 25 24 25 27
13 12 14 16 18 19 20 21 21 21 21 21 21 21 20 20 21 21 22 22 23 23 22 23 23 24 25 26 26 25 24 24 25 27 27 27 26 25 25 25 26 26

ECMWFNIL_500_spd_090.txt.gz
Wind_Speed
19 18 16 15 16 16 16 16 15 16 17 16 16 16 17 17 18 18 16 16 17 16 15 15 15 14 14 15 16 16 17 17 16 16 16 15 14 13 12 11 9 9
20 18 16 14 14 15 15 15 13 14 15 15 16 16 16 17 18 18 18 18 18 17 16 16 15 15 16 17 18 18 18 17 16 16 15 14 12 11 10 9 8 8
18 15 14 14 13 14 15 15 15 15 15 14 14 15 16 17 18 19 19 19 18 17 16 16 16 16 17 18 19 18 18 17 16 15 14 13 12 11 10 10 10 10
16 15 14 13 12 14 16 16 16 17 16 14 13 14 16 17 19 19 19 19 19 18 17 17 17 17 17 18 18 18 18 17 17 16 14 13 12 12 11 11 12 12
14 14 15 15 15 15 15 17 17 18 17 15 14 14 16 18 19 20 20 19 19 17 17 18 18 18 18 18 18 18 18 18 17 17 15 14 13 12 12 12 13 13
13 14 15 16 16 15 14 16 17 17 17 16 15 16 16 18 19 20 20 19 19 18 17 19 19 18 18 18 19 19 19 19 19 17 16 14 14 14 14 14 14 14
15 15 16 15 14 13 14 16 16 15 15 16 16 16 14 14 16 18 19 19 19 18 18 19 20 20 20 20 20 20 20 20 20 18 16 15 15 15 15 15 15 15
17 18 19 17 13 12 15 17 16 14 14 17 17 15 13 12 13 15 17 17 18 18 18 18 19 20 21 22 22 21 22 22 21 19 18 17 16 16 16 16 15 15
19 19 19 17 15 14 16 17 16 15 16 18 19 18 15 12 13 14 16 16 17 17 18 19 19 20 22 23 23 23 22 22 21 20 19 18 17 16 16 16 16 16
19 19 17 16 15 15 16 17 16 16 16 17 18 19 16 14 14 15 15 16 17 17 18 20 21 22 24 25 25 24 22 22 21 20 20 19 17 16 16 17 17 17
20 19 19 18 16 15 16 17 17 18 18 17 18 19 18 16 15 15 15 16 19 20 22 23 25 25 25 25 23 22 21 21 21 21 20 18 16 16 17 17 17 17
20 20 20 19 17 15 15 17 19 21 20 19 19 20 19 17 16 15 15 17 19 22 24 25 24 23 23 21 20 20 20 20 20 20 18 16 15 16 17 17 17 18
19 21 21 20 19 18 17 20 23 23 22 21 22 21 20 18 17 16 15 16 18 21 21 21 19 19 19 19 19 19 19 19 19 18 16 15 16 17 18 18 18 19
17 19 20 20 20 19 19 21 23 23 22 23 23 22 20 19 18 16 15 16 18 19 19 18 17 18 19 19 19 19 19 18 17 16 16 17 18 19 19 19 19 19
15 18 19 19 19 19 19 20 21 22 22 23 23 22 21 21 19 16 15 16 18 19 19 18 18 19 19 20 20 19 19 18 17 18 19 19 19 20 20 20 19 19
13 16 18 19 19 18 18 19 20 20 22 22 22 22 22 21 20 16 15 17 18 19 19 18 19 20 20 21 20 20 20 19 19 19 19 19 19 20 20 20 19 19
12 15 17 18 19 19 20 21 21 20 21 22 21 22 22 22 20 17 17 17 17 18 19 19 20 21 21 20 20 20 20 19 19 19 19 19 19 19 20 21 21 21
13 14 16 17 19 21 23 23 22 22 22 22 21 22 22 21 20 19 19 19 19 20 20 21 21 21 21 20 19 19 19 18 19 19 19 19 19 20 21 22 22 22
14 14 17 19 20 22 23 23 23 23 22 22 21 22 22 22 21 20 21 21 21 21 22 23 23 23 22 20 19 19 19 19 19 19 20 20 20 20 21 22 23 23
13 15 18 19 19 21 23 22 21 22 22 21 21 22 23 23 23 22 22 22 22 23 24 25 25 24 23 21 20 20 20 21 21 21 21 20 20 21 22 23 24 25
10 13 16 17 17 20 21 19 18 19 20 21 21 22 23 24 23 23 21 21 21 22 23 25 25 24 23 22 21 21 21 21 21 20 21 21 20 21 22 23 24 25
9 10 12 15 17 18 18 17 18 20 20 20 21 22 22 23 24 23 20 18 17 18 19 21 21 21 21 21 20 21 21 20 20 20 22 22 21 20 21 22 23 25
9 10 11 13 14 15 17 18 21 23 23 22 21 21 22 23 24 23 20 17 16 16 17 19 21 22 23 23 23 23 23 22 21 23 24 24 23 22 22 24 27 28
8 9 10 12 14 17 21 23 21 23 26 26 23 21 20 20 21 22 21 19 18 19 21 23 25 24 24 24 24 25 26 27 27 27 28 29 29 28 27 29 31 30
11 11 10 12 14 18 21 23 22 24 29 29 24 21 20 20 20 21 21 20 20 22 26 27 27 25 23 23 23 24 26 27 28 30 32 32 33 33 33 33 34 32
14 13 13 15 17 17 17 20 22 25 26 25 22 21 20 20 20 20 21 21 21 23 26 26 25 24 23 23 24 25 25 26 27 29 31 33 33 34 33 34 36 35

ECMWFNIL_500_spd_093.txt.gz
Wind_Speed
30 24 18 17 17 18 19 20 20 21 24 24 23 22 22 22 22 22 22 22 23 24 23 21 22 23 22 22 21 20 21 21 21 21 20 19 18 17 16 16 16 15
30 23 16 16 17 17 17 17 18 20 22 23 22 23 23 23 23 23 23 24 25 25 23 22 22 22 22 22 20 20 21 22 21 20 19 18 17 17 16 15 15 15
28 22 15 14 15 16 15 14 15 18 20 21 21 23 24 24 24 24 24 25 25 24 23 23 23 23 22 21 20 22 23 22 20 19 18 17 17 16 16 16 16 16
26 21 16 14 14 16 15 14 15 17 19 20 20 23 25 25 25 25 25 25 24 24 24 24 24 23 21 21 21 22 22 20 19 18 17 17 17 16 16 16 16 16
23 21 18 15 15 16 16 15 16 18 21 23 23 24 25 26 26 26 25 24 23 23 24 25 24 22 21 21 22 21 20 19 18 17 17 18 18 17 17 18 18 18
21 20 17 15 16 18 18 17 19 21 24 25 25 24 24 25 25 24 24 23 23 23 24 25 24 23 22 22 21 20 18 18 18 18 19 19 20 20 20 20 20 19
21 18 16 16 17 18 18 19 22 24 24 24 23 23 22 23 23 22 22 22 23 23 24 25 24 24 24 23 21 19 19 19 20 21 22 22 22 22 22 22 21 21
20 19 18 17 17 18 18 20 23 23 23 24 24 23 22 22 22 21 21 22 23 23 24 25 24 23 23 22 20 20 20 21 22 23 24 24 24 24 23 23 22 21
22 21 20 19 19 21 22 23 23 23 23 24 23 22 21 22 22 21 21 22 22 22 24 24 22 22 22 21 21 22 23 24 25 25 26 26 26 24 23 22 22 21
24 24 21 21 22 24 25 25 24 23 22 22 21 21 21 21 21 19 19 21 22 23 23 22 22 23 23 23 23 24 25 26 26 27 27 27 26 25 23 22 22 21
26 25 22 22 23 25 25 25 24 22 21 22 21 20 21 22 21 18 18 20 23 24 23 21 22 24 25 25 24 23 24 26 28 28 28 27 26 24 23 22 22 21
23 23 22 22 23 24 25 25 23 22 21 21 20 18 19 21 21 20 19 20 22 23 22 21 22 23 24 25 24 23 23 26 28 29 28 27 26 24 24 24 23 22
18 18 21 22 22 22 24 24 22 21 21 20 20 19 19 21 23 22 20 20 21 22 21 21 21 22 22 23 23 23 24 26 27 28 27 26 25 25 25 25 24 23
17 18 20 22 21 22 24 23 21 20 19 18 20 21 21 22 23 22 21 21 22 22 22 22 22 23 23 24 23 24 24 25 25 25 25 25 25 25 25 24 23 22
16 18 19 21 22 23 23 22 20 19 19 21 22 23 22 22 23 22 21 22 22 22 21 21 22 23 23 23 23 23 23 23 23 24 24 24 24 24 23 22 21 20
15 16 17 19 21 22 22 22 21 20 22 23 24 25 24 23 22 22 22 22 21 21 21 21 21 21 21 21 21 22 22 23 24 24 23 23 23 23 21 21 21 21
13 14 14 17 19 21 22 23 22 21 23 24 25 26 25 23 23 23 23 22 21 21 21 21 21 21 21 21 21 22 23 23 23 23 23 23 22 22 21 22 22 22
13 13 13 15 17 20 22 22 21 21 22 24 25 26 25 24 24 24 24 23 23 22 22 21 22 23 23 23 23 23 23 23 24 24 23 23 23 22 22 22 22 23
13 14 14 15 17 20 22 21 21 22 22 22 23 23 23 24 24 24 25 25 24 24 23 23 24 25 24 24 24 23 22 22 23 23 23 23 23 23 22 22 22 23
11 13 14 15 17 19 20 21 22 23 23 21 21 21 22 23 24 24 25 25 26 25 25 25 25 25 24 23 23 23 22 22 23 23 24 23 23 23 23 22 23 24
9 10 12 15 18 19 19 20 22 24 24 23 21 21 23 23 23 24 25 26 26 26 26 26 25 24 24 24 25 25 24 22 23 23 22 21 22 23 23 23 23 23
8 8 10 13 18 20 20 22 23 23 24 23 22 23 23 23 23 24 26 27 27 27 27 26 25 24 24 25 26 27 26 23 21 20 20 19 20 21 22 23 23 23
8 8 9 10 13 16 18 22 24 23 22 23 23 23 22 22 22 24 26 26 26 26 25 25 24 24 25 25 26 27 25 22 19 20 22 23 23 22 22 22 23 24
8 8 8 9 9 11 15 19 21 21 21 23 25 24 22 21 21 21 22 24 25 25 24 22 21 21 22 23 24 25 24 21 20 22 24 26 25 24 24 24 26 28
10 10 10 10 9 10 15 19 21 22 24 25 26 26 26 25 23 20 19 21 23 26 26 23 21 20 21 21 21 23 24 24 24 26 27 28 27 27 29 30 32 33
14 13 12 12 11 11 14 17 19 22 25 27 29 29 29 27 24 22 20 20 21 24 24 22 22 22 22 22 23 26 27 26 27 28 29 30 31 32 34 36 37 38

ECMWFNIL_500_spd_096.txt.gz
Wind_Speed
28 27 27 26 25 25 24 23 23 24 24 24 24 24 25 25 25 26 27 27 26 25 25 25 25 24 23 23 23 24 24 22 21 21 20 19 20 20 20 19 19 19
28 27 27 26 24 23 22 22 22 23 23 24 25 24 25 26 27 27 27 27 26 25 25 26 25 24 23 22 23 24 24 23 22 21 20 20 20 20 20 19 18 19
29 29 28 26 24 23 21 21 22 22 22 23 23 23 23 25 28 28 28 27 26 26 26 26 25 24 23 22 23 24 23 22 22 21 21 21 21 20 19 18 18 18
32 33 32 28 25 23 21 20 21 22 21 21 23 24 23 24 27 28 28 28 28 27 27 27 26 24 23 23 23 23 23 22 22 22 21 21 21 20 19 17 17 18
33 35 33 29 26 23 21 21 21 22 23 22 22 24 23 23 26 28 28 28 28 28 28 27 26 24 23 23 23 23 23 23 22 22 21 21 21 20 19 18 18 18
33 35 32 29 25 22 22 24 23 23 23 21 21 23 23 23 24 26 27 28 28 28 27 27 25 24 24 23 24 24 24 24 23 21 21 22 21 20 19 18 18 18
35 35 31 29 26 24 25 27 24 23 23 21 21 24 25 24 23 25 26 27 27 27 27 27 26 25 24 24 25 26 26 25 23 22 22 23 22 21 20 19 18 18
35 33 29 28 27 26 26 25 23 24 24 23 22 24 25 25 24 24 25 26 26 27 27 26 26 25 25 25 27 27 27 25 23 23 23 23 22 21 20 19 18 18
30 29 27 28 29 27 25 24 24 26 25 24 24 25 26 26 25 25 25 25 26 26 27 27 26 26 26 26 27 28 27 25 24 24 23 23 22 21 20 19 19 19
26 27 27 28 28 27 26 25 26 26 25 25 26 26 26 25 24 25 25 26 26 26 26 27 27 26 25 26 27 27 27 26 25 24 24 24 23 23 22 21 21 21
22 24 26 26 26 27 27 25 24 24 24 25 26 25 24 23 23 24 25 25 26 25 25 26 26 25 25 26 27 27 27 27 26 25 25 25 25 24 24 23 23 24
18 22 24 25 26 27 27 26 25 23 24 26 25 24 22 21 22 23 24 24 25 25 25 25 25 24 25 26 27 27 27 27 27 26 26 26 26 26 26 26 26 26
15 18 21 24 26 27 28 27 25 24 25 25 25 23 21 21 21 22 23 23 24 24 25 24 23 23 25 26 27 28 27 27 27 26 25 25 26 27 27 27 27 27
13 16 18 20 23 26 27 27 25 24 25 25 24 23 22 21 21 21 21 22 23 23 24 23 24 25 26 26 26 27 27 28 28 27 26 25 26 27 28 28 28 28
12 14 16 18 19 21 23 24 24 24 24 25 24 23 22 22 22 21 21 22 23 23 22 22 24 25 26 25 25 26 28 28 28 27 27 26 26 27 27 27 28 28
13 13 14 16 17 18 19 21 22 21 23 24 23 22 22 23 23 22 21 23 23 21 20 22 23 25 25 26 27 28 29 28 28 28 27 26 26 25 25 25 25 25
13 12 12 13 14 15 17 20 20 20 21 22 21 21 21 21 23 22 21 21 22 21 21 22 24 25 27 28 30 30 29 28 27 26 26 24 23 22 22 22 23 24
11 12 11 11 12 13 14 18 20 20 20 20 20 21 21 21 23 22 20 20 22 23 23 23 24 26 28 30 30 29 27 25 24 23 22 21 20 21 22 23 24 25
9 10 10 11 12 12 12 16 19 20 20 20 21 22 22 23 24 23 22 22 23 24 24 24 26 27 29 30 29 27 25 24 23 22 21 21 21 23 24 26 27 27
9 10 9 10 12 12 12 15 18 18 19 21 22 22 22 23 24 24 24 23 23 24 24 25 27 28 29 30 29 26 25 24 24 23 23 23 24 25 27 28 28 27
10 9 9 8 8 11 12 14 17 19 21 22 21 21 23 24 23 23 23 22 22 23 23 25 27 28 29 29 28 27 25 25 25 25 25 25 25 26 27 26 26 25
11 10 9 8 7 10 14 16 18 20 21 21 21 24 27 25 21 20 21 21 22 22 24 26 28 28 29 28 27 26 26 26 26 26 26 25 25 24 24 24 23 24
12 11 10 9 8 10 13 17 18 18 18 18 23 29 29 24 20 19 21 22 22 23 24 26 28 29 29 27 27 26 27 27 26 25 26 25 24 24 23 23 23 23
12 12 12 11 9 8 9 12 14 17 19 20 23 28 27 22 21 21 21 22 22 22 23 26 28 29 28 28 28 27 28 27 26 25 26 25 24 24 25 25 25 25
13 13 13 13 12 10 9 9 10 16 21 22 23 26 26 24 23 22 22 23 22 21 21 23 27 28 28 28 29 29 29 28 26 26 26 26 26 26 26 27 28 28
15 15 14 14 14 13 12 10 10 13 17 20 23 26 26 25 25 24 23 23 22 20 19 21 25 28 28 29 29 28 28 26 24 24 24 24 25 24 24 27 29 30

ECMWFNIL_500_spd_099.txt.gz
Wind_Speed
31 33 32 30 29 29 28 28 26 23 22 22 22 22 23 23 24 24 25 25 25 25 25 25 26 26 27 26 26 26 25 24 23 21 20 19 18 18 18 17 17 17
33 34 33 31 30 30 30 30 28 25 23 23 23 24 25 25 26 27 27 27 26 26 26 26 27 27 27 26 25 25 25 24 23 22 21 20 19 19 18 17 17 17
35 34 33 32 33 33 33 32 30 27 25 25 24 24 24 25 26 27 28 28 27 27 27 27 27 27 27 26 25 24 24 23 22 22 21 20 19 19 18 17 17 17
36 35 34 34 36 38 37 34 31 29 27 25 24 24 24 25 25 26 27 28 29 28 28 28 28 27 26 26 25 24 23 23 22 21 21 20 20 20 18 17 17 17
37 37 37 38 39 39 37 32 30 29 27 25 25 24 24 24 24 25 26 28 29 28 28 28 28 26 24 23 23 23 23 23 22 21 21 20 20 19 18 17 17 17
38 38 38 39 39 38 36 32 30 30 28 26 25 23 22 22 22 24 25 26 28 28 28 29 29 27 24 22 22 21 22 22 21 21 21 20 20 19 19 18 18 18
38 37 38 39 37 36 36 33 31 31 30 27 25 23 22 21 21 23 24 25 26 27 27 28 29 28 26 23 21 21 21 21 21 22 21 21 21 20 19 18 18 19
31 32 34 36 35 34 35 33 31 31 31 29 27 24 22 21 21 22 23 23 25 25 24 25 28 28 26 24 22 22 23 23 23 23 22 22 22 21 20 19 20 20
23 25 27 31 33 33 33 31 29 29 30 29 27 25 23 21 20 21 22 23 24 25 24 24 26 27 27 26 25 25 25 25 25 24 24 23 22 21 20 20 21 21
20 22 22 24 29 31 30 30 29 29 29 27 26 25 25 23 21 20 22 24 24 25 25 25 25 26 28 28 27 27 27 26 26 25 25 24 22 21 21 21 21 22
15 17 18 18 21 26 27 28 29 29 28 26 24 24 24 24 22 21 22 24 25 26 26 25 25 26 28 28 27 27 27 26 26 26 25 24 23 23 22 22 22 22
8 10 13 13 16 21 24 27 28 28 27 24 22 22 23 23 23 23 23 24 26 27 26 25 24 25 26 27 27 26 26 26 27 27 26 25 24 24 23 23 23 23
6 7 9 11 14 18 22 25 27 26 25 24 23 22 23 24 24 23 23 23 24 25 25 25 25 25 25 26 26 26 26 26 27 27 27 26 25 24 24 23 23 24
8 8 8 10 13 16 20 23 25 26 26 26 25 24 24 24 24 23 22 21 22 23 24 25 25 25 25 25 26 26 26 26 26 27 27 26 25 24 24 24 24 24
10 10 10 11 13 16 19 22 24 27 28 28 27 25 25 24 23 23 23 23 22 23 24 25 25 25 25 25 25 25 25 25 26 27 26 26 26 26 25 24 24 24
12 12 11 12 14 16 18 20 22 24 26 27 26 26 26 25 23 24 25 24 24 24 24 24 24 25 26 26 25 24 25 26 27 27 27 28 27 26 25 24 24 24
12 12 12 13 14 15 16 17 19 20 22 24 26 26 26 25 24 25 26 25 24 24 24 24 24 24 25 26 26 26 27 29 29 28 28 27 26 25 24 24 24 25
11 12 12 12 13 13 13 14 16 19 21 23 25 25 24 24 23 25 25 25 25 25 24 24 25 25 25 26 27 28 29 30 30 29 28 27 26 26 26 27 27 27
12 12 11 10 11 11 12 11 13 17 21 22 22 22 22 22 23 24 25 25 25 26 26 25 25 25 25 25 27 29 30 31 30 30 29 28 27 27 27 27 27 27
12 12 11 10 10 10 11 11 10 13 17 19 20 20 21 22 24 25 25 25 26 27 26 26 25 25 24 25 26 28 29 29 29 29 28 28 27 26 25 25 25 25
12 12 11 11 10 10 9 9 9 11 14 17 19 20 21 24 26 26 25 26 27 27 26 25 25 25 25 25 27 28 28 28 28 28 28 27 26 25 25 25 24 24
13 12 12 11 11 11 10 10 11 13 14 16 19 22 22 23 25 25 25 27 28 27 25 25 25 25 25 26 27 28 28 29 29 29 28 27 27 26 26 25 24 23
13 13 12 11 11 13 13 12 13 15 18 18 19 21 22 24 25 26 27 28 28 27 26 26 25 25 25 25 26 27 29 29 29 29 29 28 28 27 26 25 25 25
15 14 14 13 13 13 14 14 14 12 16 20 20 20 23 25 26 27 30 30 28 27 26 25 25 24 24 24 25 27 29 29 29 29 29 29 29 28 27 26 26 26
17 16 15 15 14 14 14 15 15 13 11 14 17 21 24 25 26 29 32 30 26 25 25 24 23 23 23 23 24 26 28 29 29 29 29 29 28 27 26 25 25 26
19 18 17 16 16 16 16 15 15 16 15 14 13 18 26 28 28 30 31 29 25 25 24 23 23 23 23 24 25 27 28 28 29 29 30 29 29 28 27 27 27 27

ECMWFNIL_500_spd_102.txt.gz
Wind_Speed
33 33 33 33 35 37 37 34 31 32 31 29 28 28 28 26 23 20 20 20 19 20 21 22 23 23 20 18 19 20 20 20 20 19 18 18 19 19 20 20 19 18
35 35 34 34 34 37 37 34 32 34 33 30 29 29 28 27 25 22 21 21 21 21 22 23 23 23 21 19 19 20 20 20 19 19 19 19 21 22 22 21 19 18
38 38 37 35 35 37 36 33 32 34 34 31 29 29 28 27 26 24 24 24 23 23 24 24 25 25 24 22 21 21 21 21 21 21 21 22 23 24 22 20 19 18
40 39 38 37 37 37 35 32 32 34 34 31 29 29 30 27 26 26 26 26 26 25 26 26 27 27 27 26 25 24 22 22 22 22 22 23 24 24 22 19 18 18
39 38 38 38 38 38 35 33 33 33 32 30 28 29 30 28 26 26 27 27 26 26 26 27 28 28 28 28 26 25 24 23 23 24 23 24 24 23 21 19 18 18
37 37 37 36 36 35 33 31 32 31 31 30 29 29 31 30 27 26 26 27 27 27 27 28 30 29 28 28 26 25 24 24 24 25 25 24 23 23 22 20 19 19
35 35 35 33 33 32 30 29 30 29 30 30 28 29 30 30 28 26 26 26 27 27 28 28 29 29 28 28 28 27 26 26 25 26 26 25 24 24 23 21 20 20
33 34 32 29 29 28 27 26 27 28 30 31 30 30 31 30 28 26 26 27 27 27 26 26 27 28 28 28 28 27 27 26 26 25 25 25 25 24 23 21 20 20
28 27 25 24 22 21 22 24 25 27 30 31 31 30 31 30 27 25 25 26 26 25 24 24 25 26 28 27 26 26 25 25 25 24 23 24 24 23 23 21 20 19
23 19 16 18 18 17 19 22 25 27 29 30 29 28 29 29 27 26 25 25 25 24 24 23 23 24 26 26 26 26 25 24 24 23 23 23 24 24 23 21 20 19
21 17 11 11 13 14 16 18 22 24 26 25 25 25 25 25 25 26 26 25 24 23 23 23 22 23 24 24 25 24 23 23 24 22 21 23 25 25 23 21 20 19
20 18 13 8 8 10 11 12 15 19 21 22 23 24 24 23 24 25 26 25 24 23 22 21 22 23 24 23 23 23 23 23 22 20 20 23 26 25 23 21 20 20
18 17 16 12 8 7 8 8 10 13 17 21 23 24 24 23 23 24 25 25 24 23 21 22 23 25 24 23 22 22 23 23 22 22 24 26 26 24 22 22 21 21
17 17 16 14 12 9 8 9 10 13 16 20 22 24 24 23 23 24 24 24 24 24 24 24 26 27 26 24 22 20 21 23 23 24 26 26 25 23 22 22 22 22
16 16 16 15 13 12 11 11 11 13 16 19 21 22 22 24 25 24 24 24 24 24 25 25 25 26 26 24 23 23 24 26 25 25 24 24 24 23 23 23 23 23
15 15 15 15 14 13 13 12 13 14 16 19 20 21 23 26 27 26 25 25 24 23 24 24 24 25 26 26 27 26 27 28 26 24 24 24 24 24 23 24 24 24
15 15 15 14 14 14 13 13 13 14 16 18 20 22 25 28 28 27 27 27 25 23 24 24 24 25 25 26 26 26 26 27 26 25 24 24 24 24 24 24 25 26
14 15 15 14 14 14 14 14 14 14 15 17 19 21 24 26 27 27 27 27 25 24 24 25 25 25 25 26 26 25 25 26 26 26 24 24 24 24 25 26 26 26
13 15 15 14 14 14 15 14 14 14 15 16 17 19 22 23 24 25 26 25 25 25 25 24 24 25 25 26 26 25 25 26 26 26 25 24 25 26 27 27 27 27
12 14 14 14 14 15 16 16 15 14 14 15 16 18 20 22 22 24 24 24 24 24 24 22 23 25 26 25 26 26 26 26 25 25 26 26 27 28 28 28 28 29
12 13 14 14 14 15 16 17 18 15 12 12 13 15 17 20 21 22 22 23 24 24 24 25 25 26 26 27 27 27 28 27 25 25 26 27 28 29 29 29 29 30
13 13 14 14 14 16 16 17 19 18 14 12 12 14 15 17 19 20 21 22 24 25 25 24 25 27 28 28 29 29 29 28 27 27 27 27 28 28 29 29 29 28
13 14 14 14 14 16 17 17 18 18 17 16 14 14 16 17 18 20 22 23 24 25 25 23 24 29 30 29 30 30 30 29 28 28 28 28 28 28 28 27 27 26
15 15 15 16 15 15 16 18 18 18 19 19 17 14 15 20 21 21 24 27 27 28 27 26 29 33 32 31 30 30 30 30 29 28 28 28 28 27 27 27 26 26
18 17 17 17 17 16 16 17 18 18 18 20 19 16 14 18 23 24 25 27 28 29 29 29 33 35 34 32 31 30 30 30 29 28 26 25 26 27 27 27 28 27
20 20 20 19 19 18 18 17 17 17 17 18 19 19 17 16 19 24 26 27 27 28 30 31 34 36 35 33 31 30 31 30 30 28 24 22 26 29 28 29 29 29

ECMWFNIL_500_spd_105.txt.gz
Wind_Speed
34 35 36 37 39 40 41 40 38 37 36 34 32 29 25 24 26 27 27 29 29 26 24 23 23 20 20 23 22 20 20 21 21 21 20 20 20 20 20 20 20 21
36 37 38 40 42 43 43 43 41 39 37 35 32 29 25 24 25 25 26 28 29 29 26 23 23 21 20 22 23 20 20 21 23 24 23 21 21 22 22 22 21 21
39 40 42 43 44 44 43 41 40 38 36 34 31 29 26 23 23 24 25 27 29 29 27 24 23 23 22 22 22 21 20 22 24 24 23 23 22 22 23 22 21 21
40 42 43 43 42 41 39 37 36 35 33 32 31 29 27 23 22 23 24 27 28 28 28 26 25 24 24 22 21 21 23 24 23 22 22 23 22 21 21 21 20 21
40 40 39 38 37 37 37 36 35 33 31 31 29 27 25 22 22 22 24 26 28 28 27 27 26 26 25 24 22 21 23 24 23 22 21 21 21 22 22 21 20 20
35 34 33 34 35 37 38 36 35 34 32 30 27 24 24 21 20 22 24 26 28 28 26 26 26 26 26 26 24 23 24 24 24 22 20 21 22 23 22 20 19 19
31 30 30 32 34 37 38 34 31 31 28 26 24 21 19 18 18 21 23 25 27 28 27 26 26 26 26 26 25 25 26 25 25 23 22 23 23 22 21 20 19 20
29 28 29 31 33 35 35 30 26 24 22 22 24 21 18 16 18 20 22 24 26 27 27 27 27 27 27 27 27 27 27 27 27 25 24 24 24 23 21 20 21 22
27 27 28 29 31 32 30 26 22 19 17 19 21 21 19 17 18 20 22 24 25 26 27 28 28 28 27 26 26 27 28 28 27 26 26 25 24 23 21 20 23 22
27 27 27 27 28 27 23 22 19 16 16 17 18 19 20 18 19 21 23 24 25 27 28 29 30 29 27 25 25 26 26 25 25 25 26 25 24 23 21 21 23 21
26 26 25 25 25 24 20 18 17 16 16 16 17 19 21 21 22 23 25 26 27 27 29 29 28 26 25 24 23 23 23 24 24 25 25 25 25 23 22 22 22 21
24 24 24 23 23 23 21 16 12 12 13 13 15 18 20 22 24 25 27 29 28 27 28 28 27 25 23 23 23 23 23 23 24 25 25 26 25 24 23 23 22 20
21 22 22 22 21 22 21 18 13 10 9 9 11 15 18 20 23 25 26 28 27 25 25 26 26 26 25 24 25 25 23 22 23 24 25 26 26 25 24 24 23 20
19 20 20 20 20 21 21 19 15 12 10 10 11 14 16 19 23 24 25 26 26 25 24 25 25 26 25 23 23 24 24 24 25 24 25 25 25 25 23 22 21 18
18 19 19 19 19 20 20 19 17 15 13 12 13 15 16 17 20 23 24 25 26 26 25 24 24 24 24 24 23 23 23 24 24 24 25 25 24 23 21 19 19 19
18 19 19 18 18 18 19 19 18 16 15 14 14 14 16 18 20 23 24 26 27 26 24 23 23 22 22 24 24 23 22 23 23 23 24 23 22 21 19 19 22 23
19 19 19 19 18 18 18 19 18 17 16 16 15 15 16 19 21 23 24 26 27 26 24 23 21 20 21 23 23 22 22 22 21 19 20 21 20 19 20 22 25 24
19 19 19 19 19 18 18 18 19 19 18 17 17 16 16 18 21 22 23 25 26 26 26 25 23 21 21 23 22 22 22 22 20 18 19 20 19 19 23 25 25 25
19 19 19 19 19 18 19 19 20 20 20 19 18 16 14 16 19 20 21 23 25 26 27 27 25 23 23 23 23 22 22 23 23 21 20 20 21 23 26 26 26 25
19 19 19 19 19 18 18 19 20 22 22 21 19 16 12 14 17 18 19 21 22 24 25 26 25 24 24 24 23 22 22 23 24 24 24 23 24 25 26 26 26 26
19 19 19 19 18 18 18 19 20 22 23 22 20 18 15 13 14 15 16 17 19 21 22 24 25 25 25 24 23 22 22 23 25 26 26 26 26 26 25 25 25 24
19 19 19 19 19 18 19 19 20 21 22 22 21 20 19 16 13 14 14 14 16 19 21 22 24 23 22 22 23 22 22 23 24 25 26 26 26 27 26 25 25 25
19 19 19 20 19 19 19 19 20 21 21 21 21 20 20 19 16 14 14 14 15 16 18 20 21 21 21 23 24 24 24 24 23 23 25 27 28 29 28 28 29 28
19 19 19 19 19 19 19 19 20 21 21 21 21 20 20 20 18 15 14 15 16 15 15 18 21 23 24 25 25 25 25 25 24 26 29 31 31 32 31 29 29 30
20 19 20 19 19 19 20 20 20 21 21 21 21 21 20 19 19 17 15 14 16 17 18 20 23 25 26 26 25 25 26 27 27 29 30 29 29 29 28 26 27 29
20 20 21 21 21 21 21 21 21 21 22 21 20 21 20 19 19 18 16 15 15 16 19 22 24 26 28 29 29 28 30 30 28 27 27 27 28 28 27 27 28 29

ECMWFNIL_500_spd_108.txt.gz
Wind_Speed
32 33 33 34 35 35 35 37 38 38 39 39 38 37 39 41 41 37 33 31 28 23 22 20 20 22 21 20 20 20 22 23 23 24 23 22 22 21 21 22 22 22
32 32 32 33 35 35 35 37 38 38 37 36 34 34 36 39 40 39 35 32 28 24 22 20 19 20 21 20 20 19 20 20 22 24 23 23 22 22 22 22 22 22
31 31 31 32 34 35 36 36 37 37 36 36 35 32 33 36 37 38 37 33 28 24 22 21 19 19 20 20 20 19 18 19 21 23 23 22 22 22 22 22 22 23
30 29 30 32 34 35 36 36 36 37 38 38 37 32 32 33 33 34 34 31 27 25 23 19 18 18 20 20 20 20 20 20 21 22 24 23 21 21 21 21 22 24
28 28 30 32 33 34 34 35 36 38 39 40 37 32 30 30 29 29 30 29 26 23 20 18 17 18 19 20 20 20 21 21 21 21 23 23 22 21 21 22 23 23
27 28 30 31 31 32 34 35 36 37 39 39 35 30 28 27 26 26 27 28 25 20 18 18 18 18 19 20 20 21 21 22 22 21 22 23 23 21 21 22 22 22
27 28 30 30 30 32 34 34 35 37 38 38 32 27 26 24 24 24 26 27 24 22 19 18 19 19 20 20 20 21 22 22 23 22 22 22 22 22 21 21 21 22
27 28 29 29 29 31 33 33 34 35 37 35 29 25 23 20 21 23 26 26 24 22 20 20 21 20 20 21 22 22 22 23 24 23 23 23 22 23 23 23 22 22
27 27 28 29 29 30 31 32 32 33 34 32 27 23 20 18 19 23 26 27 25 22 21 22 21 21 21 22 22 22 22 23 24 23 24 25 24 24 25 25 24 24
26 26 28 29 28 29 30 30 30 31 31 30 26 23 20 18 19 22 26 27 26 24 23 22 21 20 21 21 21 21 21 21 22 23 25 26 25 26 26 25 25 24
26 26 27 27 27 27 28 28 28 29 29 28 26 22 20 19 20 22 24 26 25 25 23 22 21 19 19 20 20 20 20 21 22 23 24 25 25 26 26 25 24 23
25 25 26 26 25 25 26 27 28 28 28 27 26 23 20 19 20 22 25 26 26 26 24 22 21 19 19 20 20 19 20 20 22 23 23 24 24 23 24 24 23 23
24 24 25 24 24 24 25 26 27 27 27 26 25 24 21 18 18 20 22 24 25 25 23 22 23 22 20 21 21 19 19 19 21 22 22 22 21 21 22 23 23 24
24 23 24 24 23 24 24 25 27 27 26 26 25 24 22 19 17 18 19 20 22 23 23 23 24 23 21 22 22 19 18 19 19 20 21 21 20 20 22 23 23 23
23 23 24 24 24 24 25 25 26 26 26 25 24 24 23 21 19 18 19 19 20 21 22 22 23 22 22 23 22 20 19 19 19 20 20 21 21 21 21 22 22 23
23 23 24 24 24 25 25 25 25 25 25 25 25 24 24 23 21 19 18 18 18 19 21 22 22 22 22 23 22 20 19 19 19 19 20 22 22 20 20 22 22 23
23 23 24 24 24 24 25 24 24 25 25 24 24 24 24 24 23 21 18 17 17 19 21 23 24 23 23 23 22 21 19 19 19 19 19 21 22 21 22 22 22 22
23 23 24 24 24 24 24 24 24 24 24 24 24 24 24 24 24 21 18 16 17 19 21 23 24 24 23 22 21 21 20 19 19 19 19 21 23 23 23 23 22 21
24 24 24 24 24 24 23 23 23 23 23 23 23 24 24 23 23 22 18 16 17 18 20 21 22 22 23 22 21 21 21 20 20 20 21 22 22 22 22 23 24 23
24 24 24 24 24 24 23 23 23 22 23 23 23 23 23 23 22 22 21 18 16 17 19 20 20 21 22 23 23 23 22 21 20 20 21 22 21 20 20 22 23 23
25 25 25 25 25 24 23 23 23 22 22 22 22 23 23 22 22 22 22 21 17 15 16 17 17 19 21 21 21 22 22 20 20 20 20 20 21 21 21 21 22 22
26 26 25 25 25 24 23 22 23 22 22 22 22 22 22 22 22 22 22 22 20 15 13 14 15 17 18 19 19 21 21 20 20 20 19 19 21 22 21 20 20 21
27 26 25 25 25 24 23 22 22 22 21 22 21 21 21 21 22 22 21 22 21 17 13 12 14 15 16 17 18 19 20 20 20 19 18 19 21 21 21 20 21 21
27 26 26 25 25 24 23 21 21 21 21 21 21 21 21 20 21 21 21 20 20 19 17 14 13 14 15 16 17 17 17 19 20 19 18 19 21 22 23 22 22 24
26 26 26 25 25 24 23 22 21 22 22 22 23 22 21 20 19 20 20 19 18 18 17 16 15 14 14 17 19 19 18 19 20 20 21 22 24 24 24 22 21 23
26 26 26 26 25 25 24 24 24 24 24 24 24 23 22 20 19 19 19 18 17 17 17 16 16 15 14 15 16 18 20 21 22 23 24 24 25 26 27 26 25 23

ECMWFNIL_500_spd_111.txt.gz
Wind_Speed
26 27 28 29 30 29 29 29 30 31 32 33 35 36 37 39 40 39 38 36 35 35 34 31 29 28 27 26 23 19 16 16 16 17 17 17 21 24 25 25 24 23
27 27 28 29 30 29 29 29 30 31 32 33 35 36 37 39 40 38 37 34 34 35 33 31 29 26 24 23 22 18 17 16 16 16 18 18 19 22 24 25 23 23
27 27 28 29 30 29 29 29 30 31 32 34 35 37 38 40 39 36 33 31 32 32 31 29 27 25 24 23 23 21 19 17 16 17 17 18 19 21 23 24 23 23
27 28 29 29 29 28 29 29 31 32 33 34 35 37 39 40 39 35 30 29 28 27 26 26 26 25 24 24 23 22 20 17 16 17 16 16 18 20 22 23 23 23
27 28 29 29 29 28 28 29 30 32 33 35 36 37 38 40 39 34 30 28 26 24 22 23 24 23 24 23 22 22 20 17 16 18 17 16 17 19 21 22 23 23
27 28 29 29 29 29 29 29 30 31 33 34 35 36 37 39 37 33 29 27 24 22 20 21 21 22 24 24 23 22 21 19 19 20 19 17 18 19 20 21 21 22
28 29 29 29 29 29 29 29 30 31 32 33 34 34 36 37 35 31 27 25 21 18 18 19 20 21 23 23 22 21 21 21 21 21 20 18 18 18 19 20 21 22
28 29 30 30 29 29 28 28 29 30 31 31 32 33 34 35 35 31 26 23 19 16 16 17 19 20 21 20 20 20 21 22 22 20 19 18 18 18 19 20 22 23
29 29 30 29 29 28 27 27 28 29 30 30 31 31 32 33 33 31 26 22 19 15 15 16 17 17 17 18 19 20 20 20 20 19 18 18 18 19 20 21 22 23
29 30 30 29 28 28 26 26 27 28 29 30 30 30 30 31 31 30 27 22 18 16 14 15 16 16 17 19 20 20 19 19 19 19 19 19 19 19 21 22 22 23
29 30 29 29 28 27 26 26 27 27 28 29 29 30 29 29 30 28 26 22 18 16 14 14 16 18 20 21 19 18 19 19 19 19 19 19 19 19 21 23 24 24
30 30 29 29 28 26 25 25 26 27 27 28 28 29 29 29 29 27 25 22 19 16 15 16 18 21 23 22 19 18 18 18 17 17 18 19 19 20 21 24 25 23
30 30 29 28 27 26 25 25 26 26 27 28 28 28 28 28 28 27 24 22 19 17 16 17 19 21 22 21 20 18 17 17 17 17 18 19 20 20 21 23 25 23
30 29 29 28 27 25 25 25 26 26 26 27 28 27 28 28 27 27 25 22 20 18 17 17 18 19 20 19 19 19 18 18 18 18 17 18 19 20 21 23 24 23
29 29 28 27 26 25 25 25 26 27 26 26 27 27 27 27 27 26 26 24 21 19 18 18 18 18 19 18 18 19 19 18 18 18 18 18 18 18 20 23 23 23
29 28 28 27 26 25 25 25 26 27 26 26 26 26 26 26 26 25 25 24 23 21 18 18 17 17 17 18 17 18 18 18 18 19 19 20 19 18 19 22 23 23
28 28 28 27 26 25 24 25 26 27 27 26 25 26 26 25 25 24 24 23 22 21 19 18 18 18 17 18 18 19 19 18 18 19 20 20 20 18 19 21 22 22
27 27 27 27 26 25 24 24 25 27 26 25 25 25 25 24 24 23 22 22 21 21 21 19 18 18 18 18 19 20 20 19 18 18 18 18 18 18 19 20 20 20
27 27 27 26 26 25 24 24 25 26 26 24 24 24 24 24 23 22 21 21 21 21 21 21 19 18 17 18 18 18 18 18 18 18 17 17 17 18 19 20 20 21
27 27 27 27 26 25 25 24 25 26 25 24 23 23 23 23 22 21 19 19 20 20 20 22 21 17 16 17 17 17 17 17 18 18 18 18 18 18 19 20 20 21
27 28 28 28 27 26 25 24 24 25 24 23 22 22 22 22 21 20 19 18 18 19 19 20 21 19 16 15 16 15 15 16 17 18 19 19 19 19 19 20 20 19
28 29 29 29 28 27 26 25 24 25 24 22 21 21 21 21 21 21 20 19 17 17 17 18 19 18 17 15 14 13 14 15 16 16 17 18 19 19 19 18 18 18
29 30 30 30 29 28 26 25 24 24 24 22 20 20 21 22 23 22 21 20 18 16 16 16 16 17 16 16 15 15 16 17 16 15 15 16 17 18 18 18 17 18
30 31 31 31 30 28 26 25 25 25 24 23 21 21 21 22 23 23 22 20 18 16 15 14 14 13 13 14 15 15 15 16 16 15 14 15 16 16 16 17 18 19
29 30 30 30 30 28 27 26 25 25 25 24 22 22 22 23 24 24 23 20 18 16 14 13 13 12 12 13 14 15 14 13 14 14 15 16 17 17 17 17 18 19
27 28 29 29 29 28 27 26 25 25 25 24 24 24 24 24 24 24 22 19 17 16 14 13 13 13 13 13 13 14 13 12 12 12 13 15 17 19 20 19 19 20

ECMWFNIL_500_spd_114.txt.gz
Wind_Speed
27 27 26 26 26 26 26 26 27 28 29 30 30 31 31 32 33 34 34 35 36 37 36 33 31 32 32 28 27 27 26 27 27 26 25 24 22 21 22 25 28 26
27 27 27 27 27 27 27 27 27 28 29 29 30 30 30 31 32 33 34 35 37 38 35 31 30 30 28 25 24 25 25 25 26 26 25 22 21 20 21 25 28 28
27 27 27 27 27 27 27 27 28 28 29 29 29 29 30 30 31 33 34 35 36 36 34 30 28 27 24 22 22 23 24 24 25 25 23 21 21 20 20 23 26 29
27 27 27 27 27 27 28 28 28 28 29 29 29 29 29 30 31 32 33 34 35 35 32 28 26 23 21 20 21 21 22 23 24 23 22 21 21 20 21 22 24 25
28 28 27 27 27 28 28 28 28 28 28 28 28 28 28 29 30 31 33 33 34 35 31 26 23 20 18 18 19 18 18 20 22 22 22 22 21 20 20 22 23 23
28 28 28 28 28 28 28 28 28 28 28 27 27 27 27 28 30 31 32 33 34 34 30 24 20 18 17 16 16 15 15 17 20 22 23 23 21 20 19 20 22 22
29 29 29 28 28 28 28 28 28 27 27 26 26 26 27 27 29 30 32 33 33 33 29 22 18 16 14 13 13 12 13 16 19 22 23 22 21 20 19 19 20 21
30 30 29 29 28 28 28 27 27 27 26 25 25 26 27 27 28 29 31 31 31 31 29 22 17 15 13 11 10 10 11 13 17 20 21 21 21 21 20 19 20 21
31 31 30 29 28 28 27 27 27 26 25 24 25 26 27 27 27 28 29 30 30 29 28 21 16 13 12 9 7 7 8 10 14 18 20 21 21 21 20 20 20 21
31 31 30 29 28 28 27 27 27 25 24 24 25 26 27 26 26 26 27 29 29 28 26 21 15 12 11 8 7 7 9 11 14 17 19 20 20 20 20 20 20 20
32 31 30 29 28 27 27 27 27 25 23 23 24 25 26 26 26 26 26 27 28 27 26 22 17 13 12 11 11 12 13 13 14 16 19 20 21 21 20 19 19 19
32 31 30 29 28 27 27 27 26 24 22 23 24 25 26 26 26 25 25 25 27 26 25 23 19 15 13 14 15 16 16 15 15 15 18 20 21 21 20 19 20 21
32 31 30 28 27 26 26 26 25 23 22 22 23 24 25 25 25 25 23 23 25 25 24 23 20 16 15 15 16 17 17 16 17 17 18 19 19 19 19 20 20 21
31 30 29 28 27 26 26 25 24 23 22 21 22 23 24 24 25 24 23 22 23 24 24 23 22 19 16 15 15 16 16 16 17 18 18 18 18 19 19 19 19 20
30 29 29 28 27 26 25 24 23 23 22 22 22 23 23 23 24 24 22 21 22 23 23 22 22 21 18 16 15 15 16 16 17 18 18 18 18 18 17 17 18 19
30 29 28 28 27 26 25 24 23 23 23 22 22 22 23 23 23 23 22 21 21 21 22 21 21 21 19 16 15 14 15 16 17 18 17 18 18 18 17 17 18 19
29 28 28 27 26 25 24 23 22 22 22 23 23 23 23 22 22 22 21 20 19 20 21 21 20 20 19 16 14 14 14 15 17 18 18 18 19 19 18 19 19 20
28 27 27 26 26 25 23 22 22 22 23 23 23 23 23 22 21 21 20 18 18 19 20 20 20 20 19 16 14 14 15 16 17 18 19 19 19 19 18 18 19 20
27 26 25 25 25 24 23 23 22 23 23 23 23 22 22 21 20 20 19 18 17 18 19 20 20 20 17 14 14 15 15 15 16 17 19 19 19 19 18 18 18 18
26 26 25 24 24 24 23 23 23 23 23 23 23 22 21 21 19 19 19 18 17 18 18 19 20 19 17 15 15 14 14 14 14 14 16 18 19 19 19 18 18 18
26 25 25 25 24 24 24 24 24 24 24 23 23 22 22 21 19 19 19 19 19 18 19 19 20 20 19 17 14 13 14 15 14 13 12 14 16 18 18 18 19 19
26 26 25 25 25 25 25 25 25 25 24 23 22 21 21 21 20 19 20 20 20 20 20 20 20 20 19 15 12 13 15 17 16 13 13 13 14 15 16 16 17 18
26 26 26 26 26 26 26 26 26 25 24 23 22 21 21 21 21 20 20 21 21 21 21 21 21 20 18 15 14 15 16 16 16 14 15 15 14 14 14 15 16 16
26 26 26 26 26 26 26 26 25 25 24 22 21 21 21 22 22 21 21 21 22 22 22 21 21 20 18 16 15 15 16 16 15 14 14 14 15 15 15 14 15 15
25 25 25 25 25 25 24 24 24 23 23 22 22 21 22 22 22 21 21 21 21 22 22 21 20 19 18 17 17 16 15 15 14 13 13 12 13 15 15 15 16 16
24 24 24 24 24 24 24 24 23 23 22 22 22 22 22 22 21 20 20 20 20 20 21 21 20 18 17 17 17 17 15 14 13 13 12 12 12 13 15 17 18 18

ECMWFNIL_500_spd_117.txt.gz
Wind_Speed
29 29 28 27 27 27 27 27 27 26 26 26 25 26 27 28 29 30 31 31 31 31 32 33 34 36 35 34 32 32 32 30 28 26 25 25 26 27 27 26 26 27
30 29 28 27 27 27 28 27 27 26 26 26 25 25 26 27 28 29 30 30 30 31 32 32 34 35 34 32 31 30 28 26 25 24 23 23 23 25 26 25 24 25
30 29 29 28 28 28 28 27 27 26 26 26 25 25 26 26 27 28 29 30 30 30 32 32 33 34 32 30 28 27 24 23 22 21 20 21 21 22 23 23 23 23
30 30 29 29 29 29 28 27 27 26 26 26 25 25 25 26 26 27 28 29 29 30 31 32 32 33 31 27 26 25 22 20 19 18 18 19 19 18 19 21 21 22
31 31 30 30 30 29 28 27 27 27 26 26 25 25 25 25 25 26 27 28 28 29 30 31 32 32 30 26 24 23 21 18 16 15 15 16 16 15 17 19 19 20
32 32 31 31 31 30 29 28 27 27 26 25 25 25 25 25 25 25 26 26 27 28 29 30 31 31 28 24 23 22 19 15 13 13 13 13 14 14 15 18 18 18
33 33 32 32 31 30 29 28 27 27 26 25 24 24 24 24 24 24 25 25 27 27 27 29 30 29 27 23 22 21 18 13 11 11 12 12 13 14 15 17 18 17
33 33 33 32 31 30 30 29 28 27 26 25 24 23 23 23 23 23 24 25 26 26 26 27 28 28 26 22 20 20 17 12 9 9 11 12 13 14 15 16 17 17
33 33 33 32 31 30 30 29 28 26 26 24 23 22 22 22 22 23 24 24 25 25 25 25 26 26 25 22 19 17 15 10 8 9 11 12 13 14 15 16 16 17
34 33 33 32 30 30 30 28 27 26 25 23 22 21 21 21 22 22 23 24 24 25 24 24 24 25 25 22 19 16 14 12 12 14 15 14 14 16 17 17 17 18
34 33 32 31 30 30 29 28 26 25 24 23 22 22 22 21 21 22 22 23 23 23 23 23 23 23 24 23 20 17 16 17 18 18 17 16 15 16 17 17 18 18
34 33 32 31 30 30 29 27 26 25 24 23 22 22 21 21 21 21 21 22 22 22 22 22 22 22 22 23 21 19 17 19 20 20 19 18 16 16 17 17 18 19
33 32 31 30 30 29 28 27 26 25 24 22 21 21 20 20 20 20 20 21 21 22 22 21 21 21 21 22 22 21 19 18 19 20 19 19 17 17 17 17 18 19
32 31 30 30 29 28 27 26 25 24 23 21 21 20 19 19 19 19 19 20 20 21 21 21 21 21 21 21 22 22 21 19 17 18 19 18 18 18 18 18 18 18
32 31 30 29 28 27 26 26 25 24 22 21 20 19 18 18 19 19 19 19 19 19 19 20 20 21 21 21 22 22 20 18 16 16 18 19 18 18 18 19 18 18
32 31 30 28 27 26 25 25 24 23 22 21 19 18 18 18 18 19 18 18 18 18 18 19 20 20 21 21 21 20 18 17 16 16 17 18 19 20 19 19 19 18
31 30 29 28 27 25 24 24 23 22 21 20 19 18 18 18 19 19 18 18 17 17 17 18 19 20 20 20 20 19 18 17 16 16 16 18 19 21 21 21 20 20
30 30 29 27 26 25 24 23 22 21 20 20 19 19 19 19 19 19 19 18 17 17 17 17 18 19 20 20 19 20 19 18 16 16 16 17 18 20 21 22 22 21
29 28 28 26 25 24 23 22 21 20 20 20 20 20 20 20 19 19 19 19 18 18 18 18 18 19 20 20 20 21 20 18 16 16 17 17 18 18 19 20 20 20
27 27 26 26 25 24 24 23 22 21 21 21 21 21 21 21 20 19 19 19 19 19 18 18 19 20 21 21 20 20 19 17 17 18 18 18 18 17 16 17 19 20
26 26 25 25 25 25 24 23 23 22 22 22 22 22 22 22 21 20 19 20 20 20 19 19 19 20 21 21 20 19 18 18 18 18 17 17 16 15 15 16 17 19
26 26 25 25 25 25 24 24 23 23 22 22 22 22 21 21 21 20 20 20 20 20 20 19 19 19 20 20 20 20 19 19 19 18 17 16 15 15 16 17 17 17
27 27 27 26 26 25 25 24 23 23 21 21 20 20 20 20 20 21 21 21 21 21 20 20 19 19 19 20 20 19 19 19 19 18 17 16 15 15 16 17 18 18
28 28 28 27 26 25 25 24 23 22 20 20 19 19 19 19 20 20 21 22 21 21 20 19 18 19 19 19 19 19 19 18 18 18 18 17 17 16 15 15 17 18
29 28 28 27 25 25 24 24 23 22 21 20 20 19 19 20 20 20 21 21 21 20 19 18 18 18 18 18 18 18 19 19 18 18 18 18 18 18 17 16 16 17
28 27 26 25 25 24 24 23 23 22 22 22 22 22 22 22 22 22 21 21 20 19 18 18 18 18 18 18 18 18 19 19 19 19 19 18 18 18 19 18 18 17

ECMWFNIL_500_spd_120.txt.gz
Wind_Speed
25 25 26 27 27 27 28 28 28 28 27 26 25 25 25 24 23 23 23 24 25 25 26 26 28 29 30 32 34 36 37 38 36 34 32 32 31 28 26 26 26 26
26 27 28 28 28 28 29 29 28 28 28 27 27 26 26 25 24 23 23 24 25 25 26 27 28 29 30 31 33 36 37 36 34 32 30 30 28 25 23 23 22 23
27 28 29 29 29 29 29 29 28 28 28 28 28 27 27 26 25 24 23 24 24 25 26 27 28 29 30 31 33 35 35 34 32 30 29 27 25 22 20 19 20 22
28 29 30 30 30 30 30 29 29 29 29 29 29 28 27 26 25 24 24 24 24 25 25 26 28 29 29 30 31 33 33 31 29 27 26 23 21 19 17 16 17 19
29 30 31 31 31 30 30 30 30 30 30 29 30 29 27 26 25 25 24 24 24 24 25 26 27 29 29 29 29 31 30 29 27 24 22 20 18 16 14 14 15 17
30 31 32 32 32 32 31 31 31 31 30 30 30 29 27 25 25 24 24 24 25 25 24 25 27 28 29 28 28 29 29 27 25 22 19 18 16 14 13 13 15 15
32 33 33 33 33 33 32 31 31 31 30 30 30 29 27 25 24 24 24 24 24 24 24 25 26 28 28 28 27 28 27 26 24 21 17 16 15 15 14 14 15 15
33 34 34 34 34 33 32 31 31 30 30 30 29 28 26 24 24 23 23 23 23 23 23 24 26 27 28 27 26 27 26 25 23 20 17 16 17 17 16 15 15 15
34 35 35 35 34 33 31 31 31 30 30 29 29 27 25 23 23 23 23 22 23 23 23 24 25 26 27 27 26 26 25 24 22 20 19 19 19 20 18 16 16 15
35 36 36 35 34 33 32 32 32 30 29 29 27 26 24 23 22 22 22 22 22 22 23 23 24 25 26 26 26 26 25 24 22 21 21 21 21 21 21 19 18 16
36 36 36 35 34 33 33 32 32 30 29 28 26 25 24 23 22 22 22 22 22 22 23 23 23 24 25 26 26 25 25 25 23 21 21 21 21 21 21 21 19 17
36 36 36 35 34 34 33 33 32 30 29 27 25 24 23 22 22 22 22 22 21 22 22 22 23 23 24 25 25 25 25 25 24 22 20 20 19 19 19 20 18 17
36 36 35 35 35 35 34 33 31 30 28 26 25 24 23 22 22 21 21 21 21 21 22 22 22 22 23 24 24 24 25 25 24 22 20 19 19 18 18 18 18 17
36 36 35 35 35 35 34 33 31 29 28 26 24 23 22 22 21 21 20 20 20 21 21 21 21 21 21 22 23 23 24 24 23 21 20 19 19 19 19 18 17 17
37 36 36 36 36 35 34 33 31 29 27 25 24 23 22 21 21 21 20 20 20 20 21 21 21 21 21 21 22 22 23 23 23 21 20 19 19 19 20 19 18 18
37 36 36 36 36 35 34 32 30 28 27 25 23 22 22 21 21 21 21 21 20 20 20 21 21 21 21 21 22 22 23 23 22 22 20 20 19 19 20 20 20 20
37 36 36 36 36 35 33 31 29 28 26 25 23 22 21 21 21 21 21 21 20 20 21 21 21 21 21 22 22 23 23 23 23 22 21 20 20 20 20 20 21 21
37 36 36 36 36 34 32 30 29 27 26 25 24 23 22 21 21 22 22 22 21 21 21 21 21 21 22 22 23 23 23 23 23 22 20 20 21 21 21 20 19 20
36 36 36 36 35 33 31 30 28 27 26 25 24 24 23 22 22 22 22 22 21 21 21 21 22 22 22 23 23 23 23 24 23 22 20 20 21 21 21 20 18 17
36 35 35 35 34 32 30 28 27 26 26 25 25 25 24 23 22 22 22 22 21 20 20 21 22 22 23 23 23 23 23 24 23 22 21 20 20 20 21 20 18 16
35 35 35 34 33 31 29 27 26 26 26 25 25 25 24 24 23 22 21 20 20 20 19 20 21 22 23 23 23 23 24 24 24 23 21 20 20 20 20 19 18 17
35 34 34 33 32 30 28 27 27 26 26 25 25 24 24 23 23 22 20 19 19 19 19 19 20 21 22 22 22 23 23 24 23 22 21 21 20 19 19 19 19 19
34 33 32 32 30 29 29 28 27 26 26 25 24 23 23 22 22 21 20 19 19 19 19 20 20 21 21 21 21 21 22 23 22 21 20 20 19 19 19 19 19 19
33 32 31 30 30 29 29 28 27 26 25 24 23 23 22 22 21 21 21 20 20 20 20 20 20 21 21 20 19 20 20 20 20 20 19 19 19 19 19 19 19 19
31 30 30 29 29 29 28 27 26 24 24 23 23 22 22 21 21 21 21 22 22 22 22 21 21 21 20 20 20 19 19 19 19 19 19 19 19 19 19 19 20 20
30 29 28 28 28 27 26 25 24 24 23 23 22 22 22 21 21 22 22 23 23 23 23 23 23 22 22 21 21 21 21 21 21 21 20 20 20 20 19 19 20 20